[[{"header":{"parameterUnit":"m.s-1","parameterCategory":1,"la1":31.0,"la2":29.5877,"lo1":-88.7671,"lo2":-86.6584,"dy":0.0162,"dx":0.0185,"nx":115,"ny":88,"refTime":"2024-03-28T12:00:00:Z","depth":0,"parameterNumber":2,"parameterNumberName":"U-component_of_WINDS"},"data":[0.0,0.0,0.0,0.0,0.0,0.0,0.0,0.0,0.0,0.0,0.0,0.0,0.0,0.0,0.0,0.0,0.0,0.0,0.0,0.0,0.0,0.0,0.0,0.0,0.0,0.0,0.0,0.0,0.0,0.0,0.0,0.0,0.0,0.0,0.0,0.0,0.0,0.0,0.0,0.0,0.0,0.0,0.0,0.0,0.0,0.0,0.0,0.0,0.0,0.0,0.0,0.0,0.0,0.0,0.0,0.0,0.0,0.0,0.0,0.0,0.0,0.0,0.0,0.0,0.0,0.0,0.0,0.0,0.0,0.0,0.0,0.0,0.0,0.0,0.0,0.0,0.0,0.0,0.0,0.0,0.0,0.0,0.0,0.0,0.0,0.0,0.0,0.0,0.0,0.0,0.0,0.0,0.0,0.0,0.0,0.0,0.0,0.0,0.0,0.0,0.0,0.0,0.0,0.0,0.0,0.0,0.0,0.0,0.0,0.0,0.0,0.0,0.0,0.0,0.0,0.0,0.0,0.0,0.0,0.0,0.0,0.0,0.0,0.0,0.0,0.0,0.0,0.0,0.0,0.0,0.0,0.0,0.0,0.0,0.0,0.0,0.0,0.0,0.0,0.0,0.0,0.0,0.0,0.0,0.0,0.0,0.0,0.0,0.0,0.0,0.0,0.0,0.0,0.0,0.0,0.0,0.0,0.0,0.0,0.0,0.0,0.0,0.0,0.0,0.0,0.0,0.0,0.0,0.0,0.0,0.0,0.0,0.0,0.0,0.0,0.0,0.0,0.0,0.0,0.0,0.0,0.0,0.0,0.0,0.0,0.0,0.0,0.0,0.0,0.0,0.0,0.0,0.0,0.0,0.0,0.0,0.0,0.0,0.0,0.0,0.0,0.0,0.0,0.0,0.0,0.0,0.0,0.0,0.0,0.0,0.0,0.0,0.0,0.0,0.0,0.0,0.0,0.0,0.0,0.0,0.0,0.0,0.0,0.0,0.0,0.0,0.0,0.0,0.0,0.0,0.0,0.0,0.0,0.0,0.0,0.0,0.0,0.0,0.0,0.0,0.0,0.0,0.0,0.0,0.0,0.0,0.0,0.0,0.0,0.0,0.0,0.0,0.0,0.0,0.0,0.0,0.0,0.0,0.0,0.0,0.0,0.0,0.0,0.0,0.0,0.0,0.0,0.0,0.0,0.0,0.0,0.0,0.0,0.0,0.0,0.0,0.0,0.0,0.0,0.0,0.0,0.0,0.0,0.0,0.0,0.0,0.0,0.0,0.0,0.0,0.0,0.0,0.0,0.0,0.0,0.0,0.0,0.0,0.0,0.0,0.0,0.0,0.0,0.0,0.0,0.0,0.0,0.0,0.0,0.0,0.0,0.0,0.0,0.0,0.0,0.0,0.0,0.0,0.0,0.0,0.0,0.0,0.0,0.0,0.0,0.0,0.0,0.0,0.0,0.0,0.0,0.0,0.0,0.0,0.0,0.0,0.0,0.0,0.0,0.0,0.0,0.0,0.0,0.0,0.0,0.0,0.0,0.0,0.0,0.0,0.0,0.0,0.0,0.0,0.0,0.0,0.0,0.0,0.0,0.0,0.0,0.0,0.0,0.0,0.0,0.0,0.0,0.0,0.0,0.0,0.0,0.0,0.0,0.0,0.0,0.0,0.0,0.0,0.0,0.0,0.0,0.0,0.0,0.0,0.0,0.0,0.0,0.0,0.0,0.0,0.0,0.0,0.0,0.0,0.0,0.0,0.0,0.0,0.0,0.0,0.0,0.0,0.0,0.0,0.0,0.0,0.0,0.0,0.0,0.0,0.0,0.0,0.0,0.0,0.0,0.0,0.0,0.0,0.0,0.0,0.0,0.0,0.0,0.0,0.0,0.0,0.0,0.0,0.0,0.0,0.0,0.0,0.0,0.0,0.0,0.0,0.0,0.0,0.0,0.0,0.0,0.0,0.0,0.0,0.0,0.0,0.0,0.0,0.0,0.0,0.0,0.0,0.0,0.0,0.0,0.0,0.0,0.0,0.0,0.0,0.0,0.0,0.0,0.0,0.0,0.0,0.0,0.0,0.0,0.0,0.0,0.0,0.0,0.0,0.0,0.0,0.0,0.0,0.0,0.0,0.0,0.0,0.0,0.0,0.0,0.0,0.0,0.0,0.0,0.0,0.0,0.0,0.0,0.0,0.0,0.0,0.0,0.0,0.0,0.0,0.0,0.0,0.0,0.0,0.0,0.0,0.0,0.0,0.0,0.0,0.0,0.0,0.0,0.0,0.0,0.0,0.0,0.0,0.0,0.0,0.0,0.0,0.0,0.0,0.0,0.0,0.0,0.0,0.0,0.0,0.0,0.0,0.0,0.0,0.0,0.0,0.0,0.0,0.0,0.0,0.0,0.0,0.0,0.0,0.0,0.0,0.0,0.0,0.0,0.0,0.0,0.0,0.0,0.0,0.0,0.0,0.0,0.0,0.0,0.0,0.0,0.0,0.0,0.0,0.0,0.0,0.0,0.0,0.0,0.0,0.0,0.0,0.0,0.0,0.0,0.0,0.0,0.0,0.0,0.0,0.0,0.0,0.0,0.0,0.0,0.0,0.0,0.0,0.0,0.0,0.0,0.0,0.0,0.0,0.0,0.0,0.0,0.0,0.0,0.0,0.0,0.0,0.0,0.0,0.0,0.0,0.0,0.0,0.0,0.0,0.0,0.0,0.0,0.0,0.0,0.0,0.0,0.0,0.0,0.0,0.0,0.0,0.0,0.0,0.0,0.0,0.0,0.0,0.0,0.0,0.0,0.0,0.0,0.0,0.0,0.0,0.0,0.0,0.0,0.0,0.0,0.0,0.0,0.0,0.0,0.0,0.0,0.0,0.0,0.0,0.0,0.0,0.0,0.0,0.0,0.0,0.0,0.0,0.0,0.0,0.0,0.0,0.0,0.0,0.0,0.0,0.0,0.0,0.0,0.0,0.0,0.0,0.0,0.0,0.0,0.0,0.0,0.0,0.0,0.0,0.0,0.0,0.0,0.0,0.0,0.0,0.0,0.0,0.0,0.0,0.0,0.0,0.0,0.0,0.0,0.0,0.0,0.0,0.0,0.0,0.0,0.0,0.0,0.0,0.0,0.0,0.0,0.0,0.0,0.0,0.0,0.0,0.0,0.0,0.0,0.0,0.0,0.0,0.0,0.0,0.0,0.0,0.0,0.0,0.0,0.0,0.0,0.0,0.0,0.0,0.0,0.0,0.0,0.0,0.0,0.0,0.0,0.0,0.0,0.0,0.0,0.0,0.0,0.0,0.0,0.0,0.0,0.0,0.0,0.0,0.0,0.0,0.0,0.0,0.0,0.0,0.0,0.0,0.0,0.0,0.0,0.0,0.0,0.0,0.0,0.0,0.0,0.0,0.0,0.0,0.0,0.0,0.0,0.0,0.0,0.0,0.0,0.0,0.0,0.0,0.0,0.0,0.0,0.0,0.0,0.0,0.0,0.0,0.0,0.0,0.0,0.0,0.0,0.0,0.0,0.0,0.0,0.0,0.0,0.0,0.0,0.0,0.0,0.0,0.0,0.0,0.0,0.0,0.0,0.0,0.0,0.0,0.0,0.0,0.0,0.0,0.0,0.0,0.0,0.0,0.0,0.0,0.0,0.0,0.0,0.0,0.0,0.0,0.0,0.0,0.0,0.0,0.0,0.0,0.0,0.0,0.0,0.0,0.0,0.0,0.0,0.0,0.0,0.0,0.0,0.0,0.0,0.0,0.0,0.0,0.0,0.0,0.0,0.0,0.0,0.0,0.0,0.0,0.0,0.0,0.0,0.0,0.0,0.0,0.0,0.0,0.0,0.0,0.0,0.0,0.0,0.0,0.0,0.0,0.0,0.0,0.0,0.0,0.0,0.0,0.0,0.0,0.0,0.0,0.0,0.0,0.0,0.0,0.0,0.0,0.0,0.0,0.0,0.0,0.0,0.0,0.0,0.0,0.0,0.0,0.0,0.0,0.0,0.0,0.0,0.0,0.0,0.0,0.0,0.0,0.0,0.0,0.0,0.0,0.0,0.0,0.0,0.0,0.0,0.0,0.0,0.0,0.0,0.0,0.0,0.0,0.0,0.0,0.0,0.0,0.0,0.0,0.0,0.0,0.0,0.0,0.0,0.0,0.0,0.0,0.0,0.0,0.0,0.0,0.0,0.0,0.0,0.0,0.0,0.0,0.0,0.0,0.0,0.0,0.0,0.0,0.0,0.0,0.0,0.0,0.0,0.0,0.0,0.0,0.0,0.0,-0.3068,0.0,0.0,0.0,0.0,0.0,0.0,0.0,0.0,0.0,0.0,0.0,0.0,0.0,0.0,0.0,0.0,0.0,0.0,0.0,0.0,0.0,0.0,0.0,0.0,0.0,0.0,0.0,0.0,0.0,0.0,0.0,0.0,0.0,0.0,0.0,0.0,0.0,0.0,0.0,0.0,0.0,0.0,0.0,0.0,0.0,0.0,0.0,0.0,0.0,0.0,0.0,0.0,0.0,0.0,0.0,0.0,0.0,0.0,0.0,0.0,0.0,0.0,0.0,0.0,0.0,0.0,0.0,0.0,0.0,0.0,0.0,0.0,0.0,0.0,0.0,0.0,0.0,0.0,0.0,0.0,0.0,0.0,0.0,0.0,0.0,0.0,0.0,0.0,0.0,0.0,0.0,0.0,0.0,0.0,0.0,0.0,0.0,0.0,0.0,0.0,0.0,0.0,0.0,0.0,0.0,0.0,0.0,0.0,0.0,0.0,-0.194,-0.2237,-0.2507,-0.2794,-0.3079,0.0,0.0,0.0,0.0,0.0,0.0,0.0,0.0,0.0,0.0,0.0,0.0,0.0,0.0,0.0,0.0,0.0,0.0,0.0,0.0,0.0,0.0,0.0,0.0,0.0,0.0,0.0,0.0,0.0,0.0,0.0,0.0,0.0,0.0,0.0,0.0,0.0,0.0,0.0,0.0,0.0,0.0,0.0,0.0,0.0,0.0,0.0,0.0,0.0,0.0,0.0,0.0,0.0,0.0,0.0,0.0,0.0,0.0,0.0,0.0,0.0,0.0,0.0,0.0,0.0,0.0,0.0,0.0,0.0,0.0,0.0,0.0,0.0,0.0,0.0,0.0,0.0,0.0,0.0,0.0,0.0,0.0,0.0,0.0,0.0,0.0,0.0,0.0,0.0,0.0,0.0,0.0,0.0,0.0,0.0,0.0,0.0,0.0,0.0,0.0,0.0,0.0,0.0,0.0,0.0,0.0,0.0,0.0,0.0,0.0,0.0,0.0,-0.2583,-0.2875,-0.3164,0.0,0.0,0.0,0.0,0.0,0.0,0.0,0.0,0.0,0.0,0.0,0.0,0.0,0.0,0.0,0.0,0.0,0.0,0.0,0.0,0.0,0.0,0.0,0.0,0.0,0.0,0.0,0.0,0.0,0.0,0.0,0.0,0.0,0.0,0.0,0.0,0.0,0.0,0.0,0.0,0.0,0.0,0.0,0.0,0.0,0.0,0.0,0.0,0.0,0.0,0.0,0.0,0.0,0.0,0.0,0.0,0.0,0.0,0.0,0.0,0.0,0.0,0.0,0.0,0.0,0.0,0.0,0.0,0.0,0.0,0.0,0.0,0.0,0.0,0.0,0.0,0.0,0.0,0.0,0.0,0.0,0.0,0.0,0.0,0.0,0.0,0.0,0.0,0.0,0.0,0.0,0.0,0.0,0.0,0.0,0.0,0.0,0.0,0.0,0.0,0.0,0.0,0.0,0.0,0.0,0.0,0.0,0.0,0.0,0.0,-0.2078,-0.2474,-0.2675,0.0,-0.3351,0.0,0.0,0.0,0.0,0.0,0.0,0.0,0.0,0.0,0.0,0.0,0.0,0.0,0.0,0.0,0.0,0.0,0.0,0.0,0.0,0.0,0.0,0.0,0.0,0.0,0.0,0.0,0.0,0.0,0.0,0.0,0.0,0.0,0.0,0.0,0.0,0.0,0.0,0.0,0.0,0.0,0.0,0.0,0.0,0.0,0.0,0.0,0.0,0.0,0.0,0.0,0.0,0.0,0.0,0.0,0.0,0.0,0.0,0.0,0.0,0.0,0.0,0.0,0.0,0.0,0.0,0.0,0.0,0.0,0.0,0.0,0.0,0.0,0.0,0.0,0.0,0.0,0.0,0.0,0.0,0.0,0.0,0.0,0.0,0.0,0.0,0.0,0.0,0.0,0.0,0.0,0.0,0.0,0.0,0.0,0.0,0.0,0.0,0.0,0.0,0.0,0.0,0.0,0.0,0.0,0.0,0.0,0.0,0.0,0.0,-0.208,-0.2437,-0.2867,-0.3187,0.0,0.0,0.0,0.0,0.0,0.0,0.0,0.0,0.0,0.0,0.0,0.0,0.0,0.0,0.0,0.0,0.0,0.0,0.0,0.0,0.0,0.0,0.0,0.0,0.0,0.0,0.0,0.0,0.0,0.0,0.0,0.0,0.0,0.0,0.0,0.0,0.0,0.0,0.0,0.0,0.0,0.0,0.0,0.0,0.0,0.0,0.0,0.0,0.0,0.0,0.0,0.0,0.0,0.0,0.0,0.0,0.0,0.0,0.0,0.0,0.0,0.0,0.0,0.0,0.0,0.0,0.0,0.0,0.0,0.0,0.0,0.0,0.0,0.0,0.0,0.0,0.0,0.0,0.0,0.0,0.0,0.0,0.0,0.0,0.0,0.0,0.0,0.0,0.0,0.0,0.0,0.0,0.0,0.0,0.0,0.0,0.0,0.0,0.0,0.0,0.0,0.0,0.0,0.0,0.0,0.0,0.0,0.0,0.0,0.0,-0.1809,-0.2203,-0.2636,-0.3105,-0.3362,-0.345,0.0,0.0,0.0,0.0,0.0,0.0,0.0,0.0,0.0,0.0,0.0,0.0,0.0,0.0,0.0,0.0,0.0,0.0,0.0,0.0,0.0,0.0,0.0,0.0,0.0,0.0,0.0,0.0,0.0,0.0,0.0,0.0,0.0,0.0,0.0,0.0,0.0,0.0,0.0,0.0,0.0,0.0,0.0,0.0,0.0,0.0,0.0,0.0,0.0,0.0,0.0,0.0,0.0,0.0,0.0,0.0,0.0,0.0,0.0,0.0,0.0,0.0,0.0,0.0,0.0,0.0,0.0,0.0,0.0,0.0,0.0,0.0,0.0,0.0,0.0,0.0,0.0,0.0,0.0,0.0,0.0,0.0,0.0,0.0,0.0,0.0,0.0,0.0,0.0,0.0,0.0,0.0,0.0,0.0,0.0,0.0,0.0,0.0,0.0,0.0,0.0,0.0,0.0,0.0,0.0,0.0,0.0,0.0,-0.168,-0.2018,-0.2528,-0.3225,-0.3353,-0.3461,0.0,0.0,0.0,0.0,0.0,0.0,0.0,0.0,0.0,0.0,0.0,0.0,0.0,0.0,0.0,0.0,0.0,0.0,0.0,0.0,0.0,0.0,0.0,0.0,0.0,0.0,0.0,0.0,0.0,0.0,0.0,0.0,0.0,0.0,0.0,0.0,0.0,0.0,0.0,0.0,0.0,0.0,0.0,0.0,0.0,0.0,0.0,0.0,0.0,0.0,0.0,0.0,0.0,0.0,0.0,0.0,0.0,0.0,0.0,0.0,0.0,0.0,0.0,0.0,0.0,0.0,0.0,0.0,0.0,0.0,0.0,0.0,0.0,0.0,0.0,0.0,0.0,0.0,0.0,0.0,0.0,0.0,0.0,0.0,0.0,0.0,0.0,0.0,0.0,0.0,0.0,0.0,0.0,0.0,0.0,0.0,0.0,0.0,0.0,0.0,0.0,0.0,0.0,0.0,0.0,0.0,0.0,0.0,0.0,-0.1797,-0.227,-0.2843,-0.3453,-0.3518,-0.3598,0.0,0.0,0.0,0.0,0.0,0.0,0.0,0.0,0.0,0.0,0.0,0.0,0.0,0.0,0.0,0.0,0.0,0.0,0.0,0.0,0.0,0.0,0.0,0.0,0.0,0.0,0.0,0.0,0.0,0.0,0.0,0.0,0.0,0.0,0.0,0.0,0.0,0.0,0.0,0.0,0.0,0.0,0.0,0.0,0.0,0.0,0.0,0.0,0.0,0.0,0.0,0.0,0.0,0.0,0.0,0.0,0.0,0.0,0.0,0.0,0.0,0.0,0.0,0.0,0.0,0.0,0.0,0.0,0.0,0.0,0.0,0.0,0.0,0.0,0.0,0.0,0.0,0.0,0.0,0.0,0.0,0.0,0.0,0.0,0.0,0.0,0.0,0.0,0.0,0.0,0.0,0.0,0.0,0.0,0.0,0.0,0.0,0.0,0.0,0.0,0.0,0.0,0.0,0.0,0.0,0.0,0.0,0.0,0.0,-0.2583,0.0,-0.3318,-0.3733,-0.3734,-0.3776,0.0,0.0,0.0,0.0,0.0,0.0,0.0,0.0,0.0,0.0,0.0,0.0,0.0,0.0,0.0,0.0,0.0,0.0,0.0,0.0,0.0,0.0,0.0,0.0,0.0,0.0,0.0,0.0,0.0,0.0,0.0,0.0,0.0,0.0,0.0,0.0,0.0,0.0,0.0,0.0,0.0,0.0,0.0,0.0,0.0,0.0,0.0,0.0,0.0,0.0,0.0,0.0,0.0,0.0,0.0,0.0,0.0,0.0,0.0,0.0,0.0,0.0,0.0,0.0,0.0,0.0,0.0,0.0,0.0,0.0,0.0,0.0,0.0,0.0,0.0,0.0,0.0,0.0,0.0,0.0,0.0,0.0,0.0,0.0,0.0,0.0,0.0,0.0,0.0,0.0,0.0,0.0,0.0,0.0,0.0,0.0,0.0,0.0,0.0,0.0,0.0,0.0,0.0,0.0,0.0,0.0,0.0,0.0,-0.4094,-0.4181,-0.4018,-0.3969,-0.4101,-0.4058,-0.4027,0.0,0.0,0.0,0.0,0.0,0.0,0.0,0.0,0.0,0.0,0.0,0.0,0.0,0.0,0.0,0.0,0.0,0.0,0.0,0.0,0.0,0.0,0.0,0.0,0.0,0.0,0.0,0.0,0.0,0.0,0.0,0.0,0.0,0.0,0.0,0.0,0.0,0.0,0.0,0.0,0.0,0.0,0.0,0.0,0.0,0.0,0.0,0.0,0.0,0.0,0.0,0.0,0.0,0.0,0.0,0.0,0.0,0.0,0.0,0.0,0.0,0.0,0.0,0.0,0.0,0.0,0.0,0.0,0.0,0.0,0.0,0.0,0.0,0.0,0.0,0.0,0.0,0.0,0.0,0.0,0.0,0.0,0.0,0.0,0.0,0.0,0.0,0.0,0.0,0.0,0.0,0.0,0.0,0.0,0.0,0.0,0.0,0.0,0.0,0.0,0.0,0.0,0.0,0.0,0.0,0.0,0.0,0.0,0.0,-0.526,-0.4903,-0.4804,-0.4972,-0.4832,-0.4595,0.0,0.0,0.0,0.0,0.0,0.0,0.0,0.0,0.0,0.0,0.0,0.0,0.0,0.0,0.0,0.0,0.0,0.0,0.0,0.0,0.0,0.0,0.0,0.0,0.0,0.0,0.0,0.0,0.0,0.0,0.0,0.0,0.0,0.0,0.0,0.0,0.0,0.0,0.0,0.0,0.0,0.0,0.0,0.0,0.0,0.0,0.0,0.0,0.0,0.0,0.0,0.0,0.0,0.0,0.0,0.0,0.0,0.0,0.0,0.0,0.0,0.0,0.0,0.0,0.0,0.0,0.0,0.0,0.0,0.0,0.0,0.0,0.0,0.0,0.0,0.0,0.0,0.0,0.0,0.0,0.0,0.0,0.0,0.0,0.0,0.0,0.0,0.0,0.0,0.0,0.0,0.0,0.0,0.0,0.0,0.0,0.0,0.0,0.0,0.0,0.0,0.0,0.0,0.0,0.0,0.0,0.0,0.0,0.0,-0.7421,-0.6607,-0.6146,-0.6108,-0.5752,-0.5296,-0.4789,0.0,0.0,0.0,0.0,0.0,0.0,0.0,0.0,0.0,0.0,0.0,0.0,0.0,0.0,0.0,0.0,0.0,0.0,0.0,0.0,0.0,0.0,0.0,0.0,0.0,0.0,0.0,0.0,0.0,0.0,0.0,0.0,0.0,0.0,0.0,0.0,0.0,0.0,0.0,0.0,0.0,0.0,0.0,0.0,0.0,0.0,0.0,0.0,0.0,0.0,0.0,0.0,0.0,0.0,0.0,0.0,0.0,0.0,0.0,0.0,0.0,0.0,0.0,0.0,0.0,0.0,0.0,0.0,0.0,0.0,0.0,0.0,0.0,0.0,0.0,0.0,0.0,0.0,0.0,0.0,0.0,0.0,0.0,0.0,0.0,0.0,0.0,0.0,0.0,0.0,0.0,0.0,0.0,0.0,0.0,0.0,0.0,0.0,0.0,0.0,0.0,0.0,0.0,0.0,0.0,0.0,0.0,0.0,-1.0399,-0.9002,-0.7997,-0.741,-0.6741,-0.6089,0.0,0.0,0.0,0.0,0.0,0.0,0.0,0.0,0.0,0.0,0.0,0.0,0.0,0.0,0.0,0.0,0.0,0.0,0.0,0.0,0.0,0.0,0.0,0.0,0.0,0.0,0.0,0.0,0.0,0.0,0.0,0.0,0.0,0.0,0.0,0.0,0.0,0.0,0.0,0.0,0.0,0.0,0.0,0.0,0.0,0.0,0.0,0.0,0.0,0.0,0.0,0.0,0.0,0.0,0.0,0.0,0.0,0.0,0.0,0.0,0.0,0.0,0.0,0.0,0.0,0.0,0.0,0.0,0.0,0.0,0.0,0.0,0.0,0.0,0.0,0.0,0.0,0.0,0.0,0.0,0.0,0.0,0.0,0.0,0.0,0.0,0.0,0.0,0.0,0.0,0.0,0.0,0.0,0.0,0.0,0.0,0.0,0.0,0.0,0.0,0.0,0.0,0.0,0.0,0.0,0.0,0.0,0.0,0.0,-1.1656,-1.1597,-1.0603,-0.8706,-0.784,-0.6982,0.0,0.0,0.0,0.0,0.0,0.0,0.0,0.0,0.0,0.0,0.0,0.0,0.0,0.0,0.0,0.0,0.0,0.0,0.0,0.0,0.0,0.0,0.0,0.0,0.0,0.0,0.0,0.0,0.0,0.0,0.0,0.0,0.0,0.0,0.0,0.0,0.0,0.0,0.0,0.0,0.0,0.0,0.0,0.0,0.0,0.0,0.0,0.0,0.0,0.0,0.0,0.0,0.0,0.0,0.0,0.0,0.0,0.0,0.0,0.0,0.0,0.0,0.0,0.0,0.0,0.0,0.0,0.0,0.0,0.0,0.0,0.0,0.0,0.0,0.0,0.0,0.0,0.0,0.0,0.0,0.0,0.0,0.0,0.0,0.0,0.0,0.0,0.0,0.0,0.0,0.0,0.0,0.0,0.0,0.0,0.0,0.0,0.0,0.0,0.0,0.0,0.0,0.0,0.0,0.0,0.0,0.0,0.0,-1.2066,-1.2499,-1.3035,-1.2304,-1.0222,-0.9151,-0.7983,0.0,0.0,0.0,0.0,0.0,0.0,0.0,0.0,0.0,0.0,0.0,0.0,0.0,0.0,0.0,0.0,0.0,0.0,0.0,0.0,0.0,0.0,0.0,0.0,0.0,0.0,0.0,0.0,0.0,0.0,0.0,0.0,0.0,0.0,0.0,0.0,0.0,0.0,0.0,0.0,0.0,0.0,0.0,0.0,0.0,0.0,0.0,0.0,0.0,0.0,0.0,0.0,0.0,0.0,0.0,0.0,0.0,0.0,0.0,0.0,0.0,0.0,0.0,0.0,0.0,0.0,0.0,0.0,0.0,0.0,0.0,0.0,0.0,0.0,0.0,0.0,0.0,0.0,0.0,0.0,0.0,0.0,0.0,0.0,0.0,0.0,0.0,0.0,0.0,0.0,0.0,0.0,0.0,0.0,0.0,0.0,0.0,0.0,0.0,0.0,0.0,0.0,0.0,0.0,0.0,0.0,0.0,0.0,-1.3237,-1.303,-1.3766,-1.3374,-1.1775,-1.0448,-0.8984,0.0,0.0,0.0,0.0,0.0,0.0,0.0,0.0,0.0,0.0,0.0,0.0,0.0,0.0,0.0,0.0,0.0,0.0,0.0,0.0,0.0,0.0,0.0,0.0,0.0,0.0,0.0,0.0,0.0,0.0,0.0,0.0,0.0,0.0,0.0,0.0,0.0,0.0,0.0,0.0,0.0,0.0,0.0,0.0,0.0,0.0,0.0,0.0,0.0,0.0,0.0,0.0,0.0,0.0,0.0,0.0,0.0,0.0,0.0,0.0,0.0,0.0,0.0,0.0,0.0,0.0,0.0,0.0,0.0,0.0,0.0,0.0,0.0,0.0,0.0,0.0,0.0,0.0,0.0,0.0,0.0,0.0,0.0,0.0,0.0,0.0,0.0,0.0,0.0,0.0,0.0,0.0,0.0,0.0,0.0,0.0,0.0,0.0,0.0,0.0,0.0,0.0,0.0,0.0,0.0,0.0,0.0,0.0,-1.369,-1.3865,-1.4621,-1.425,-1.2583,-1.101,-0.9412,0.0,0.0,0.0,0.0,0.0,0.0,0.0,0.0,0.0,0.0,0.0,0.0,0.0,0.0,0.0,0.0,0.0,0.0,0.0,0.0,0.0,0.0,0.0,0.0,0.0,0.0,0.0,0.0,0.0,0.0,0.0,0.0,0.0,0.0,0.0,0.0,0.0,0.0,0.0,0.0,0.0,0.0,0.0,0.0,0.0,0.0,0.0,0.0,-0.0889,0.0,0.0,0.0,0.0,0.0,0.0,0.0,0.0,0.0,0.0,0.0,0.0,0.0,0.0,0.0,0.0,0.0,0.0,0.0,0.0,0.0,0.0,0.0,0.0,0.0,0.0,0.0,0.0,0.0,0.0,0.0,0.0,0.0,0.0,0.0,0.0,0.0,0.0,0.0,0.0,0.0,0.0,0.0,0.0,0.0,0.0,0.0,0.0,0.0,0.0,0.0,0.0,0.0,0.0,0.0,0.0,0.0,0.0,0.0,-1.4268,-1.3982,-1.4722,-1.4335,-1.2711,-1.1331,-0.979,0.0,0.0,0.0,0.0,0.0,0.0,0.0,0.0,0.0,0.0,0.0,0.0,0.0,0.0,0.0,0.0,0.0,0.0,0.0,0.0,0.0,0.0,0.0,0.0,0.0,0.0,0.0,0.0,0.0,0.0,0.0,0.0,0.0,0.0,0.0,0.0,0.0,0.0,0.0,0.0,0.0,0.0,0.0,0.0,0.0,0.0,0.0,0.0,0.0,0.0,0.0,0.0,0.0,0.0,0.0,0.0,0.0,0.0,0.0,0.0,0.0,0.0,0.0,0.0,0.0,0.0,0.0,0.0,0.0,0.0,0.0,0.0,0.0,0.0,0.0,0.0,0.0,0.0,0.0,0.0,0.0,0.0,0.0,0.0,0.0,0.0,0.0,0.0,0.0,0.0,0.0,0.0,0.0,0.0,0.0,0.0,0.0,0.0,0.0,0.0,0.0,0.0,0.0,0.0,0.0,0.0,0.0,-1.4025,-1.4827,-1.3968,-1.4544,-1.4139,-1.2581,-1.152,-1.0101,-0.8217,0.0,0.0,0.0,0.0,0.0,0.0,0.0,0.0,0.0,0.0,0.0,0.0,0.0,0.0,0.0,0.0,0.0,0.0,0.0,0.0,0.0,0.0,0.0,0.0,0.0,0.0,0.0,0.0,0.0,0.0,0.0,0.0,0.0,0.0,0.0,0.0,0.0,0.0,-0.2575,-0.2396,0.0,0.0,0.0,0.0,0.0,0.0,0.0,0.0,-0.1943,0.0,0.0,0.0,0.0,0.0,0.0,0.0,0.0,0.0,0.0,0.0,0.0,0.0,0.0,0.0,0.0,0.0,0.0,0.0,0.0,0.0,0.0,0.0,0.0,0.0,0.0,0.0,0.0,0.0,0.0,0.0,0.0,0.0,0.0,0.0,0.0,0.0,0.0,0.0,0.0,0.0,0.0,0.0,0.0,0.0,0.0,0.0,0.0,0.0,0.0,0.0,0.0,0.0,0.0,0.0,0.0,-1.1802,-1.4301,-1.5181,-1.4338,-1.4644,-1.411,-1.2634,-1.1495,-1.0081,-0.8367,0.0,0.0,0.0,0.0,0.0,0.0,0.0,0.0,0.0,0.0,0.0,0.0,0.0,0.0,0.0,0.0,0.0,0.0,0.0,0.0,0.0,0.0,0.0,0.0,0.0,0.0,0.0,0.0,0.0,0.0,0.0,0.0,0.0,0.0,0.0,0.0,0.0,0.0,0.0,-0.3163,-0.2995,0.0,0.0,0.0,0.0,0.0,0.0,0.0,0.0,-0.2601,0.0,0.0,0.0,0.0,0.0,0.0,0.0,0.0,0.0,0.0,0.0,0.0,0.0,0.0,0.0,0.0,0.0,0.0,0.0,0.0,0.0,0.0,0.0,0.0,0.0,0.0,0.0,0.0,0.0,0.0,0.0,0.0,0.0,0.0,0.0,0.0,0.0,0.0,0.0,0.0,0.0,0.0,0.0,0.0,0.0,0.0,0.0,0.0,0.0,0.0,0.0,0.0,0.0,0.0,0.0,-1.1983,-1.4049,-1.4797,-1.4074,-1.4012,-1.3515,-1.2408,-1.1374,-1.0156,0.0,0.0,0.0,0.0,0.0,0.0,0.0,0.0,0.0,0.0,0.0,0.0,0.0,0.0,0.0,0.0,0.0,0.0,0.0,0.0,0.0,0.0,0.0,0.0,0.0,0.0,0.0,0.0,0.0,0.0,0.0,0.0,0.0,0.0,0.0,0.0,0.0,0.0,0.0,0.0,-0.4227,-0.4078,-0.4188,0.0,0.0,0.0,0.0,0.0,0.0,-0.3992,-0.3675,0.0,0.0,0.0,0.0,0.0,0.0,0.0,0.0,0.0,0.0,0.0,0.0,0.0,0.0,0.0,0.0,0.0,0.0,0.0,0.0,0.0,0.0,0.0,0.0,0.0,0.0,0.0,0.0,0.0,0.0,0.0,0.0,0.0,0.0,0.0,0.0,0.0,0.0,0.0,0.0,0.0,0.0,0.0,0.0,0.0,0.0,0.0,0.0,0.0,0.0,0.0,0.0,0.0,0.0,0.0,-1.2493,-1.4143,-1.4759,-1.4224,-1.3762,-1.3188,-1.2442,-1.1386,-1.0264,0.0,0.0,0.0,0.0,0.0,0.0,0.0,0.0,0.0,0.0,0.0,0.0,0.0,0.0,0.0,0.0,0.0,0.0,0.0,0.0,0.0,0.0,0.0,0.0,0.0,0.0,0.0,0.0,0.0,0.0,0.0,0.0,0.0,0.0,0.0,0.0,0.0,0.0,0.0,0.0,0.0,-0.5272,-0.5627,-0.5753,0.0,0.0,0.0,0.0,-0.5916,-0.5438,0.0,0.0,0.0,0.0,0.0,0.0,0.0,0.0,0.0,0.0,0.0,0.0,0.0,0.0,0.0,0.0,0.0,0.0,0.0,0.0,0.0,0.0,0.0,0.0,0.0,0.0,0.0,0.0,0.0,0.0,0.0,0.0,0.0,0.0,0.0,0.0,0.0,0.0,0.0,0.0,0.0,0.0,0.0,0.0,0.0,0.0,0.0,0.0,0.0,0.0,0.0,0.0,0.0,0.0,0.0,0.0,-1.4189,-1.5465,-1.607,-1.5956,-1.4861,-1.3937,-1.3177,-1.1749,-1.0354,0.0,0.0,0.0,0.0,0.0,0.0,0.0,0.0,0.0,0.0,0.0,0.0,0.0,0.0,0.0,0.0,0.0,0.0,0.0,0.0,0.0,0.0,0.0,0.0,0.0,0.0,0.0,0.0,0.0,0.0,0.0,0.0,0.0,0.0,0.0,0.0,0.0,0.0,0.0,0.0,0.0,-0.657,-0.6328,-0.6793,-0.7465,0.0,0.0,-0.7916,-0.8253,-0.7603,0.0,0.0,0.0,0.0,0.0,0.0,0.0,0.0,0.0,0.0,0.0,0.0,0.0,0.0,0.0,0.0,0.0,0.0,0.0,0.0,0.0,0.0,0.0,0.0,0.0,0.0,0.0,0.0,0.0,0.0,0.0,0.0,0.0,0.0,0.0,0.0,0.0,0.0,0.0,0.0,0.0,0.0,0.0,0.0,0.0,0.0,0.0,0.0,0.0,0.0,0.0,0.0,0.0,0.0,0.0,-1.3183,-1.4521,-1.5318,-1.5773,-1.5876,-1.4989,-1.4047,-1.3033,-1.2298,-1.1102,0.0,0.0,0.0,0.0,0.0,0.0,0.0,0.0,0.0,0.0,0.0,0.0,0.0,0.0,0.0,0.0,0.0,0.0,0.0,0.0,0.0,0.0,0.0,0.0,0.0,0.0,0.0,0.0,0.0,0.0,0.0,0.0,0.0,0.0,0.0,0.0,0.0,0.0,0.0,0.0,0.0,0.0,-0.8539,-0.902,0.0,0.0,0.0,-1.055,-1.0223,0.0,0.0,0.0,0.0,0.0,0.0,0.0,0.0,0.0,0.0,0.0,0.0,0.0,0.0,0.0,0.0,0.0,0.0,0.0,0.0,0.0,0.0,0.0,0.0,0.0,0.0,0.0,0.0,0.0,0.0,0.0,0.0,0.0,0.0,0.0,0.0,0.0,0.0,0.0,0.0,0.0,0.0,0.0,0.0,0.0,0.0,0.0,0.0,0.0,0.0,0.0,0.0,0.0,0.0,0.0,0.0,0.0,-1.5195,-1.5704,-1.6036,-1.6199,-1.5434,-1.4533,-1.35,-1.3009,0.0,0.0,0.0,0.0,0.0,0.0,0.0,0.0,0.0,0.0,0.0,0.0,0.0,0.0,0.0,0.0,0.0,0.0,0.0,0.0,0.0,0.0,0.0,0.0,0.0,0.0,0.0,0.0,0.0,0.0,0.0,0.0,0.0,0.0,0.0,0.0,0.0,0.0,0.0,0.0,0.0,0.0,-1.1495,-1.115,-1.1353,-1.1803,0.0,0.0,-1.2854,-1.2259,-1.1561,-1.0814,0.0,0.0,0.0,0.0,0.0,0.0,0.0,0.0,0.0,0.0,0.0,0.0,0.0,0.0,0.0,0.0,0.0,0.0,0.0,0.0,0.0,0.0,0.0,0.0,0.0,0.0,0.0,0.0,0.0,0.0,0.0,0.0,0.0,0.0,0.0,0.0,0.0,0.0,0.0,0.0,0.0,0.0,0.0,0.0,0.0,0.0,0.0,0.0,0.0,0.0,0.0,0.0,0.0,0.0,0.0,-1.6847,-1.7447,-1.7796,-1.7887,-1.6784,-1.5919,-1.5322,-1.3918,-1.2849,0.0,0.0,0.0,0.0,0.0,0.0,0.0,0.0,0.0,0.0,0.0,0.0,0.0,0.0,0.0,0.0,0.0,0.0,0.0,0.0,0.0,0.0,0.0,0.0,0.0,0.0,0.0,0.0,0.0,0.0,0.0,0.0,0.0,0.0,0.0,0.0,0.0,0.0,0.0,0.0,0.0,-1.3105,-1.3983,-1.345,-1.3788,0.0,0.0,-1.4387,-1.4449,-1.3758,-1.2874,-1.1963,0.0,0.0,0.0,0.0,0.0,0.0,0.0,0.0,0.0,0.0,0.0,0.0,0.0,0.0,0.0,0.0,0.0,0.0,0.0,0.0,0.0,0.0,0.0,0.0,0.0,0.0,0.0,0.0,0.0,0.0,0.0,0.0,0.0,0.0,0.0,0.0,0.0,0.0,0.0,0.0,0.0,0.0,0.0,0.0,0.0,0.0,0.0,0.0,0.0,0.0,0.0,0.0,0.0,-1.5159,-1.7839,-1.8415,-1.9057,-1.9692,-1.8501,-1.7403,-1.6515,-1.53,-1.3996,0.0,0.0,0.0,0.0,0.0,0.0,0.0,0.0,0.0,0.0,0.0,0.0,0.0,0.0,0.0,0.0,0.0,0.0,0.0,0.0,0.0,0.0,0.0,0.0,0.0,0.0,0.0,0.0,-0.6262,-0.6542,-0.6294,0.0,0.0,0.0,0.0,0.0,0.0,0.0,0.0,0.0,0.0,-1.6177,-1.5532,-1.5627,0.0,0.0,-1.703,-1.6377,-1.5943,-1.5446,-1.4809,-1.3888,-1.3119,0.0,0.0,0.0,0.0,0.0,0.0,0.0,0.0,0.0,0.0,0.0,0.0,0.0,0.0,0.0,0.0,0.0,0.0,0.0,0.0,0.0,0.0,0.0,0.0,0.0,0.0,0.0,0.0,0.0,0.0,0.0,0.0,0.0,0.0,0.0,0.0,0.0,0.0,0.0,0.0,0.0,0.0,0.0,0.0,0.0,0.0,0.0,0.0,0.0,0.0,0.0,0.0,-1.5441,-1.8029,-1.9081,-1.9912,-2.0513,-1.9711,-1.8766,-1.7605,-1.6625,-1.5218,0.0,0.0,0.0,0.0,0.0,0.0,0.0,0.0,0.0,0.0,0.0,0.0,0.0,0.0,0.0,0.0,0.0,0.0,0.0,0.0,0.0,0.0,0.0,0.0,0.0,0.0,0.0,0.0,-0.8061,-0.8205,-0.7586,0.0,0.0,0.0,0.0,0.0,0.0,0.0,0.0,0.0,0.0,-1.8503,-1.7639,-1.7655,-1.7921,-1.8294,-1.8575,-1.8353,-1.7203,-1.7003,-1.6584,-1.5449,0.0,0.0,0.0,0.0,0.0,0.0,0.0,0.0,0.0,0.0,0.0,0.0,0.0,0.0,0.0,0.0,0.0,0.0,0.0,0.0,0.0,0.0,0.0,0.0,0.0,0.0,0.0,0.0,0.0,0.0,-1.1508,0.0,0.0,0.0,0.0,0.0,0.0,0.0,0.0,0.0,0.0,0.0,0.0,0.0,0.0,0.0,0.0,0.0,0.0,0.0,0.0,0.0,0.0,-1.5727,-1.7248,-1.9455,-2.0377,-2.001,-2.0289,-1.9889,-1.8694,-1.7695,-1.6495,-1.5063,0.0,0.0,0.0,0.0,0.0,0.0,0.0,0.0,0.0,0.0,0.0,0.0,0.0,0.0,0.0,0.0,0.0,0.0,0.0,0.0,0.0,0.0,0.0,0.0,0.0,0.0,-1.0456,-0.983,-0.9032,0.0,0.0,0.0,0.0,0.0,0.0,0.0,0.0,0.0,0.0,-1.879,-1.9643,-2.0539,-1.9506,-1.8667,-1.8761,-1.9976,-2.0224,-1.8306,-1.8404,-1.822,0.0,0.0,0.0,0.0,0.0,0.0,0.0,0.0,0.0,0.0,0.0,0.0,0.0,0.0,0.0,0.0,0.0,0.0,0.0,0.0,0.0,0.0,0.0,0.0,0.0,0.0,0.0,-1.4536,-1.4449,0.0,0.0,0.0,0.0,0.0,0.0,0.0,0.0,0.0,0.0,0.0,-1.8709,-1.8716,0.0,0.0,0.0,0.0,0.0,0.0,0.0,0.0,0.0,0.0,0.0,0.0,-1.66,-1.807,-2.0219,-2.1434,-2.1618,-2.1531,-2.0958,-1.9865,-1.8807,-1.7366,-1.5439,0.0,0.0,0.0,0.0,0.0,0.0,0.0,0.0,0.0,0.0,0.0,0.0,0.0,0.0,0.0,0.0,0.0,0.0,0.0,0.0,0.0,0.0,0.0,0.0,0.0,-1.1142,0.0,0.0,0.0,0.0,0.0,0.0,0.0,0.0,0.0,0.0,0.0,-1.7665,-1.896,-2.0712,-2.1967,-2.2168,-2.1311,-2.0816,0.0,0.0,0.0,0.0,0.0,0.0,0.0,0.0,0.0,0.0,0.0,0.0,0.0,0.0,-1.7299,-1.4503,-1.3929,-1.3847,-1.3765,0.0,0.0,0.0,0.0,0.0,0.0,0.0,0.0,0.0,0.0,0.0,0.0,0.0,0.0,-1.697,0.0,-1.5799,0.0,0.0,0.0,0.0,0.0,0.0,0.0,0.0,-1.9631,-2.0449,-2.1265,-2.1271,-2.1274,0.0,-2.0717,-1.9172,0.0,0.0,0.0,0.0,0.0,0.0,0.0,0.0,-1.7172,-1.8947,-2.0823,-2.2035,-2.2562,-2.2579,-2.2069,-2.1033,-1.9746,-1.8324,-1.6836,-1.5425,-1.4067,0.0,0.0,0.0,0.0,0.0,0.0,0.0,0.0,0.0,0.0,0.0,0.0,0.0,0.0,0.0,0.0,0.0,0.0,0.0,0.0,0.0,0.0,0.0,-1.2739,0.0,0.0,0.0,0.0,0.0,0.0,0.0,0.0,0.0,-1.7047,-1.8214,-1.9438,-2.0783,-2.2305,-2.3265,-2.3127,0.0,0.0,0.0,0.0,0.0,0.0,0.0,-2.1323,-2.088,-2.0683,-2.0327,-1.9641,-1.8189,-1.7563,-1.8921,0.0,0.0,-1.7103,-1.6458,-1.637,-1.6253,-1.6457,-1.662,-1.651,-1.6733,-1.6697,0.0,0.0,0.0,0.0,0.0,0.0,0.0,0.0,-2.0184,-2.0046,0.0,-1.8399,0.0,0.0,0.0,0.0,0.0,-1.7681,0.0,0.0,-2.1384,-2.2201,-2.2947,-2.2963,-2.297,-2.2988,-2.291,-2.2449,-2.1472,-1.8393,0.0,0.0,0.0,0.0,0.0,0.0,-1.753,-1.9786,-2.1258,-2.2222,-2.2801,-2.3327,-2.3149,-2.2185,-2.0491,-1.9473,-1.9211,-1.7797,-1.6617,-1.5743,-1.4171,0.0,0.0,0.0,0.0,0.0,0.0,0.0,0.0,0.0,0.0,0.0,0.0,0.0,0.0,0.0,0.0,0.0,0.0,0.0,0.0,-1.4283,0.0,0.0,0.0,0.0,0.0,0.0,0.0,0.0,0.0,0.0,-1.8405,-1.9351,-2.0758,-2.3156,0.0,0.0,0.0,0.0,-2.4095,-2.2458,-2.3553,-2.3946,-2.2184,-2.2327,-2.2339,-2.1446,0.0,0.0,-2.0446,-2.0203,-2.0035,-2.0086,-2.1252,-2.1754,-2.0047,-1.9515,-1.9375,-1.9208,-1.9,-1.8943,-1.8754,-1.8529,-1.8424,-2.3435,0.0,0.0,0.0,0.0,-2.1192,-2.2005,-2.2793,-2.3021,-2.2966,-2.2649,-2.1187,0.0,0.0,0.0,0.0,0.0,0.0,-2.1491,-2.3017,-2.3315,-2.3878,-2.4664,-2.4688,-2.4692,-2.4658,-2.4057,-2.3636,-2.3311,-2.1829,-1.9959,-1.7779,0.0,0.0,0.0,0.0,-1.955,-2.0665,-2.2043,-2.2801,-2.2858,-2.3478,-2.3353,-2.2364,-2.1353,-2.0681,-2.0423,-1.9937,-1.9264,-1.8338,-1.6777,0.0,0.0,0.0,0.0,0.0,0.0,0.0,0.0,0.0,0.0,0.0,0.0,0.0,0.0,0.0,0.0,0.0,0.0,0.0,-1.5336,-1.495,-1.4264,0.0,0.0,0.0,0.0,0.0,0.0,0.0,0.0,0.0,-2.0158,-2.104,-2.2028,0.0,0.0,-2.4385,-2.4429,-2.4625,-2.4591,-2.402,-2.4321,0.0,0.0,-2.3658,-2.353,-2.3123,-2.2696,-2.2319,-2.2052,-2.1809,-2.1637,-2.1637,-2.1992,-2.2113,-2.1639,-2.0474,-1.965,-1.9479,-1.9615,-1.9752,-1.9666,-1.9862,-2.0016,-2.7636,-2.5293,-2.3416,-2.2901,-2.3412,-2.4212,-2.4821,-2.5263,-2.5603,-2.5534,-2.512,-2.4092,-2.3471,-2.314,-2.2617,0.0,0.0,0.0,-2.4015,-2.463,-2.4946,-2.5183,-2.5356,-2.5356,-2.5356,-2.5341,-2.483,-2.4565,-2.4589,-2.4124,-2.2964,-2.1162,0.0,0.0,-2.0122,-2.0765,-2.1561,-2.2517,-2.3588,-2.4053,-2.3942,-2.3963,-2.365,-2.3017,-2.2545,-2.218,-2.1978,-2.1828,-2.134,-2.0407,-1.9141,-1.7612,0.0,0.0,0.0,0.0,0.0,0.0,0.0,0.0,0.0,0.0,0.0,-0.8862,0.0,0.0,0.0,0.0,-1.5612,-1.6411,-1.7293,-1.6415,0.0,0.0,0.0,0.0,0.0,0.0,0.0,-1.806,-1.9374,-2.069,-2.1779,-2.2383,-2.3,-2.381,-2.435,-2.4726,-2.4776,0.0,-2.4719,-2.4626,-2.4547,-2.4464,-2.4412,-2.4266,-2.4039,-2.3806,-2.344,-2.3089,-2.2876,-2.2579,-2.2335,-2.231,-2.2313,-2.2313,-2.2313,-2.1368,-2.0597,-2.0511,-2.0646,-2.0749,-2.0676,-2.083,-2.0909,-3.1816,-3.082,-2.7635,-2.6242,-2.6186,-2.6967,-2.7243,-2.7163,-2.7958,-2.7778,-2.6905,-2.6825,-2.6356,-2.5597,-2.561,0.0,-2.5644,-2.6427,-2.6342,-2.563,-2.6362,-2.6232,-2.5423,-2.5404,-2.536,-2.5308,-2.5308,-2.5308,-2.5288,-2.5356,-2.4994,-2.4178,-2.2722,-2.1923,-2.1847,-2.2453,-2.349,-2.4887,-2.5498,-2.5699,-2.55,-2.4602,-2.4054,-2.3917,-2.3876,-2.3764,-2.3638,-2.3387,-2.2888,-2.2072,-2.1213,-1.977,-1.7645,0.0,0.0,0.0,0.0,0.0,0.0,0.0,0.0,0.0,0.0,0.0,0.0,0.0,0.0,0.0,-1.7572,0.0,-1.9635,-1.8428,0.0,0.0,0.0,-1.8028,-1.8708,-1.955,-2.0339,-2.1002,0.0,0.0,-2.31,-2.3359,-2.3702,-2.4556,-2.4685,-2.4706,-2.478,-2.4715,-2.4618,-2.4505,-2.4356,-2.433,-2.4348,-2.4247,-2.4084,-2.3756,-2.356,-2.3348,-2.3119,-2.2764,-2.2443,-2.2366,-2.2307,-2.2296,-2.2313,-2.2172,-2.2183,-2.1974,-2.1849,-2.1749,-2.1675,-2.1479,-2.1277,-3.2988,-3.2734,-3.1913,-3.0795,-2.9649,-3.0508,-3.0443,-2.9797,-2.9935,-2.9474,-2.8569,-2.796,-2.7546,-2.7301,-2.7358,-2.7349,-2.7311,-2.7518,-2.7508,-2.7323,-2.7497,-2.7145,-2.6313,-2.6308,-2.5942,-2.5327,-2.5308,-2.5308,-2.5308,-2.5317,-2.5255,-2.5075,-2.4701,-2.4188,-2.3569,-2.4236,-2.4983,-2.5795,-2.6443,-2.6367,-2.5519,-2.4631,-2.4161,-2.4123,-2.4132,-2.4064,-2.3994,-2.3876,-2.3642,-2.3293,-2.2497,-2.1258,-1.9514,-1.7471,0.0,0.0,0.0,0.0,0.0,0.0,0.0,0.0,0.0,-1.243,-1.4255,0.0,-1.6848,0.0,-1.9266,-2.0315,-2.0567,-2.0299,0.0,0.0,-2.0212,-2.0792,-2.0335,-2.1573,-2.2294,-2.1868,-2.2372,-2.2856,-2.318,-2.377,-2.4207,-2.4384,-2.4435,-2.452,-2.4621,-2.459,-2.4472,-2.4312,-2.4303,-2.4284,-2.4247,-2.4172,-2.4046,-2.3806,-2.3653,-2.3464,-2.3168,-2.2876,-2.2655,-2.2555,-2.2446,-2.2349,-2.231,-2.2282,-2.2285,-2.2223,-2.2032,-2.1884,-2.1855,-2.1751,-2.1632,-3.4922,-3.4551,-3.457,-3.4002,-3.3098,-3.2811,-3.237,-3.1868,-3.1809,-3.1487,-3.0966,-3.0494,-3.0245,-3.0197,-2.9854,-2.965,-2.9564,-2.9182,-2.8786,-2.8434,-2.8453,-2.7986,-2.7198,-2.7178,-2.6928,-2.6462,-2.6462,-2.6447,-2.6447,-2.6058,-2.5895,-2.5914,-2.5566,-2.5348,-2.5301,-2.6015,-2.6703,-2.7307,-2.7098,-2.6684,-2.6046,-2.4845,-2.4237,-2.4284,-2.3907,-2.3695,-2.3649,-2.3272,-2.2987,-2.2807,-2.2753,-2.2162,-2.0907,-1.934,-1.7617,0.0,0.0,0.0,0.0,0.0,0.0,0.0,0.0,0.0,0.0,0.0,-1.8882,-2.0406,-2.0994,-2.145,-2.1852,-2.1585,-2.1488,-2.1715,-2.2571,-2.3223,-2.3475,-2.3987,-2.4173,-2.376,-2.3746,-2.3751,-2.3708,-2.4071,-2.4303,-2.4257,-2.4284,-2.4357,-2.4446,-2.4438,-2.4358,-2.4237,-2.4228,-2.4247,-2.4191,-2.419,-2.4094,-2.3966,-2.3792,-2.3616,-2.3365,-2.3102,-2.2876,-2.2721,-2.2497,-2.2352,-2.2335,-2.2307,-2.2313,-2.2282,-2.2194,-2.2075,-2.2075,-2.2034,-2.1932,-3.7031,-3.6348,-3.6328,-3.6269,-3.6053,-3.4523,-3.3725,-3.3483,-3.3483,-3.3367,-3.3215,-3.3137,-3.3107,-3.3069,-3.2312,-3.1934,-3.1804,-3.1076,-3.0314,-2.9608,-2.9588,-2.9107,-2.8222,-2.8217,-2.8121,-2.7909,-2.789,-2.789,-2.7876,-2.7145,-2.6774,-2.6717,-2.6073,-2.6158,-2.7012,-2.7716,-2.837,-2.8902,-2.771,-2.698,-2.6705,-2.5188,-2.4386,-2.4366,-2.3681,-2.3226,-2.3124,-2.2475,-2.1974,-2.1782,-2.2572,-2.2663,-2.1852,-2.1216,-2.0218,0.0,-1.7462,0.0,0.0,0.0,0.0,0.0,0.0,0.0,0.0,-2.0184,-2.1172,-2.3316,-2.2814,-2.2696,-2.3488,-2.2915,-2.3117,-2.4504,-2.4792,-2.5393,-2.6655,-2.619,-2.5736,-2.5699,-2.4939,-2.4358,-2.4293,-2.4257,-2.421,-2.4209,-2.4228,-2.4238,-2.4284,-2.4294,-2.4266,-2.4199,-2.4199,-2.4199,-2.4199,-2.4199,-2.417,-2.4094,-2.3937,-2.3764,-2.3638,-2.3354,-2.3089,-2.2871,-2.2579,-2.2349,-2.2377,-2.2321,-2.2313,-2.2313,-2.2282,-2.2282,-2.2282,-2.224,-2.2197,-3.8262,-3.8125,-3.8105,-3.7695,-3.7031,-3.6679,-3.5755,-3.444,-3.4436,-3.3984,-3.329,-3.3215,-3.3168,-3.316,-3.2952,-3.2806,-3.2748,-3.2519,-3.2333,-3.2179,-3.2179,-3.1391,-2.9981,-2.9923,-2.9212,-2.7948,-2.789,-2.789,-2.789,-2.7736,-2.764,-2.7645,-2.7498,-2.7851,-2.869,0.0,0.0,0.0,-2.8616,-2.7671,-2.6878,-2.5819,-2.5014,-2.4492,-2.4315,0.0,-2.3367,-2.3207,-2.2755,-2.2022,-2.2784,0.0,0.0,0.0,0.0,0.0,0.0,0.0,0.0,0.0,0.0,0.0,-2.2617,-2.2484,-2.1757,-2.2739,-2.3885,-2.4949,-2.493,-2.5142,-2.5945,-2.589,-2.5917,-2.6229,-2.6845,-2.7124,-2.6806,-2.6593,-2.6308,-2.5745,-2.4893,-2.4358,-2.4385,-2.4275,-2.421,-2.4275,-2.4284,-2.4275,-2.4229,-2.4219,-2.4209,-2.4199,-2.4254,-2.4218,-2.4199,-2.4236,-2.4235,-2.4122,-2.4044,-2.3896,-2.3721,-2.3553,-2.333,-2.3089,-2.276,-2.2487,-2.2349,-2.2296,-2.2296,-2.2313,-2.2313,-2.2313,-2.2313,-2.2282,-2.2209,-3.9004,0.0,-3.8613,-3.8359,0.0,-3.7949,-3.744,-3.6572,-3.5709,-3.509,-3.4625,-3.4553,-3.451,-3.4459,-3.3954,-3.3726,-3.3666,-3.3178,-3.2961,-3.2954,-3.2917,-3.2468,-3.1615,-3.1635,-3.1179,-3.039,-3.0377,-3.016,-2.9775,-2.9352,-2.8909,-2.8492,-2.809,-2.8342,-2.9186,-2.9564,-2.9819,-3.0003,-2.8936,-2.8135,-2.7605,-2.6312,-2.5439,-2.5128,0.0,0.0,0.0,0.0,0.0,0.0,0.0,0.0,0.0,0.0,0.0,-2.3165,-2.2827,-2.2816,-2.3211,-2.4018,-2.4631,-2.4958,-2.5773,-2.556,-2.3955,-2.4857,-2.5639,-2.6043,-2.606,-2.6215,-2.6612,-2.6638,-2.6822,-2.7206,-2.761,-2.7834,-2.7851,-2.7538,-2.72,-2.679,-2.5697,-2.4912,-2.494,-2.4469,-2.4247,-2.4284,-2.4294,-2.4275,-2.421,-2.4201,-2.431,-2.4695,-2.4787,-2.4787,-2.4787,-2.4805,-2.4593,-2.4289,-2.4094,-2.3996,-2.3845,-2.371,-2.3565,-2.3319,-2.2957,-2.2579,-2.2405,-2.2349,-2.2338,-2.231,-2.2313,-2.2313,-2.2313,-2.2313,-2.2254,-3.9707,-3.9062,-3.9062,-3.8965,-3.8828,-3.8848,-3.875,-3.8495,0.0,0.0,0.0,-3.6395,-3.6245,-3.5983,-3.5231,-3.4773,-3.4578,-3.3826,-3.3458,-3.3471,-3.3397,-3.3307,-3.3147,-3.3121,-3.3057,-3.2917,-3.2897,-3.2545,-3.191,-3.1038,-3.0256,-2.955,-2.8739,-2.8711,-2.9399,-3.0008,-3.0248,-3.0117,-2.9211,-2.8634,-2.8395,-2.6933,-2.6115,-2.6028,-2.4681,-2.3882,-2.3785,-2.3095,-2.2674,-2.2536,-2.3337,-2.4066,-2.4657,-2.4834,-2.5188,-2.569,-2.5319,-2.5338,-2.5975,-2.6218,-2.6599,-2.7228,-2.7919,-2.7696,-2.6143,-2.673,-2.7148,-2.7127,-2.7067,-2.7027,-2.7024,-2.7024,-2.7273,-2.7952,-2.8007,-2.8316,-2.8912,-2.839,-2.7866,-2.7817,-2.6626,-2.5658,-2.5485,-2.4911,-2.4386,-2.4349,-2.4358,-2.4395,-2.4413,-2.4468,-2.4697,-2.5201,-2.5448,-2.5558,-2.5421,-2.5366,-2.5081,-2.4337,-2.4142,-2.4074,-2.3966,-2.3896,-2.3782,-2.3582,-2.3102,-2.2712,-2.2484,-2.2388,-2.2363,-2.231,-2.2313,-2.2313,-2.2313,-2.2313,-2.2282,-4.0937,-4.084,-4.084,-4.041,-3.9707,-3.9726,-3.9297,-3.8594,-3.8337,-3.8234,-3.8226,-3.8174,-3.7717,-3.6991,-3.6805,-3.6291,-3.5519,-3.5392,-3.5284,-3.5223,-3.5209,-3.483,-3.4135,-3.4044,-3.3647,-3.3011,-3.2942,-3.2833,-3.266,-3.191,-3.1448,-3.1237,-3.0467,-3.0102,-3.0212,-3.0284,-3.0298,-3.026,-2.989,-2.9311,-2.8512,-2.8118,-2.7559,-2.687,-2.6535,-2.6024,-2.531,-2.5152,-2.479,-2.4141,-2.4846,-2.5328,-2.5458,-2.6097,-2.6504,-2.6583,-2.7136,-2.7553,-2.7653,-2.8363,-2.8862,-2.9028,-2.92,-2.8855,-2.7881,-2.8489,-2.8904,-2.878,-2.8673,-2.8743,-2.8668,-2.8601,-2.8601,-2.8785,-2.8803,-2.8911,-2.9078,-2.8434,-2.7977,-2.802,-2.7159,-2.6274,-2.5799,-2.5429,-2.5069,-2.4642,-2.4689,-2.4708,-2.518,-2.5268,-2.5256,-2.5466,-2.6007,-2.608,-2.565,-2.5411,-2.5117,-2.4337,-2.419,-2.4151,-2.4072,-2.4074,-2.4006,-2.3785,-2.3248,-2.2812,-2.2525,-2.2432,-2.2394,-2.2341,-2.2313,-2.2313,-2.2313,-2.2313,-2.2282,-4.1191,-4.1191,-4.1191,-4.0957,-4.0605,-4.0605,-4.0391,-4.0019,-4.0,-3.9471,-3.8628,-3.8563,-3.8315,-3.7921,-3.7865,-3.7615,-3.7164,-3.7126,-3.7094,-3.708,-3.7059,-3.6839,-3.6392,-3.5908,-3.5455,-3.5052,-3.4539,-3.4064,-3.3603,-3.3224,-3.2833,-3.2333,-3.15,-3.0885,-3.0423,-3.0342,-3.031,-3.0304,-3.0092,-2.9806,-2.9355,-2.8721,-2.8128,-2.7718,-2.7176,-2.6653,-2.6216,-2.6197,-2.6031,-2.5661,-2.5984,-2.6381,-2.6839,-2.72,-2.7556,-2.7915,-2.832,-2.8544,-2.8588,-2.9103,-2.9463,-2.9589,-2.969,-2.9549,-2.9109,-2.9239,-2.9299,-2.9225,-2.916,-2.9141,-2.9044,-2.9028,-2.8987,-2.8987,-2.8987,-2.8998,-2.9014,-2.8757,-2.8511,-2.8467,-2.7812,-2.719,-2.6876,-2.6083,-2.5631,-2.5606,-2.5671,-2.5799,-2.6118,-2.6481,-2.6696,-2.6733,-2.6998,-2.6869,-2.6209,-2.6054,-2.5529,-2.4428,-2.4218,-2.4198,-2.4169,-2.418,-2.4066,-2.3827,-2.3353,-2.2914,-2.2565,-2.247,-2.2422,-2.2341,-2.2313,-2.2313,-2.2313,-2.2313,-2.2268,-4.1641,-4.1484,-4.1465,-4.1387,-4.1211,-4.1191,-4.1191,-4.1191,-4.1191,-4.0449,-3.9276,-3.9177,-3.9034,-3.8807,-3.8789,-3.8653,-3.8438,-3.8374,-3.8342,-3.835,-3.8324,-3.8287,-3.8175,-3.7514,-3.7168,-3.7044,-3.6421,-3.565,-3.4873,-3.459,-3.393,-3.2949,-3.2275,-3.1545,-3.0712,-3.0636,-3.0528,-3.0329,-3.0214,-3.0116,-3.0076,-2.9173,-2.8651,-2.8511,-2.7779,-2.7315,-2.7232,-2.7203,-2.7222,-2.7203,-2.7222,-2.7506,-2.8092,-2.8136,-2.8493,-2.9182,-2.928,-2.9412,-2.9714,-2.9953,-3.0199,-3.0377,-3.0473,-3.0517,-3.0482,-3.0123,-2.9735,-2.944,-2.928,-2.9229,-2.9123,-2.9074,-2.9017,-2.9005,-2.8987,-2.8987,-2.8987,-2.8987,-2.8987,-2.8913,-2.8436,-2.8029,-2.7705,-2.6825,-2.6274,-2.6552,-2.6706,-2.6741,-2.6969,-2.75,-2.7798,-2.8026,-2.8062,-2.7622,-2.684,-2.6594,-2.5897,-2.4465,-2.4199,-2.419,-2.4208,-2.419,-2.4074,-2.3803,-2.3406,-2.299,-2.2632,-2.2515,-2.2463,-2.2338,-2.2313,-2.2313,-2.2313,-2.2313,-2.2254,-4.3008,-4.2344,-4.2285,-4.1855,-4.1289,-4.123,-4.123,-4.123,-4.1211,-4.1133,-4.0859,-4.0897,-4.0385,-3.9753,-3.9692,-3.9274,-3.8596,-3.8493,-3.8521,-3.8539,-3.8432,-3.8392,-3.8447,-3.82,-3.8073,-3.8057,-3.7861,-3.7288,-3.6466,-3.5771,-3.4564,-3.3083,-3.2833,-3.241,-3.166,-3.1558,-3.1192,-3.0398,-3.0311,-3.0213,-3.0095,-2.9746,-2.9495,-2.9282,-2.9082,-2.8931,-2.8698,-2.8778,-2.8778,-2.8778,-2.876,-2.8815,-2.8906,-2.8906,-2.9255,-3.0026,-3.0099,-3.0524,-3.1503,-3.1848,-3.194,-3.2141,-3.2188,-3.226,-3.2241,-3.1701,-3.0863,-2.9945,-2.9499,-2.933,-2.9211,-2.9141,-2.9074,-2.9005,-2.8987,-2.8987,-2.8987,-2.8987,-2.8987,-2.8987,-2.8858,-2.8661,-2.8073,-2.7716,-2.7388,-2.6856,-2.6935,-2.7153,-2.765,-2.7838,-2.8136,-2.8656,-2.8858,-2.8198,-2.7079,-2.6602,-2.5952,-2.4622,-2.4199,-2.4199,-2.4199,-2.418,-2.4094,-2.3789,-2.3389,-2.3003,-2.2747,-2.2596,-2.2477,-2.2338,-2.2313,-2.2313,-2.2313,-2.2313,-2.2237,-4.3496,-4.3183,-4.3164,-4.2988,-4.2637,-4.2129,-4.1914,-4.1875,-4.1406,-4.1191,-4.1191,-4.1172,-4.0956,-4.0603,-4.0582,-4.0364,-4.0028,-4.0041,-4.0033,-4.004,-3.9994,-3.998,-3.9894,-3.9332,-3.9073,-3.8958,-3.8438,-3.7971,-3.7559,-3.7151,-3.6115,-3.4596,-3.4423,-3.3776,-3.2545,-3.241,-3.2237,-3.1885,-3.1322,-3.0958,-3.0792,-3.0156,-2.9654,-2.9404,-2.9275,-2.9123,-2.9017,-2.8987,-2.8987,-2.9042,-2.9445,-2.9702,-2.9732,-3.0173,-3.0558,-3.0901,-3.098,-3.127,-3.186,-3.2083,-3.2289,-3.2433,-3.2545,-3.2597,-3.2534,-3.2023,-3.1533,-3.1158,-3.0188,-2.945,-2.932,-2.9163,-2.9074,-2.9017,-2.8987,-2.9005,-2.8987,-2.9005,-2.8987,-2.8987,-2.8987,-2.8895,-2.8624,-2.8544,-2.8206,-2.7639,-2.7691,-2.814,-2.8489,-2.8532,-2.865,-2.8895,-2.8987,-2.8546,-2.7512,-2.6869,-2.6153,-2.5199,-2.4502,-2.4208,-2.4236,-2.4199,-2.4094,-2.3803,-2.3406,-2.3057,-2.2751,-2.2609,-2.2477,-2.2352,-2.2313,-2.2313,-2.2313,-2.2313,-2.2237,-4.4277,-4.4023,-4.3808,-4.3711,-4.3652,-4.3027,-4.2754,-4.2656,-4.1875,-4.166,-4.1855,-4.1641,-4.166,-4.1836,-4.1601,-4.1581,-4.1776,-4.1811,-4.1824,-4.1813,-4.1794,-4.178,-4.1633,-4.0809,-4.0373,-4.016,-3.9384,-3.8767,-3.846,-3.8122,-3.7387,-3.6295,-3.5942,-3.5096,-3.3737,-3.343,-3.3122,-3.2865,-3.2204,-3.1807,-3.1634,-3.0926,-3.0274,-2.9807,-2.963,-2.958,-2.9699,-2.9706,-2.9706,-2.9701,-3.0245,-3.0564,-3.054,-3.1072,-3.1488,-3.1727,-3.2053,-3.2322,-3.2515,-3.2705,-3.29,-3.3062,-3.317,-3.3166,-3.3056,-3.2816,-3.2622,-3.2439,-3.1588,-3.0885,-3.0044,-2.9895,-2.9793,-2.9717,-2.9706,-2.9706,-2.9731,-2.9536,-2.9377,-2.9335,-2.917,-2.8987,-2.8987,-2.895,-2.8723,-2.8319,-2.8594,-2.8987,-2.8987,-2.8968,-2.8968,-2.8987,-2.8987,-2.8656,-2.7934,-2.7383,-2.6594,-2.586,-2.5126,-2.4622,-2.4475,-2.442,-2.4103,-2.3813,-2.344,-2.3114,-2.2842,-2.2646,-2.2446,-2.2352,-2.2313,-2.2313,-2.2313,-2.2313,-2.224,-4.5703,-4.4863,-4.4062,-4.3808,-4.3711,-4.3672,-4.3652,-4.3574,-4.2715,-4.2793,-4.3301,-4.2695,-4.2812,-4.3476,-4.2754,-4.2812,-4.3457,-4.3437,-4.3415,-4.342,-4.3404,-4.3465,-4.3417,-4.2536,-4.2057,-4.1917,-4.111,-4.0285,-3.9444,-3.8612,-3.8031,-3.788,-3.7135,-3.6269,-3.5385,-3.4603,-3.3763,-3.3231,-3.2889,-3.269,-3.2538,-3.2332,-3.1685,-3.084,-3.053,-3.0735,-3.1307,-3.1461,-3.1401,-3.1347,-3.1415,-3.1415,-3.1354,-3.1446,-3.185,-3.2517,-3.3316,-3.385,-3.3981,-3.4097,-3.4263,-3.448,-3.446,-3.4613,-3.4393,-3.4415,-3.4074,-3.3327,-3.37,-3.3382,-3.2045,-3.1467,-3.1365,-3.1318,-3.1387,-3.1327,-3.1304,-3.0581,-3.0269,-3.0001,-2.9427,-2.9042,-2.8987,-2.8987,-2.8968,-2.8877,-2.895,-2.8987,-2.8987,-2.8987,-2.8987,-2.8987,-2.895,-2.873,-2.8007,-2.764,-2.7291,-2.6686,-2.5944,-2.5291,-2.5062,-2.4785,-2.4281,-2.3863,-2.3594,-2.3283,-2.2952,-2.2668,-2.2443,-2.2321,-2.231,-2.2313,-2.2313,-2.2313,-2.224,-4.6113,-4.5801,-4.5508,-4.5351,-4.5312,-4.4785,-4.4531,-4.4433,-4.3594,-4.3398,-4.3613,-4.3359,-4.3711,-4.4512,-4.4219,-4.3926,-4.373,-4.3711,-4.3709,-4.3695,-4.3638,-4.3602,-4.3557,-4.3233,-4.3084,-4.2974,-4.2675,-4.2322,-4.1854,-4.0986,-4.0188,-3.9534,-3.8784,-3.795,-3.7103,-3.6238,-3.5622,-3.5243,-3.4237,-3.3543,-3.3444,-3.2794,-3.2409,-3.2523,-3.1823,-3.1562,-3.1797,-3.1752,-3.1718,-3.1695,-3.2184,-3.2439,-3.247,-3.2914,-3.329,-3.3549,-3.3895,-3.4111,-3.4148,-3.4269,-3.4351,-3.445,-3.4561,-3.4586,-3.4553,-3.4618,-3.4517,-3.4285,-3.4358,-3.4207,-3.3719,-3.2673,-3.1879,-3.1797,-3.1771,-3.1751,-3.1554,-3.1254,-3.0863,-3.0252,-2.95,-2.9005,-2.9097,-2.9005,-2.8987,-2.8987,-2.8987,-2.8987,-2.8987,-2.8987,-2.8987,-2.8987,-2.8987,-2.8913,-2.8675,-2.8081,-2.7622,-2.7291,-2.6741,-2.5968,-2.5517,-2.473,-2.4147,-2.3912,-2.3674,-2.3259,-2.285,-2.2565,-2.2363,-2.2321,-2.2313,-2.2313,-2.2313,-2.2313,-2.224,-4.6289,-4.6289,-4.6289,-4.6289,-4.6211,-4.5683,-4.543,-4.5312,-4.4512,-4.4277,-4.4453,-4.4258,-4.4609,-4.5312,-4.541,-4.5117,-4.459,-4.4551,-4.4527,-4.4491,-4.445,-4.4429,-4.4351,-4.4145,-4.4008,-4.3896,-4.3626,-4.3433,-4.3241,-4.2649,-4.1982,-4.1324,-4.0285,-3.94,-3.8719,-3.7719,-3.7115,-3.6813,-3.5614,-3.4864,-3.4722,-3.3865,-3.3574,-3.3912,-3.3393,-3.2931,-3.2767,-3.2702,-3.2665,-3.2676,-3.3129,-3.3415,-3.3471,-3.3959,-3.4245,-3.4209,-3.4221,-3.4209,-3.4191,-3.4209,-3.4233,-3.4233,-3.4328,-3.4363,-3.4335,-3.448,-3.4528,-3.455,-3.4626,-3.4718,-3.4572,-3.3711,-3.2941,-3.2828,-3.2753,-3.2624,-3.2425,-3.2157,-3.1544,-3.0785,-3.021,-2.9849,-2.9739,-2.9537,-2.9445,-2.939,-2.9189,-2.9005,-2.8987,-2.8987,-2.8987,-2.8987,-2.8987,-2.8987,-2.8877,-2.8521,-2.8319,-2.8026,-2.7497,-2.6687,-2.5931,-2.5019,-2.4304,-2.4006,-2.3584,-2.316,-2.279,-2.2501,-2.2366,-2.231,-2.2313,-2.2313,-2.2313,-2.2313,-2.2209,-4.6289,-4.6289,-4.6289,-4.6289,-4.6289,-4.6211,-4.625,-4.6055,-4.5371,-4.5391,-4.582,-4.5351,-4.543,-4.6094,-4.6152,-4.6191,-4.6074,-4.6014,-4.5988,-4.5948,-4.5994,-4.5965,-4.5853,-4.5204,-4.4896,-4.4851,-4.4035,-4.3568,-4.353,-4.3323,-4.3115,-4.2763,-4.1401,-4.065,-4.0516,-3.9008,-3.8084,-3.7865,-3.7098,-3.6581,-3.6504,-3.5626,-3.5157,-3.5193,-3.4985,-3.4709,-3.4494,-3.4408,-3.4256,-3.4172,-3.4204,-3.4286,-3.4246,-3.4367,-3.4409,-3.4397,-3.4351,-3.4316,-3.4293,-3.4197,-3.4136,-3.4111,-3.4161,-3.4185,-3.4173,-3.4347,-3.4491,-3.4506,-3.4649,-3.4831,-3.4898,-3.4775,-3.4633,-3.4691,-3.4333,-3.4173,-3.3922,-3.3345,-3.2508,-3.1599,-3.1219,-3.1347,-3.1182,-3.054,-3.0063,-2.9934,-2.9445,-2.8987,-2.8987,-2.8987,-2.8987,-2.8987,-2.8987,-2.8987,-2.8987,-2.8968,-2.895,-2.881,-2.8189,-2.7503,-2.6854,-2.6038,-2.5109,-2.4623,-2.3385,-2.2911,-2.2642,-2.2374,-2.2352,-2.2313,-2.2313,-2.2313,-2.2313,-2.2282,-2.2163,-4.6289,-4.6289,-4.6289,-4.6289,-4.6289,-4.6289,-4.6289,-4.6269,-4.5976,-4.6055,-4.623,-4.6016,-4.6035,-4.623,-4.6289,-4.6288,-4.6288,-4.63,-4.6269,-4.6218,-4.6206,-4.6183,-4.6111,-4.5854,-4.5744,-4.5754,-4.5468,-4.5229,-4.4988,-4.4434,-4.4056,-4.3766,-4.2852,-4.2316,-4.2143,-4.0642,-3.9727,-3.9546,-3.8258,-3.7525,-3.7414,-3.6646,-3.6193,-3.612,-3.5523,-3.5091,-3.4965,-3.479,-3.4666,-3.458,-3.4528,-3.4539,-3.4645,-3.472,-3.4722,-3.4691,-3.467,-3.4567,-3.4431,-3.4323,-3.4191,-3.4074,-3.4043,-3.4049,-3.4061,-3.424,-3.4427,-3.4561,-3.474,-3.4879,-3.5057,-3.5075,-3.502,-3.4917,-3.4769,-3.455,-3.4206,-3.3352,-3.2667,-3.2241,-3.1733,-3.1439,-3.1292,-3.076,-3.0356,-3.0191,-2.9555,-2.906,-2.9005,-2.8987,-2.8987,-2.8987,-2.8987,-2.8987,-2.8987,-2.8987,-2.8987,-2.8964,-2.8569,-2.814,-2.7549,-2.7018,-2.6109,-2.4766,-2.3532,-2.2775,-2.2487,-2.2346,-2.2324,-2.2313,-2.2313,-2.2313,-2.2313,-2.2254,-2.2163,-4.6289,-4.6288,-4.6289,-4.6289,-4.6289,-4.6289,-4.6289,-4.6289,-4.6289,-4.6289,-4.6289,-4.6289,-4.6289,-4.6289,-4.6288,-4.6287,-4.6306,-4.6293,-4.6282,-4.6216,-4.6198,-4.6203,-4.6204,-4.6164,-4.6167,-4.6223,-4.6174,-4.6091,-4.5958,-4.5331,-4.4947,-4.4746,-4.3995,-4.3528,-4.3431,-4.22,-4.1354,-4.0835,-3.96,-3.8727,-3.8297,-3.7563,-3.6972,-3.6612,-3.6032,-3.5542,-3.5183,-3.4946,-3.478,-3.4668,-3.4645,-3.4819,-3.5195,-3.5362,-3.5552,-3.5828,-3.5837,-3.5664,-3.5184,-3.4952,-3.456,-3.4191,-3.4011,-3.3985,-3.4011,-3.4148,-3.4363,-3.455,-3.472,-3.4879,-3.5029,-3.5057,-3.5001,-3.4927,-3.481,-3.4602,-3.4206,-3.3548,-3.3117,-3.2963,-3.2632,-3.2339,-3.2137,-3.1604,-3.098,-3.065,-2.9953,-2.9244,-2.9133,-2.8987,-2.9005,-2.9005,-2.8987,-2.8987,-2.8987,-2.8987,-2.8987,-2.8952,-2.8832,-2.8476,-2.8046,-2.7722,-2.7027,-2.4914,-2.3398,-2.2773,-2.2446,-2.2349,-2.2313,-2.2313,-2.2313,-2.2313,-2.2313,-2.2313,-2.2223,-4.6305,-4.6302,-4.6305,-4.6306,-4.6287,-4.6289,-4.6289,-4.6289,-4.6289,-4.6289,-4.6289,-4.6289,-4.6289,-4.6289,-4.6288,-4.6306,-4.6305,-4.6291,-4.6298,-4.6269,-4.6237,-4.6203,-4.6206,-4.6198,-4.6214,-4.6255,-4.6209,-4.6111,-4.6012,-4.5777,-4.5769,-4.5514,-4.4801,-4.4374,-4.4201,-4.3547,-4.272,-4.2008,-4.1027,-4.0142,-3.9469,-3.8527,-3.775,-3.7012,-3.6773,-3.6304,-3.5681,-3.54,-3.5018,-3.4663,-3.476,-3.5218,-3.5859,-3.6226,-3.6756,-3.7393,-3.7594,-3.7005,-3.6336,-3.5926,-3.5425,-3.4631,-3.4461,-3.412,-3.4334,-3.4568,-3.4722,-3.4839,-3.501,-3.5102,-3.5191,-3.522,-3.5143,-3.4885,-3.4764,-3.4525,-3.413,-3.3871,-3.3673,-3.3715,-3.377,-3.3752,-3.3532,-3.2871,-3.2173,-3.1549,-3.076,-3.0063,-2.9445,-2.9262,-2.9097,-2.9115,-2.9244,-2.8987,-2.8987,-2.8987,-2.8987,-2.8964,-2.8893,-2.8658,-2.8337,-2.8035,-2.7458,-2.5362,-2.3615,-2.2955,-2.2531,-2.2502,-2.2395,-2.2313,-2.2313,-2.2313,-2.2313,-2.2313,-2.2268,-4.6301,-4.6296,-4.6297,-4.6301,-4.6304,-4.6307,-4.6289,-4.6289,-4.6289,-4.6289,-4.6289,-4.6289,-4.6289,-4.6289,-4.6306,-4.6303,-4.6301,-4.6303,-4.6288,-4.6306,-4.6248,-4.6209,-4.62,-4.6209,-4.6203,-4.6226,-4.616,-4.6106,-4.6066,-4.5893,-4.5771,-4.5777,-4.5415,-4.5229,-4.5133,-4.4374,-4.3912,-4.347,-4.2162,-4.1393,-4.095,-3.9681,-3.8892,-3.8615,-3.7932,-3.7403,-3.7026,-3.6795,-3.5958,-3.4765,-3.531,-3.5782,-3.6243,-3.6929,-3.7531,-3.7815,-3.7825,-3.7631,-3.7213,-3.6864,-3.6473,-3.6086,-3.5713,-3.5836,-3.5736,-3.5872,-3.6005,-3.6168,-3.6346,-3.6396,-3.6503,-3.6421,-3.6085,-3.532,-3.4848,-3.4381,-3.4023,-3.3868,-3.3807,-3.3807,-3.3807,-3.3807,-3.366,-3.3183,-3.2546,-3.2173,-3.1568,-3.0889,-3.0283,-2.9604,-2.9445,-2.9677,-2.9714,-2.9244,-2.8987,-2.8987,-2.8975,-2.8964,-2.887,-2.8694,-2.8342,-2.7982,-2.7186,-2.5861,-2.4303,-2.3393,-2.3037,-2.2841,-2.2643,-2.2465,-2.2313,-2.2313,-2.2313,-2.2313,-2.2237,-4.6267,-4.6253,-4.6261,-4.6269,-4.6277,-4.6305,-4.6288,-4.6289,-4.6289,-4.6288,-4.6306,-4.6288,-4.6287,-4.6306,-4.6303,-4.6301,-4.63,-4.6287,-4.6302,-4.6303,-4.6275,-4.6262,-4.6248,-4.622,-4.6201,-4.6198,-4.6146,-4.6099,-4.6042,-4.588,-4.5791,-4.5743,-4.5654,-4.5594,-4.5537,-4.5152,-4.4633,-4.4201,-4.3278,-4.272,-4.2258,-4.1066,-4.0208,-3.9742,-3.8911,-3.8238,-3.7726,-3.7461,-3.6804,-3.6015,-3.6239,-3.6771,-3.729,-3.7907,-3.8461,-3.8846,-3.8878,-3.8658,-3.8099,-3.7756,-3.7321,-3.6812,-3.6564,-3.644,-3.6348,-3.6454,-3.6572,-3.6617,-3.6758,-3.6857,-3.6924,-3.6876,-3.6521,-3.5927,-3.5393,-3.4781,-3.4023,-3.3842,-3.382,-3.3807,-3.3807,-3.3807,-3.3807,-3.3366,-3.2999,-3.2632,-3.221,-3.1733,-3.1292,-3.0522,-3.0008,-3.0265,-2.9898,-2.9262,-2.9042,-2.9042,-2.9038,-2.9027,-2.9064,-2.8858,-2.851,-2.8063,-2.7192,-2.6206,-2.4908,-2.3983,-2.371,-2.3386,-2.3035,-2.2852,-2.2564,-2.2344,-2.2313,-2.2313,-2.2237,-4.6199,-4.6206,-4.6209,-4.6208,-4.6222,-4.6281,-4.6305,-4.6306,-4.6286,-4.6281,-4.6294,-4.6297,-4.6278,-4.6293,-4.6299,-4.6301,-4.6301,-4.6296,-4.6434,-4.6492,-4.6546,-4.6555,-4.6538,-4.6279,-4.6189,-4.6177,-4.6122,-4.6066,-4.5989,-4.588,-4.5781,-4.5727,-4.5646,-4.5594,-4.5594,-4.5537,-4.5171,-4.4624,-4.422,-4.3739,-4.3162,-4.2277,-4.145,-4.0615,-3.9736,-3.891,-3.8288,-3.7947,-3.7743,-3.7461,-3.7446,-3.7867,-3.8652,-3.9,-3.9546,-4.0087,-4.0055,-3.9708,-3.9069,-3.8584,-3.8053,-3.7307,-3.693,-3.6609,-3.6769,-3.6904,-3.6971,-3.7059,-3.6808,-3.7074,-3.7074,-3.6891,-3.6717,-3.6496,-3.6417,-3.5625,-3.4599,-3.4086,-3.4009,-3.3844,-3.3844,-3.3935,-3.3825,-3.3752,-3.3532,-3.3146,-3.2797,-3.2651,-3.2375,-3.199,-3.1384,-3.1017,-3.0265,-2.9152,-2.9097,-2.9115,-2.91,-2.9089,-2.9261,-2.9152,-2.8806,-2.8273,-2.7387,-2.6442,-2.5659,-2.5047,-2.4592,-2.4203,-2.3663,-2.319,-2.2902,-2.2581,-2.2344,-2.2313,-2.2268,-4.6206,-4.6203,-4.6137,-4.6144,-4.6219,-4.6261,-4.6293,-4.6296,-4.6252,-4.6204,-4.6216,-4.6216,-4.6239,-4.6223,-4.6272,-4.6297,-4.632,-4.6379,-4.6633,-4.7296,-4.7331,-4.7286,-4.7069,-4.6557,-4.6162,-4.6111,-4.6002,-4.5953,-4.5943,-4.5866,-4.58,-4.5777,-4.5654,-4.5594,-4.5594,-4.5594,-4.5537,-4.5229,-4.471,-4.4297,-4.3989,-4.3239,-4.2374,-4.1462,-4.0581,-4.0008,-3.9746,-3.9624,-3.9586,-3.9395,-3.8918,-3.8709,-3.9098,-3.9684,-4.0138,-4.0292,-4.0334,-4.0072,-3.969,-3.9312,-3.9026,-3.8447,-3.8157,-3.8247,-3.819,-3.814,-3.8203,-3.8302,-3.836,-3.8223,-3.8124,-3.7704,-3.7425,-3.7206,-3.6791,-3.6313,-3.5891,-3.5748,-3.5128,-3.4376,-3.4412,-3.4527,-3.3935,-3.3899,-3.3733,-3.355,-3.3495,-3.3476,-3.333,-3.3146,-3.2559,-3.1843,-3.1146,-3.0198,-2.98,-2.9765,-2.9624,-2.9522,-2.9584,-2.9423,-2.9066,-2.8559,-2.7753,-2.7178,-2.6719,-2.6112,-2.5422,-2.4795,-2.4222,-2.3731,-2.3308,-2.3071,-2.2852,-2.2632,-2.2434,-4.6183,-4.615,-4.6119,-4.6126,-4.6147,-4.6211,-4.6264,-4.6251,-4.6177,-4.6134,-4.6115,-4.6118,-4.615,-4.6156,-4.6214,-4.6252,-4.6416,-4.6772,-4.7379,-4.804,-4.8167,-4.7893,-4.7415,-4.6914,-4.6494,-4.6163,-4.5935,-4.588,-4.5874,-4.581,-4.5766,-4.5746,-4.5657,-4.5594,-4.5594,-4.5594,-4.5594,-4.5537,-4.519,-4.4921,-4.4786,-4.4085,-4.2953,-4.1984,-4.1223,-4.0827,-4.0307,-4.026,-4.0288,-4.0201,-3.9877,-3.9619,-3.9712,-4.0138,-4.0377,-4.0388,-4.0252,-4.0099,-3.984,-3.9551,-3.9227,-3.9021,-3.8851,-3.8765,-3.8704,-3.8735,-3.875,-3.8765,-3.8743,-3.8777,-3.8747,-3.8474,-3.8128,-3.8006,-3.7679,-3.7422,-3.7312,-3.678,-3.6046,-3.5238,-3.5404,-3.511,-3.4724,-3.4321,-3.3954,-3.3793,-3.3678,-3.366,-3.366,-3.3458,-3.3109,-3.2528,-3.2027,-3.1408,-3.0827,-3.0539,-3.0319,-3.018,-3.0066,-2.9742,-2.9321,-2.8771,-2.8133,-2.7582,-2.7011,-2.669,-2.6065,-2.5422,-2.4932,-2.4695,-2.4323,-2.3833,-2.346,-2.3291,-2.3045,-4.615,-4.6098,-4.6089,-4.6087,-4.6107,-4.6141,-4.6157,-4.6144,-4.6095,-4.6024,-4.6003,-4.6054,-4.6087,-4.6107,-4.6172,-4.6284,-4.6727,-4.7415,-4.8239,-4.8978,-4.9011,-4.8496,-4.7846,-4.7305,-4.6724,-4.6129,-4.588,-4.58,-4.5783,-4.5746,-4.5698,-4.5682,-4.562,-4.5594,-4.5594,-4.5594,-4.5594,-4.5575,-4.5518,-4.5479,-4.5421,-4.4797,-4.3742,-4.2629,-4.2016,-4.1673,-4.1189,-4.1027,-4.0891,-4.0702,-4.0683,-4.0633,-4.0502,-4.0449,-4.0407,-4.0388,-4.0206,-4.0007,-3.977,-3.9427,-3.9142,-3.8993,-3.8825,-3.8723,-3.8707,-3.8689,-3.8723,-3.8707,-3.8723,-3.8723,-3.8707,-3.8615,-3.8634,-3.8634,-3.867,-3.8707,-3.8469,-3.7441,-3.6835,-3.6468,-3.6303,-3.5991,-3.533,-3.4766,-3.438,-3.4032,-3.3899,-3.3807,-3.3807,-3.3752,-3.3403,-3.3261,-3.2816,-3.1935,-3.1298,-3.1391,-3.116,-3.0962,-3.0766,-3.0455,-2.9953,-2.9363,-2.8767,-2.7757,-2.7182,-2.6826,-2.6556,-2.6099,-2.5744,-2.5625,-2.5203,-2.4577,-2.4205,-2.3951,-2.3669,-4.6115,-4.6099,-4.6037,-4.6051,-4.6075,-4.6065,-4.6026,-4.6022,-4.5959,-4.5931,-4.5922,-4.5994,-4.6032,-4.6054,-4.6134,-4.6598,-4.7395,-4.8236,-4.9071,-4.9768,-4.9813,-4.9328,-4.8499,-4.7683,-4.6866,-4.6106,-4.5791,-4.5731,-4.5735,-4.5714,-4.5693,-4.5693,-4.564,-4.5594,-4.5594,-4.5594,-4.5594,-4.5594,-4.5594,-4.5594,-4.5518,-4.5325,-4.4759,-4.3645,-4.3107,-4.2714,-4.2599,-4.2541,-4.2338,-4.1684,-4.1588,-4.1173,-4.0715,-4.0548,-4.0413,-4.0307,-4.0158,-3.9954,-3.9665,-3.9363,-3.9115,-3.8935,-3.878,-3.8723,-3.8707,-3.8707,-3.8707,-3.8707,-3.8707,-3.8707,-3.8707,-3.8707,-3.8707,-3.8707,-3.8707,-3.8707,-3.8618,-3.8322,-3.7826,-3.7404,-3.718,-3.6868,-3.6083,-3.5334,-3.4821,-3.4339,-3.3954,-3.3844,-3.3807,-3.3807,-3.3715,-3.366,-3.3642,-3.2614,-3.1604,-3.1976,-3.206,-3.1851,-3.1698,-3.1681,-3.1097,-3.0281,-2.9431,-2.7896,-2.7114,-2.6792,-2.659,-2.6488,-2.6268,-2.593,-2.5575,-2.5236,-2.4966,-2.4663,-2.4162,-4.613,-4.6087,-4.6016,-4.6003,-4.5969,-4.5941,-4.5922,-4.5941,-4.5886,-4.5834,-4.5834,-4.5912,-4.5955,-4.5978,-4.6131,-4.6924,-4.8152,-4.9083,-4.9913,-5.056,-5.0612,-5.0127,-4.9226,-4.8262,-4.7365,-4.6564,-4.5981,-4.5698,-4.5687,-4.5665,-4.5667,-4.564,-4.5603,-4.5594,-4.5594,-4.5594,-4.5594,-4.5594,-4.5594,-4.5594,-4.5594,-4.5594,-4.5133,-4.4412,-4.3951,-4.3547,-4.3124,-4.3085,-4.2912,-4.247,-4.2038,-4.1623,-4.1192,-4.0748,-4.0452,-4.03,-4.0137,-3.9878,-3.9575,-3.9298,-3.9073,-3.8906,-3.8799,-3.8707,-3.8707,-3.8707,-3.8781,-3.8726,-3.8707,-3.8707,-3.8707,-3.8707,-3.8707,-3.8707,-3.8707,-3.8707,-3.8707,-3.8707,-3.8432,-3.8102,-3.801,-3.7569,-3.6762,-3.6046,-3.5334,-3.4724,-3.4119,-3.3917,-3.3844,-3.3807,-3.3807,-3.3807,-3.3788,-3.3348,-3.2441,-3.257,-3.2668,-3.2487,-3.2289,-3.2263,-3.1794,-3.0778,-2.909,-2.7301,-2.686,-2.6979,-2.6674,-2.659,-2.6404,-2.6268,-2.6116,-2.593,-2.5677,-2.5341,-2.4856,-4.617,-4.6078,-4.6019,-4.5943,-4.588,-4.5794,-4.5819,-4.5826,-4.5795,-4.575,-4.5746,-4.5998,-4.6177,-4.628,-4.6742,-4.7615,-4.9086,-4.9823,-5.0444,-5.1064,-5.1124,-5.0685,-4.9804,-4.9026,-4.8089,-4.6905,-4.6364,-4.5794,-4.5676,-4.5631,-4.5594,-4.5594,-4.5594,-4.5594,-4.5594,-4.5594,-4.5594,-4.5594,-4.5594,-4.5594,-4.5594,-4.5556,-4.5325,-4.4652,-4.4575,-4.4278,-4.3855,-4.3816,-4.3643,-4.3278,-4.2777,-4.2192,-4.1769,-4.1122,-4.0665,-4.0454,-4.0285,-4.0019,-3.9802,-3.9576,-3.9435,-3.9294,-3.9056,-3.898,-3.9093,-3.9258,-3.9242,-3.9001,-3.8982,-3.8872,-3.8762,-3.8707,-3.8707,-3.8707,-3.8707,-3.8707,-3.8707,-3.8707,-3.8707,-3.8579,-3.8707,-3.8175,-3.7276,-3.6798,-3.6101,-3.5078,-3.4454,-3.4045,-3.3954,-3.3825,-3.3807,-3.3807,-3.3807,-3.3793,-3.3414,-3.32,-3.3132,-3.2832,-3.2524,-3.23,-3.1741,-3.1001,-2.9261,-2.7826,-2.7571,-2.7621,-2.7182,-2.6725,-2.6573,-2.6522,-2.664,-2.6539,-2.6185,-2.5933,-2.5598,-4.6167,-4.6076,-4.5947,-4.5874,-4.5807,-4.5734,-4.5723,-4.5781,-4.58,-4.5717,-4.596,-4.6519,-4.6931,-4.7226,-4.8051,-4.9001,-4.9708,-5.0101,-5.0555,-5.1176,-5.1205,-5.0777,-5.0031,-4.9776,-4.8667,-4.755,-4.6959,-4.6292,-4.5958,-4.5768,-4.5594,-4.5594,-4.5594,-4.5594,-4.5594,-4.5594,-4.5594,-4.5594,-4.5594,-4.5594,-4.5594,-4.5594,-4.5518,-4.5421,-4.5344,-4.5248,-4.4998,-4.494,-4.4797,-4.4182,-4.4047,-4.3239,-4.2115,-4.1679,-4.148,-4.1342,-4.1161,-4.0916,-4.0654,-4.0392,-4.0144,-3.9963,-3.9829,-3.9785,-3.9863,-4.023,-4.0322,-3.979,-3.9753,-3.9441,-3.9001,-3.8781,-3.8726,-3.8707,-3.8707,-3.8707,-3.8707,-3.8707,-3.8707,-3.8707,-3.8707,-3.8285,-3.7621,-3.729,-3.6835,-3.5756,-3.4839,-3.4399,-3.4045,-3.388,-3.3798,-3.3785,-3.3766,-3.3753,-3.3643,-3.3534,-3.3298,-3.3021,-3.2654,-3.2266,-3.1757,-3.1155,-3.0421,-2.9252,-2.8894,-2.8197,-2.7554,-2.7148,-2.6843,-2.6708,-2.6708,-2.6674,-2.659,-2.6386,-2.6248,-4.6146,-4.6022,-4.5917,-4.5838,-4.5743,-4.5679,-4.5943,-4.6311,-4.638,-4.6641,-4.7062,-4.7499,-4.7822,-4.8202,-4.904,-4.9636,-5.0045,-5.0443,-5.0816,-5.1089,-5.1136,-5.0914,-5.055,-5.0054,-4.9134,-4.8578,-4.7921,-4.7524,-4.6854,-4.6056,-4.5594,-4.5633,-4.5594,-4.5594,-4.5594,-4.5594,-4.5594,-4.5594,-4.5594,-4.5594,-4.5594,-4.5594,-4.5594,-4.5594,-4.5594,-4.5594,-4.5594,-4.5575,-4.546,-4.496,-4.4662,-4.4047,-4.3269,-4.2774,-4.2389,-4.2288,-4.2482,-4.2193,-4.1548,-4.1241,-4.0978,-4.0782,-4.0641,-4.0579,-4.0636,-4.0875,-4.1077,-4.0634,-4.0579,-4.0194,-3.9588,-3.9386,-3.9074,-3.8909,-3.8836,-3.8726,-3.8726,-3.8707,-3.8707,-3.8707,-3.867,-3.834,-3.8043,-3.7713,-3.7202,-3.6285,-3.5298,-3.4601,-3.4192,-3.3862,-3.3785,-3.373,-3.373,-3.3698,-3.3559,-3.3415,-3.3129,-3.2864,-3.252,-3.2162,-3.1841,-3.1272,-3.0622,-3.0355,-3.0027,-2.9194,-2.8163,-2.7621,-2.7402,-2.7046,-2.6708,-2.6927,-2.711,-2.6943,-2.6741,-4.6091,-4.5964,-4.5906,-4.5803,-4.5701,-4.5631,-4.595,-4.6565,-4.6777,-4.7228,-4.785,-4.8353,-4.8832,-4.9276,-4.9912,-5.0281,-5.0247,-5.0872,-5.1072,-5.1093,-5.1093,-5.1068,-5.0855,-5.0371,-4.9954,-4.9586,-4.8825,-4.8293,-4.7624,-4.6817,-4.6009,-4.5893,-4.571,-4.5633,-4.5594,-4.5594,-4.5594,-4.5594,-4.5594,-4.5594,-4.5594,-4.5594,-4.5594,-4.5594,-4.5594,-4.5594,-4.5594,-4.5594,-4.5575,-4.5421,-4.5037,-4.4566,-4.4088,-4.3611,-4.3234,-4.3128,-4.3236,-4.3158,-4.2575,-4.218,-4.1822,-4.158,-4.1491,-4.1515,-4.1791,-4.1699,-4.1515,-4.146,-4.1405,-4.0983,-4.0432,-4.0194,-3.9808,-3.9423,-3.9093,-3.8927,-3.8799,-3.8872,-3.8817,-3.8707,-3.8707,-3.8707,-3.8377,-3.8098,-3.7529,-3.6725,-3.5862,-3.4931,-3.4417,-3.4014,-3.384,-3.3789,-3.3646,-3.3585,-3.3375,-3.3193,-3.2928,-3.2653,-3.2318,-3.2038,-3.1711,-3.1454,-3.103,-3.0881,-3.0821,-3.0192,-2.9178,-2.8552,-2.7959,-2.7858,-2.7756,-2.7686,-2.7693,-2.7512,-2.7209,-4.6032,-4.5906,-4.5847,-4.5781,-4.5673,-4.5631,-4.5678,-4.6069,-4.6656,-4.7124,-4.7772,-4.8798,-5.0019,-5.0604,-5.0718,-5.0872,-5.0881,-5.1049,-5.1056,-5.1037,-5.1063,-5.1088,-5.0992,-5.081,-5.0498,-4.9822,-4.9459,-4.8966,-4.8201,-4.7605,-4.699,-4.6712,-4.6047,-4.5729,-4.5594,-4.5594,-4.5594,-4.5594,-4.5594,-4.5594,-4.5594,-4.5594,-4.5594,-4.5594,-4.5594,-4.5594,-4.5594,-4.5594,-4.5594,-4.5594,-4.5421,-4.5068,-4.458,-4.4314,-4.4068,-4.3874,-4.3729,-4.3704,-4.3455,-4.2998,-4.2591,-4.2376,-4.2316,-4.2451,-4.2837,-4.3167,-4.2965,-4.2323,-4.2231,-4.1827,-4.1332,-4.0948,-4.0616,-4.012,-3.9772,-3.9606,-3.9441,-3.9187,-3.9095,-3.8817,-3.8781,-3.8891,-3.8689,-3.8377,-3.7915,-3.7144,-3.6376,-3.5481,-3.4793,-3.4344,-3.4031,-3.3872,-3.3629,-3.3439,-3.314,-3.29,-3.2654,-3.2369,-3.2073,-3.182,-3.1559,-3.1338,-3.1174,-3.1133,-3.0987,-3.0598,-3.026,-2.9634,-2.9144,-2.8958,-2.8769,-2.8424,-2.8213,-2.8086,-2.7676,-4.5969,-4.5847,-4.5805,-4.5743,-4.562,-4.5603,-4.592,-4.6512,-4.7339,-4.8403,-4.9346,-5.0167,-5.0683,-5.0963,-5.1069,-5.1063,-5.099,-5.0981,-5.0966,-5.0974,-5.1002,-5.1042,-5.1035,-5.0984,-5.0775,-5.0418,-5.0295,-5.0207,-4.9739,-4.8663,-4.849,-4.7971,-4.6605,-4.5806,-4.5594,-4.5633,-4.5594,-4.5594,-4.5594,-4.5594,-4.5594,-4.5594,-4.5594,-4.5594,-4.5594,-4.5594,-4.5594,-4.5594,-4.5594,-4.5594,-4.5594,-4.5309,-4.5053,-4.4949,-4.4764,-4.4501,-4.429,-4.4137,-4.4017,-4.3658,-4.3372,-4.3139,-4.3091,-4.3167,-4.3479,-4.3479,-4.3387,-4.3094,-4.2965,-4.258,-4.2029,-4.1809,-4.1552,-4.0946,-4.0561,-4.0396,-4.0139,-3.9884,-3.9701,-3.9551,-3.9368,-3.9294,-3.9001,-3.867,-3.8138,-3.7566,-3.6798,-3.6068,-3.5365,-3.4877,-3.4652,-3.4362,-3.4117,-3.3696,-3.3419,-3.2923,-3.2404,-3.2091,-3.182,-3.1617,-3.1426,-3.131,-3.1179,-3.119,-3.119,-3.092,-3.07,-3.0531,-3.0161,-2.9602,-2.9205,-2.8873,-2.8715,-2.8587,-2.8151,-4.5861,-4.5771,-4.5765,-4.5703,-4.564,-4.5631,-4.5962,-4.6648,-4.7452,-4.8863,-5.0531,-5.0819,-5.1015,-5.1034,-5.1062,-5.1062,-5.1002,-5.0981,-5.0952,-5.0959,-5.1007,-5.1027,-5.1041,-5.1002,-5.0963,-5.0906,-5.0861,-5.0715,-5.048,-4.9769,-4.9346,-4.8625,-4.749,-4.6567,-4.597,-4.571,-4.5614,-4.5594,-4.5594,-4.5594,-4.5594,-4.5594,-4.5594,-4.5594,-4.5594,-4.5594,-4.5594,-4.5594,-4.5594,-4.5594,-4.5586,-4.554,-4.5476,-4.54,-4.5286,-4.5045,-4.4757,-4.4449,-4.4155,-4.3876,-4.3718,-4.3439,-4.3423,-4.3424,-4.3479,-4.3479,-4.3424,-4.3442,-4.3441,-4.3258,-4.2635,-4.2616,-4.2286,-4.1699,-4.1497,-4.1313,-4.093,-4.0655,-4.049,-4.0325,-4.0047,-3.9625,-3.9331,-3.8946,-3.8248,-3.7786,-3.729,-3.6586,-3.5908,-3.5568,-3.5505,-3.516,-3.481,-3.431,-3.3791,-3.3161,-3.249,-3.184,-3.1598,-3.1466,-3.1293,-3.1213,-3.119,-3.119,-3.119,-3.119,-3.1072,-3.0852,-3.0429,-2.9958,-2.9667,-2.9468,-2.914,-2.8958,-2.8551,-4.5771,-4.5688,-4.5687,-4.5682,-4.5682,-4.5682,-4.5766,-4.6056,-4.6872,-4.8172,-4.9756,-5.0558,-5.0946,-5.0953,-5.0985,-5.1095,-5.1056,-5.1056,-5.1037,-5.1009,-5.1056,-5.1089,-5.1043,-5.1004,-5.0758,-5.0863,-5.0579,-5.0366,-5.0556,-4.9596,-4.9307,-4.9144,-4.8202,-4.7355,-4.6836,-4.6028,-4.5652,-4.5594,-4.5594,-4.5594,-4.5594,-4.5594,-4.5594,-4.5594,-4.5594,-4.5594,-4.5594,-4.5594,-4.5594,-4.5594,-4.5594,-4.5531,-4.5429,-4.54,-4.5235,-4.4931,-4.4725,-4.4435,-4.4106,-4.3749,-4.3583,-4.3515,-4.3479,-4.3479,-4.3479,-4.3479,-4.3479,-4.3479,-4.3479,-4.3479,-4.3387,-4.3332,-4.2837,-4.2561,-4.2359,-4.2194,-4.1846,-4.1645,-4.1552,-4.1203,-4.0506,-3.99,-3.9606,-3.9184,-3.8414,-3.79,-3.7621,-3.7121,-3.6555,-3.6434,-3.6461,-3.6023,-3.561,-3.496,-3.434,-3.3378,-3.2591,-3.1884,-3.1406,-3.131,-3.1252,-3.121,-3.119,-3.1207,-3.119,-3.119,-3.119,-3.1157,-3.0709,-3.0362,-3.0319,-3.0108,-2.974,-2.9239,-2.8709,-4.5715,-4.5679,-4.5682,-4.5679,-4.5676,-4.569,-4.5735,-4.5949,-4.6836,-4.7905,-4.8982,-4.9909,-5.0289,-5.0401,-5.0828,-5.1042,-5.105,-5.1081,-5.1063,-5.1024,-5.0971,-5.1082,-5.0946,-5.0487,-5.0235,-4.9974,-4.9687,-4.9619,-4.986,-4.9085,-4.9067,-4.899,-4.8606,-4.7721,-4.7058,-4.649,-4.6259,-4.571,-4.5594,-4.5594,-4.5594,-4.5594,-4.5594,-4.5594,-4.5594,-4.5594,-4.5594,-4.5594,-4.5594,-4.5594,-4.5594,-4.5531,-4.541,-4.538,-4.5203,-4.4907,-4.4685,-4.434,-4.3989,-4.3684,-4.3548,-4.3513,-4.3479,-4.3479,-4.3479,-4.3479,-4.3479,-4.3479,-4.3479,-4.3479,-4.3461,-4.3461,-4.3185,-4.3221,-4.3111,-4.3092,-4.2873,-4.2837,-4.269,-4.2158,-4.1515,-4.0616,-4.0102,-3.9772,-3.9074,-3.8652,-3.8432,-3.8135,-3.7622,-3.759,-3.7573,-3.7001,-3.6453,-3.572,-3.4926,-3.3917,-3.3112,-3.2459,-3.1757,-3.1249,-3.121,-3.1326,-3.1309,-3.1376,-3.1275,-3.119,-3.1309,-3.1337,-3.1026,-3.0781,-3.0531,-3.022,-2.9733,-2.9157,-2.8559,-4.5662,-4.5657,-4.5676,-4.5682,-4.5684,-4.5687,-4.5754,-4.6035,-4.6899,-4.7694,-4.8322,-4.9084,-4.9506,-4.9705,-5.006,-5.0358,-5.0334,-5.0296,-5.0242,-5.028,-5.0252,-5.0125,-4.9959,-4.9773,-4.9437,-4.9149,-4.882,-4.867,-4.9022,-4.845,-4.8644,-4.9067,-4.8836,-4.8452,-4.7817,-4.7317,-4.6644,-4.6105,-4.5932,-4.5594,-4.5594,-4.5594,-4.5594,-4.5594,-4.5594,-4.5594,-4.5594,-4.5594,-4.5594,-4.5594,-4.5577,-4.5522,-4.5429,-4.531,-4.517,-4.4907,-4.4573,-4.4255,-4.3899,-4.3753,-4.3634,-4.3515,-4.3496,-4.3479,-4.3479,-4.3479,-4.3479,-4.3479,-4.3479,-4.3479,-4.3479,-4.3479,-4.3479,-4.3496,-4.3478,-4.3441,-4.3404,-4.3313,-4.324,-4.2763,-4.2194,-4.135,-4.0634,-4.0249,-3.9808,-3.9551,-3.9313,-3.8965,-3.8561,-3.8323,-3.8105,-3.7506,-3.6875,-3.6113,-3.5292,-3.4433,-3.3679,-3.3066,-3.2414,-3.1765,-3.1664,-3.1884,-3.1715,-3.1681,-3.1985,-3.2087,-3.1695,-3.15,-3.1291,-3.0842,-3.0347,-3.0027,-2.9639,-2.9051,-2.8422,-4.5594,-4.5594,-4.5594,-4.564,-4.5682,-4.5711,-4.5814,-4.6069,-4.6922,-4.7337,-4.7509,-4.8285,-4.869,-4.8769,-4.887,-4.8973,-4.8998,-4.9009,-4.9029,-4.8962,-4.9169,-4.9021,-4.895,-4.8762,-4.8579,-4.8451,-4.8169,-4.7801,-4.8099,-4.7921,-4.8355,-4.8971,-4.8913,-4.8856,-4.8509,-4.8029,-4.7201,-4.6663,-4.6201,-4.5845,-4.5671,-4.5594,-4.5594,-4.5594,-4.5594,-4.5594,-4.5594,-4.5594,-4.5594,-4.5594,-4.5594,-4.5513,-4.5429,-4.532,-4.5129,-4.4858,-4.4496,-4.4147,-4.3869,-4.3788,-4.3669,-4.3532,-4.3479,-4.3479,-4.3479,-4.3479,-4.3479,-4.3479,-4.3479,-4.3479,-4.3479,-4.3479,-4.3479,-4.3479,-4.3479,-4.3461,-4.3479,-4.3442,-4.3442,-4.3094,-4.2561,-4.1901,-4.1332,-4.091,-4.0543,-4.0343,-4.0052,-3.9678,-3.9199,-3.8309,-3.8038,-3.7541,-3.6938,-3.6334,-3.5558,-3.4823,-3.4301,-3.3703,-3.3311,-3.278,-3.2645,-3.2442,-3.2341,-3.2476,-3.3,-3.3051,-3.2692,-3.2171,-3.162,-3.1112,-3.045,-2.9788,-2.9393,-2.885,-2.8284,-4.5594,-4.5594,-4.5594,-4.564,-4.569,-4.5743,-4.5845,-4.5983,-4.6299,-4.6431,-4.6547,-4.7435,-4.7824,-4.7933,-4.8509,-4.8656,-4.8707,-4.8743,-4.8798,-4.8688,-4.8467,-4.8678,-4.8513,-4.8101,-4.782,-4.74,-4.7087,-4.6959,-4.7212,-4.7258,-4.7336,-4.7586,-4.8471,-4.8875,-4.9125,-4.8913,-4.8029,-4.724,-4.674,-4.624,-4.5845,-4.5729,-4.5671,-4.5633,-4.5594,-4.5594,-4.5594,-4.5594,-4.5594,-4.5594,-4.5594,-4.5522,-4.5429,-4.5329,-4.5136,-4.464,-4.4321,-4.407,-4.3853,-4.3719,-4.3617,-4.3532,-4.3479,-4.3479,-4.3479,-4.3479,-4.3479,-4.3479,-4.3479,-4.3479,-4.3479,-4.3479,-4.3479,-4.3479,-4.3479,-4.3479,-4.3479,-4.3479,-4.3479,-4.3332,-4.28,-4.2506,-4.1956,-4.1552,-4.1222,-4.1077,-4.0842,-4.0467,-3.9821,-3.8944,-3.8167,-3.7681,-3.6999,-3.6426,-3.5928,-3.524,-3.4823,-3.4372,-3.4011,-3.3694,-3.344,-3.3237,-3.3068,-3.3237,-3.3711,-3.3829,-3.3728,-3.3094,-3.2282,-3.13,-3.0598,-2.982,-2.9129,-2.8636,-2.8201,-4.5594,-4.5594,-4.5594,-4.5612,-4.5665,-4.5695,-4.577,-4.5824,-4.5912,-4.6002,-4.6137,-4.666,-4.6941,-4.7018,-4.7423,-4.7626,-4.7568,-4.7498,-4.7517,-4.7506,-4.7836,-4.7651,-4.747,-4.7324,-4.6967,-4.651,-4.6267,-4.6167,-4.6499,-4.6882,-4.7028,-4.7605,-4.8182,-4.9048,-4.9644,-4.9779,-4.9183,-4.8298,-4.7528,-4.6913,-4.6413,-4.6047,-4.5951,-4.5633,-4.5594,-4.5594,-4.5594,-4.5594,-4.5594,-4.5594,-4.5594,-4.5531,-4.5371,-4.5227,-4.4936,-4.4458,-4.4199,-4.3974,-4.3751,-4.3632,-4.3565,-4.3513,-4.3479,-4.3479,-4.3479,-4.3479,-4.3479,-4.3479,-4.3479,-4.3479,-4.3479,-4.3479,-4.3479,-4.3479,-4.3479,-4.3479,-4.3479,-4.3479,-4.3442,-4.3406,-4.3185,-4.2947,-4.258,-4.2194,-4.2012,-4.2104,-4.1889,-4.1404,-4.0626,-3.9599,-3.8744,-3.8051,-3.7275,-3.6522,-3.6056,-3.569,-3.5317,-3.5021,-3.4871,-3.4573,-3.4269,-3.4252,-3.4269,-3.4264,-3.4349,-3.4455,-3.4539,-3.3741,-3.2904,-3.1929,-3.1,-3.0165,-2.9383,-2.8625,-2.8204,-4.5594,-4.5594,-4.5594,-4.5594,-4.5594,-4.5603,-4.5648,-4.5698,-4.5833,-4.5902,-4.5988,-4.6022,-4.6139,-4.6294,-4.6445,-4.6382,-4.6435,-4.6465,-4.6503,-4.6085,-4.6498,-4.6576,-4.657,-4.6229,-4.6352,-4.6102,-4.5938,-4.5981,-4.6133,-4.6747,-4.7586,-4.8202,-4.8875,-4.9644,-5.0346,-5.0481,-4.999,-4.9413,-4.8663,-4.8009,-4.7105,-4.674,-4.6509,-4.5748,-4.5594,-4.5594,-4.5594,-4.5594,-4.5594,-4.5594,-4.5577,-4.5522,-4.5301,-4.5053,-4.4681,-4.4369,-4.4106,-4.3876,-4.3718,-4.3599,-4.3548,-4.3513,-4.3479,-4.3479,-4.3479,-4.3479,-4.3479,-4.3479,-4.3479,-4.3479,-4.3479,-4.3479,-4.3479,-4.3479,-4.3479,-4.3479,-4.3479,-4.3479,-4.3461,-4.3442,-4.3387,-4.3185,-4.3149,-4.2782,-4.2708,-4.2985,-4.286,-4.2282,-4.1523,-4.0437,-3.9479,-3.863,-3.7895,-3.7147,-3.644,-3.6093,-3.5779,-3.5571,-3.543,-3.5329,-3.4974,-3.5177,-3.5532,-3.5261,-3.4957,-3.5228,-3.5205,-3.432,-3.3501,-3.279,-3.1766,-3.0664,-2.9782,-2.9036,-2.8485,-4.5594,-4.5594,-4.5594,-4.5594,-4.5594,-4.5594,-4.564,-4.5701,-4.5711,-4.5771,-4.5861,-4.5899,-4.5923,-4.5947,-4.5955,-4.5931,-4.5931,-4.5935,-4.5956,-4.6003,-4.6088,-4.6144,-4.6193,-4.619,-4.6123,-4.6007,-4.5983,-4.6205,-4.6724,-4.7441,-4.8221,-4.8971,-4.9471,-4.9971,-5.0635,-5.0683,-5.0471,-5.0164,-4.9894,-4.8759,-4.7385,-4.6874,-4.6509,-4.5913,-4.5633,-4.5652,-4.5652,-4.5652,-4.5633,-4.5594,-4.5594,-4.5467,-4.5248,-4.4948,-4.4616,-4.4283,-4.4033,-4.3814,-4.3649,-4.3548,-4.3513,-4.3496,-4.3479,-4.3479,-4.3479,-4.3479,-4.3479,-4.3479,-4.3479,-4.3479,-4.3479,-4.3479,-4.3479,-4.3479,-4.3479,-4.3479,-4.3479,-4.3479,-4.3479,-4.3479,-4.3479,-4.3479,-4.3479,-4.3479,-4.3479,-4.3408,-4.3319,-4.2922,-4.2341,-4.1449,-4.0365,-3.9496,-3.8765,-3.8009,-3.7153,-3.6486,-3.6175,-3.5842,-3.56,-3.56,-3.5616,-3.5616,-3.5616,-3.5616,-3.5532,-3.5616,-3.5386,-3.4729,-3.3946,-3.3419,-3.246,-3.131,-3.0642,-2.9925,-2.9336,-4.5594,-4.5594,-4.5594,-4.5594,-4.5594,-4.5594,-4.5622,-4.5648,-4.5648,-4.5671,-4.5704,-4.5776,-4.58,-4.5814,-4.5812,-4.5817,-4.5817,-4.5819,-4.5841,-4.5923,-4.6003,-4.6078,-4.6127,-4.6153,-4.6087,-4.6016,-4.637,-4.6777,-4.747,-4.824,-4.9029,-4.9452,-4.9702,-5.0164,-5.0683,-5.0683,-5.0683,-5.0664,-5.0683,-4.9644,-4.7952,-4.7605,-4.7048,-4.6413,-4.5893,-4.5874,-4.6124,-4.622,-4.6432,-4.6395,-4.6406,-4.5716,-4.5336,-4.4919,-4.4568,-4.4244,-4.3974,-4.3751,-4.3654,-4.3624,-4.3608,-4.3626,-4.3516,-4.3534,-4.3479,-4.3479,-4.3479,-4.3479,-4.3479,-4.3479,-4.3479,-4.3479,-4.3479,-4.3479,-4.3479,-4.3479,-4.3479,-4.3479,-4.3479,-4.3479,-4.3479,-4.3479,-4.3479,-4.3479,-4.3479,-4.3463,-4.3393,-4.3269,-4.2758,-4.2196,-4.1184,-4.0243,-3.946,-3.8618,-3.7712,-3.7029,-3.6564,-3.6214,-3.5859,-3.5684,-3.5633,-3.5616,-3.5616,-3.5616,-3.5616,-3.5616,-3.5296,-3.4875,-3.4624,-3.4166,-3.3088,-3.1899,-3.1346,-3.0791,-3.0236,-4.5479,-4.5575,-4.5594,-4.5594,-4.5594,-4.5594,-4.5594,-4.5594,-4.5594,-4.5594,-4.5612,-4.5687,-4.5684,-4.5673,-4.5665,-4.5679,-4.5706,-4.5735,-4.5758,-4.5819,-4.5872,-4.6007,-4.6084,-4.6102,-4.6158,-4.6587,-4.7108,-4.7678,-4.8298,-4.9106,-4.9625,-4.974,-5.0144,-5.0683,-5.0683,-5.0683,-5.0683,-5.0683,-5.0587,-5.0308,-4.9471,-4.8702,-4.7875,-4.7048,-4.6451,-4.6374,-4.6817,-4.7154,-4.75,-4.7453,-4.7242,-4.6623,-4.5997,-4.5571,-4.512,-4.4841,-4.4615,-4.4363,-4.4099,-4.4121,-4.4047,-4.3937,-4.3736,-4.3663,-4.3681,-4.3552,-4.3552,-4.3479,-4.3479,-4.3479,-4.3479,-4.3479,-4.3479,-4.3479,-4.3479,-4.3479,-4.3479,-4.3479,-4.3479,-4.3479,-4.3479,-4.3479,-4.3479,-4.3479,-4.348,-4.3445,-4.334,-4.3196,-4.292,-4.235,-4.1579,-4.0723,-3.9922,-3.9059,-3.8255,-3.7787,-3.7303,-3.6586,-3.6231,-3.5887,-3.5633,-3.5616,-3.5616,-3.5616,-3.5616,-3.5616,-3.5549,-3.5244,-3.5018,-3.4664,-3.3721,-3.259,-3.1956,-3.144,-3.1073,-4.497,-4.5594,-4.5594,-4.5594,-4.5594,-4.5594,-4.5594,-4.5594,-4.5594,-4.5594,-4.5594,-4.5603,-4.562,-4.562,-4.562,-4.5612,-4.5629,-4.5654,-4.5727,-4.5783,-4.5854,-4.5978,-4.6114,-4.6246,-4.6477,-4.7146,-4.8041,-4.8917,-4.9211,-4.9933,-5.0414,-5.0414,-5.0433,-5.0683,-5.0683,-5.0683,-5.0683,-5.0683,-5.0683,-5.05,-5.0327,-4.9548,-4.874,-4.8125,-4.774,-4.774,-4.7855,-4.7865,-4.7952,-4.7962,-4.7866,-4.7482,-4.6972,-4.6512,-4.6139,-4.5693,-4.5456,-4.5305,-4.511,-4.5057,-4.5002,-4.5021,-4.4819,-4.4415,-4.4232,-4.3809,-4.3718,-4.3497,-4.3479,-4.3479,-4.3479,-4.3479,-4.3479,-4.3479,-4.3479,-4.3479,-4.3479,-4.3479,-4.3479,-4.3479,-4.3479,-4.3479,-4.3479,-4.3479,-4.3479,-4.3428,-4.3304,-4.316,-4.2994,-4.2476,-4.1924,-4.1119,-4.0305,-3.9792,-3.9115,-3.8696,-3.8142,-3.7371,-3.6569,-3.6163,-3.5819,-3.5633,-3.5616,-3.5616,-3.5616,-3.5616,-3.5526,-3.5412,-3.5071,-3.4682,-3.4093,-3.3322,-3.26,-3.198,-3.1488]},{"header":{"parameterUnit":"m.s-1","parameterCategory":1,"la1":31.0,"la2":29.5877,"lo1":-88.7671,"lo2":-86.6584,"dy":0.0162,"dx":0.0185,"nx":115,"ny":88,"refTime":"2024-03-28T12:00:00:Z","depth":0,"parameterNumber":3,"parameterNumberName":"V-component_of_WINDS"},"data":[0.0,0.0,0.0,0.0,0.0,0.0,0.0,0.0,0.0,0.0,0.0,0.0,0.0,0.0,0.0,0.0,0.0,0.0,0.0,0.0,0.0,0.0,0.0,0.0,0.0,0.0,0.0,0.0,0.0,0.0,0.0,0.0,0.0,0.0,0.0,0.0,0.0,0.0,0.0,0.0,0.0,0.0,0.0,0.0,0.0,0.0,0.0,0.0,0.0,0.0,0.0,0.0,0.0,0.0,0.0,0.0,0.0,0.0,0.0,0.0,0.0,0.0,0.0,0.0,0.0,0.0,0.0,0.0,0.0,0.0,0.0,0.0,0.0,0.0,0.0,0.0,0.0,0.0,0.0,0.0,0.0,0.0,0.0,0.0,0.0,0.0,0.0,0.0,0.0,0.0,0.0,0.0,0.0,0.0,0.0,0.0,0.0,0.0,0.0,0.0,0.0,0.0,0.0,0.0,0.0,0.0,0.0,0.0,0.0,0.0,0.0,0.0,0.0,0.0,0.0,0.0,0.0,0.0,0.0,0.0,0.0,0.0,0.0,0.0,0.0,0.0,0.0,0.0,0.0,0.0,0.0,0.0,0.0,0.0,0.0,0.0,0.0,0.0,0.0,0.0,0.0,0.0,0.0,0.0,0.0,0.0,0.0,0.0,0.0,0.0,0.0,0.0,0.0,0.0,0.0,0.0,0.0,0.0,0.0,0.0,0.0,0.0,0.0,0.0,0.0,0.0,0.0,0.0,0.0,0.0,0.0,0.0,0.0,0.0,0.0,0.0,0.0,0.0,0.0,0.0,0.0,0.0,0.0,0.0,0.0,0.0,0.0,0.0,0.0,0.0,0.0,0.0,0.0,0.0,0.0,0.0,0.0,0.0,0.0,0.0,0.0,0.0,0.0,0.0,0.0,0.0,0.0,0.0,0.0,0.0,0.0,0.0,0.0,0.0,0.0,0.0,0.0,0.0,0.0,0.0,0.0,0.0,0.0,0.0,0.0,0.0,0.0,0.0,0.0,0.0,0.0,0.0,0.0,0.0,0.0,0.0,0.0,0.0,0.0,0.0,0.0,0.0,0.0,0.0,0.0,0.0,0.0,0.0,0.0,0.0,0.0,0.0,0.0,0.0,0.0,0.0,0.0,0.0,0.0,0.0,0.0,0.0,0.0,0.0,0.0,0.0,0.0,0.0,0.0,0.0,0.0,0.0,0.0,0.0,0.0,0.0,0.0,0.0,0.0,0.0,0.0,0.0,0.0,0.0,0.0,0.0,0.0,0.0,0.0,0.0,0.0,0.0,0.0,0.0,0.0,0.0,0.0,0.0,0.0,0.0,0.0,0.0,0.0,0.0,0.0,0.0,0.0,0.0,0.0,0.0,0.0,0.0,0.0,0.0,0.0,0.0,0.0,0.0,0.0,0.0,0.0,0.0,0.0,0.0,0.0,0.0,0.0,0.0,0.0,0.0,0.0,0.0,0.0,0.0,0.0,0.0,0.0,0.0,0.0,0.0,0.0,0.0,0.0,0.0,0.0,0.0,0.0,0.0,0.0,0.0,0.0,0.0,0.0,0.0,0.0,0.0,0.0,0.0,0.0,0.0,0.0,0.0,0.0,0.0,0.0,0.0,0.0,0.0,0.0,0.0,0.0,0.0,0.0,0.0,0.0,0.0,0.0,0.0,0.0,0.0,0.0,0.0,0.0,0.0,0.0,0.0,0.0,0.0,0.0,0.0,0.0,0.0,0.0,0.0,0.0,0.0,0.0,0.0,0.0,0.0,0.0,0.0,0.0,0.0,0.0,0.0,0.0,0.0,0.0,0.0,0.0,0.0,0.0,0.0,0.0,0.0,0.0,0.0,0.0,0.0,0.0,0.0,0.0,0.0,0.0,0.0,0.0,0.0,0.0,0.0,0.0,0.0,0.0,0.0,0.0,0.0,0.0,0.0,0.0,0.0,0.0,0.0,0.0,0.0,0.0,0.0,0.0,0.0,0.0,0.0,0.0,0.0,0.0,0.0,0.0,0.0,0.0,0.0,0.0,0.0,0.0,0.0,0.0,0.0,0.0,0.0,0.0,0.0,0.0,0.0,0.0,0.0,0.0,0.0,0.0,0.0,0.0,0.0,0.0,0.0,0.0,0.0,0.0,0.0,0.0,0.0,0.0,0.0,0.0,0.0,0.0,0.0,0.0,0.0,0.0,0.0,0.0,0.0,0.0,0.0,0.0,0.0,0.0,0.0,0.0,0.0,0.0,0.0,0.0,0.0,0.0,0.0,0.0,0.0,0.0,0.0,0.0,0.0,0.0,0.0,0.0,0.0,0.0,0.0,0.0,0.0,0.0,0.0,0.0,0.0,0.0,0.0,0.0,0.0,0.0,0.0,0.0,0.0,0.0,0.0,0.0,0.0,0.0,0.0,0.0,0.0,0.0,0.0,0.0,0.0,0.0,0.0,0.0,0.0,0.0,0.0,0.0,0.0,0.0,0.0,0.0,0.0,0.0,0.0,0.0,0.0,0.0,0.0,0.0,0.0,0.0,0.0,0.0,0.0,0.0,0.0,0.0,0.0,0.0,0.0,0.0,0.0,0.0,0.0,0.0,0.0,0.0,0.0,0.0,0.0,0.0,0.0,0.0,0.0,0.0,0.0,0.0,0.0,0.0,0.0,0.0,0.0,0.0,0.0,0.0,0.0,0.0,0.0,0.0,0.0,0.0,0.0,0.0,0.0,0.0,0.0,0.0,0.0,0.0,0.0,0.0,0.0,0.0,0.0,0.0,0.0,0.0,0.0,0.0,0.0,0.0,0.0,0.0,0.0,0.0,0.0,0.0,0.0,0.0,0.0,0.0,0.0,0.0,0.0,0.0,0.0,0.0,0.0,0.0,0.0,0.0,0.0,0.0,0.0,0.0,0.0,0.0,0.0,0.0,0.0,0.0,0.0,0.0,0.0,0.0,0.0,0.0,0.0,0.0,0.0,0.0,0.0,0.0,0.0,0.0,0.0,0.0,0.0,0.0,0.0,0.0,0.0,0.0,0.0,0.0,0.0,0.0,0.0,0.0,0.0,0.0,0.0,0.0,0.0,0.0,0.0,0.0,0.0,0.0,0.0,0.0,0.0,0.0,0.0,0.0,0.0,0.0,0.0,0.0,0.0,0.0,0.0,0.0,0.0,0.0,0.0,0.0,0.0,0.0,0.0,0.0,0.0,0.0,0.0,0.0,0.0,0.0,0.0,0.0,0.0,0.0,0.0,0.0,0.0,0.0,0.0,0.0,0.0,0.0,0.0,0.0,0.0,0.0,0.0,0.0,0.0,0.0,0.0,0.0,0.0,0.0,0.0,0.0,0.0,0.0,0.0,0.0,0.0,0.0,0.0,0.0,0.0,0.0,0.0,0.0,0.0,0.0,0.0,0.0,0.0,0.0,0.0,0.0,0.0,0.0,0.0,0.0,0.0,0.0,0.0,0.0,0.0,0.0,0.0,0.0,0.0,0.0,0.0,0.0,0.0,0.0,0.0,0.0,0.0,0.0,0.0,0.0,0.0,0.0,0.0,0.0,0.0,0.0,0.0,0.0,0.0,0.0,0.0,0.0,0.0,0.0,0.0,0.0,0.0,0.0,0.0,0.0,0.0,0.0,0.0,0.0,0.0,0.0,0.0,0.0,0.0,0.0,0.0,0.0,0.0,0.0,0.0,0.0,0.0,0.0,0.0,0.0,0.0,0.0,0.0,0.0,0.0,0.0,0.0,0.0,0.0,0.0,0.0,0.0,0.0,0.0,0.0,0.0,0.0,0.0,0.0,0.0,0.0,0.0,0.0,0.0,0.0,0.0,0.0,0.0,0.0,0.0,0.0,0.0,0.0,0.0,0.0,0.0,0.0,0.0,0.0,0.0,0.0,0.0,0.0,0.0,0.0,0.0,0.0,0.0,0.0,0.0,0.0,0.0,0.0,0.0,0.0,0.0,0.0,0.0,0.0,0.0,0.0,0.0,0.0,0.0,0.0,0.0,0.0,0.0,0.0,0.0,0.0,0.0,0.0,0.0,0.0,0.0,0.0,0.0,0.0,0.0,0.0,0.0,0.0,0.0,0.0,0.0,0.0,0.0,0.0,0.0,0.0,0.0,0.0,0.0,0.0,0.0,0.0,0.0,0.0,0.0,0.0,0.0,0.0,0.0,0.0,0.0,0.0,0.0,0.0,0.0,0.0,0.0,0.0,0.0,0.0,0.0,0.0,0.0,0.0,0.0,0.0,0.0,0.0,0.0,0.0,0.0,0.0,0.0,0.0,0.9805,0.0,0.0,0.0,0.0,0.0,0.0,0.0,0.0,0.0,0.0,0.0,0.0,0.0,0.0,0.0,0.0,0.0,0.0,0.0,0.0,0.0,0.0,0.0,0.0,0.0,0.0,0.0,0.0,0.0,0.0,0.0,0.0,0.0,0.0,0.0,0.0,0.0,0.0,0.0,0.0,0.0,0.0,0.0,0.0,0.0,0.0,0.0,0.0,0.0,0.0,0.0,0.0,0.0,0.0,0.0,0.0,0.0,0.0,0.0,0.0,0.0,0.0,0.0,0.0,0.0,0.0,0.0,0.0,0.0,0.0,0.0,0.0,0.0,0.0,0.0,0.0,0.0,0.0,0.0,0.0,0.0,0.0,0.0,0.0,0.0,0.0,0.0,0.0,0.0,0.0,0.0,0.0,0.0,0.0,0.0,0.0,0.0,0.0,0.0,0.0,0.0,0.0,0.0,0.0,0.0,0.0,0.0,0.0,0.0,0.0,0.9591,0.9987,0.9963,0.9906,0.9801,0.0,0.0,0.0,0.0,0.0,0.0,0.0,0.0,0.0,0.0,0.0,0.0,0.0,0.0,0.0,0.0,0.0,0.0,0.0,0.0,0.0,0.0,0.0,0.0,0.0,0.0,0.0,0.0,0.0,0.0,0.0,0.0,0.0,0.0,0.0,0.0,0.0,0.0,0.0,0.0,0.0,0.0,0.0,0.0,0.0,0.0,0.0,0.0,0.0,0.0,0.0,0.0,0.0,0.0,0.0,0.0,0.0,0.0,0.0,0.0,0.0,0.0,0.0,0.0,0.0,0.0,0.0,0.0,0.0,0.0,0.0,0.0,0.0,0.0,0.0,0.0,0.0,0.0,0.0,0.0,0.0,0.0,0.0,0.0,0.0,0.0,0.0,0.0,0.0,0.0,0.0,0.0,0.0,0.0,0.0,0.0,0.0,0.0,0.0,0.0,0.0,0.0,0.0,0.0,0.0,0.0,0.0,0.0,0.0,0.0,0.0,0.0,0.9943,0.9863,0.9774,0.0,0.0,0.0,0.0,0.0,0.0,0.0,0.0,0.0,0.0,0.0,0.0,0.0,0.0,0.0,0.0,0.0,0.0,0.0,0.0,0.0,0.0,0.0,0.0,0.0,0.0,0.0,0.0,0.0,0.0,0.0,0.0,0.0,0.0,0.0,0.0,0.0,0.0,0.0,0.0,0.0,0.0,0.0,0.0,0.0,0.0,0.0,0.0,0.0,0.0,0.0,0.0,0.0,0.0,0.0,0.0,0.0,0.0,0.0,0.0,0.0,0.0,0.0,0.0,0.0,0.0,0.0,0.0,0.0,0.0,0.0,0.0,0.0,0.0,0.0,0.0,0.0,0.0,0.0,0.0,0.0,0.0,0.0,0.0,0.0,0.0,0.0,0.0,0.0,0.0,0.0,0.0,0.0,0.0,0.0,0.0,0.0,0.0,0.0,0.0,0.0,0.0,0.0,0.0,0.0,0.0,0.0,0.0,0.0,0.0,0.9182,0.9971,0.9939,0.0,0.9732,0.0,0.0,0.0,0.0,0.0,0.0,0.0,0.0,0.0,0.0,0.0,0.0,0.0,0.0,0.0,0.0,0.0,0.0,0.0,0.0,0.0,0.0,0.0,0.0,0.0,0.0,0.0,0.0,0.0,0.0,0.0,0.0,0.0,0.0,0.0,0.0,0.0,0.0,0.0,0.0,0.0,0.0,0.0,0.0,0.0,0.0,0.0,0.0,0.0,0.0,0.0,0.0,0.0,0.0,0.0,0.0,0.0,0.0,0.0,0.0,0.0,0.0,0.0,0.0,0.0,0.0,0.0,0.0,0.0,0.0,0.0,0.0,0.0,0.0,0.0,0.0,0.0,0.0,0.0,0.0,0.0,0.0,0.0,0.0,0.0,0.0,0.0,0.0,0.0,0.0,0.0,0.0,0.0,0.0,0.0,0.0,0.0,0.0,0.0,0.0,0.0,0.0,0.0,0.0,0.0,0.0,0.0,0.0,0.0,0.0,0.8419,0.9214,0.9641,0.9808,0.0,0.0,0.0,0.0,0.0,0.0,0.0,0.0,0.0,0.0,0.0,0.0,0.0,0.0,0.0,0.0,0.0,0.0,0.0,0.0,0.0,0.0,0.0,0.0,0.0,0.0,0.0,0.0,0.0,0.0,0.0,0.0,0.0,0.0,0.0,0.0,0.0,0.0,0.0,0.0,0.0,0.0,0.0,0.0,0.0,0.0,0.0,0.0,0.0,0.0,0.0,0.0,0.0,0.0,0.0,0.0,0.0,0.0,0.0,0.0,0.0,0.0,0.0,0.0,0.0,0.0,0.0,0.0,0.0,0.0,0.0,0.0,0.0,0.0,0.0,0.0,0.0,0.0,0.0,0.0,0.0,0.0,0.0,0.0,0.0,0.0,0.0,0.0,0.0,0.0,0.0,0.0,0.0,0.0,0.0,0.0,0.0,0.0,0.0,0.0,0.0,0.0,0.0,0.0,0.0,0.0,0.0,0.0,0.0,0.0,0.7057,0.7942,0.8936,0.9485,0.9729,0.9677,0.0,0.0,0.0,0.0,0.0,0.0,0.0,0.0,0.0,0.0,0.0,0.0,0.0,0.0,0.0,0.0,0.0,0.0,0.0,0.0,0.0,0.0,0.0,0.0,0.0,0.0,0.0,0.0,0.0,0.0,0.0,0.0,0.0,0.0,0.0,0.0,0.0,0.0,0.0,0.0,0.0,0.0,0.0,0.0,0.0,0.0,0.0,0.0,0.0,0.0,0.0,0.0,0.0,0.0,0.0,0.0,0.0,0.0,0.0,0.0,0.0,0.0,0.0,0.0,0.0,0.0,0.0,0.0,0.0,0.0,0.0,0.0,0.0,0.0,0.0,0.0,0.0,0.0,0.0,0.0,0.0,0.0,0.0,0.0,0.0,0.0,0.0,0.0,0.0,0.0,0.0,0.0,0.0,0.0,0.0,0.0,0.0,0.0,0.0,0.0,0.0,0.0,0.0,0.0,0.0,0.0,0.0,0.0,0.6162,0.698,0.8111,0.9569,0.9669,0.9673,0.0,0.0,0.0,0.0,0.0,0.0,0.0,0.0,0.0,0.0,0.0,0.0,0.0,0.0,0.0,0.0,0.0,0.0,0.0,0.0,0.0,0.0,0.0,0.0,0.0,0.0,0.0,0.0,0.0,0.0,0.0,0.0,0.0,0.0,0.0,0.0,0.0,0.0,0.0,0.0,0.0,0.0,0.0,0.0,0.0,0.0,0.0,0.0,0.0,0.0,0.0,0.0,0.0,0.0,0.0,0.0,0.0,0.0,0.0,0.0,0.0,0.0,0.0,0.0,0.0,0.0,0.0,0.0,0.0,0.0,0.0,0.0,0.0,0.0,0.0,0.0,0.0,0.0,0.0,0.0,0.0,0.0,0.0,0.0,0.0,0.0,0.0,0.0,0.0,0.0,0.0,0.0,0.0,0.0,0.0,0.0,0.0,0.0,0.0,0.0,0.0,0.0,0.0,0.0,0.0,0.0,0.0,0.0,0.0,0.5351,0.6593,0.8027,0.9551,0.9632,0.9623,0.0,0.0,0.0,0.0,0.0,0.0,0.0,0.0,0.0,0.0,0.0,0.0,0.0,0.0,0.0,0.0,0.0,0.0,0.0,0.0,0.0,0.0,0.0,0.0,0.0,0.0,0.0,0.0,0.0,0.0,0.0,0.0,0.0,0.0,0.0,0.0,0.0,0.0,0.0,0.0,0.0,0.0,0.0,0.0,0.0,0.0,0.0,0.0,0.0,0.0,0.0,0.0,0.0,0.0,0.0,0.0,0.0,0.0,0.0,0.0,0.0,0.0,0.0,0.0,0.0,0.0,0.0,0.0,0.0,0.0,0.0,0.0,0.0,0.0,0.0,0.0,0.0,0.0,0.0,0.0,0.0,0.0,0.0,0.0,0.0,0.0,0.0,0.0,0.0,0.0,0.0,0.0,0.0,0.0,0.0,0.0,0.0,0.0,0.0,0.0,0.0,0.0,0.0,0.0,0.0,0.0,0.0,0.0,0.0,0.582,0.0,0.816,0.9445,0.9571,0.9554,0.0,0.0,0.0,0.0,0.0,0.0,0.0,0.0,0.0,0.0,0.0,0.0,0.0,0.0,0.0,0.0,0.0,0.0,0.0,0.0,0.0,0.0,0.0,0.0,0.0,0.0,0.0,0.0,0.0,0.0,0.0,0.0,0.0,0.0,0.0,0.0,0.0,0.0,0.0,0.0,0.0,0.0,0.0,0.0,0.0,0.0,0.0,0.0,0.0,0.0,0.0,0.0,0.0,0.0,0.0,0.0,0.0,0.0,0.0,0.0,0.0,0.0,0.0,0.0,0.0,0.0,0.0,0.0,0.0,0.0,0.0,0.0,0.0,0.0,0.0,0.0,0.0,0.0,0.0,0.0,0.0,0.0,0.0,0.0,0.0,0.0,0.0,0.0,0.0,0.0,0.0,0.0,0.0,0.0,0.0,0.0,0.0,0.0,0.0,0.0,0.0,0.0,0.0,0.0,0.0,0.0,0.0,0.0,0.695,0.7842,0.8014,0.8536,0.9377,0.9502,0.9515,0.0,0.0,0.0,0.0,0.0,0.0,0.0,0.0,0.0,0.0,0.0,0.0,0.0,0.0,0.0,0.0,0.0,0.0,0.0,0.0,0.0,0.0,0.0,0.0,0.0,0.0,0.0,0.0,0.0,0.0,0.0,0.0,0.0,0.0,0.0,0.0,0.0,0.0,0.0,0.0,0.0,0.0,0.0,0.0,0.0,0.0,0.0,0.0,0.0,0.0,0.0,0.0,0.0,0.0,0.0,0.0,0.0,0.0,0.0,0.0,0.0,0.0,0.0,0.0,0.0,0.0,0.0,0.0,0.0,0.0,0.0,0.0,0.0,0.0,0.0,0.0,0.0,0.0,0.0,0.0,0.0,0.0,0.0,0.0,0.0,0.0,0.0,0.0,0.0,0.0,0.0,0.0,0.0,0.0,0.0,0.0,0.0,0.0,0.0,0.0,0.0,0.0,0.0,0.0,0.0,0.0,0.0,0.0,0.0,0.8297,0.8536,0.9059,0.9917,1.0073,0.9882,0.0,0.0,0.0,0.0,0.0,0.0,0.0,0.0,0.0,0.0,0.0,0.0,0.0,0.0,0.0,0.0,0.0,0.0,0.0,0.0,0.0,0.0,0.0,0.0,0.0,0.0,0.0,0.0,0.0,0.0,0.0,0.0,0.0,0.0,0.0,0.0,0.0,0.0,0.0,0.0,0.0,0.0,0.0,0.0,0.0,0.0,0.0,0.0,0.0,0.0,0.0,0.0,0.0,0.0,0.0,0.0,0.0,0.0,0.0,0.0,0.0,0.0,0.0,0.0,0.0,0.0,0.0,0.0,0.0,0.0,0.0,0.0,0.0,0.0,0.0,0.0,0.0,0.0,0.0,0.0,0.0,0.0,0.0,0.0,0.0,0.0,0.0,0.0,0.0,0.0,0.0,0.0,0.0,0.0,0.0,0.0,0.0,0.0,0.0,0.0,0.0,0.0,0.0,0.0,0.0,0.0,0.0,0.0,0.0,0.952,0.9773,1.0229,1.0906,1.0789,1.0366,0.9659,0.0,0.0,0.0,0.0,0.0,0.0,0.0,0.0,0.0,0.0,0.0,0.0,0.0,0.0,0.0,0.0,0.0,0.0,0.0,0.0,0.0,0.0,0.0,0.0,0.0,0.0,0.0,0.0,0.0,0.0,0.0,0.0,0.0,0.0,0.0,0.0,0.0,0.0,0.0,0.0,0.0,0.0,0.0,0.0,0.0,0.0,0.0,0.0,0.0,0.0,0.0,0.0,0.0,0.0,0.0,0.0,0.0,0.0,0.0,0.0,0.0,0.0,0.0,0.0,0.0,0.0,0.0,0.0,0.0,0.0,0.0,0.0,0.0,0.0,0.0,0.0,0.0,0.0,0.0,0.0,0.0,0.0,0.0,0.0,0.0,0.0,0.0,0.0,0.0,0.0,0.0,0.0,0.0,0.0,0.0,0.0,0.0,0.0,0.0,0.0,0.0,0.0,0.0,0.0,0.0,0.0,0.0,0.0,1.1373,1.1679,1.1969,1.2181,1.1647,1.0984,0.0,0.0,0.0,0.0,0.0,0.0,0.0,0.0,0.0,0.0,0.0,0.0,0.0,0.0,0.0,0.0,0.0,0.0,0.0,0.0,0.0,0.0,0.0,0.0,0.0,0.0,0.0,0.0,0.0,0.0,0.0,0.0,0.0,0.0,0.0,0.0,0.0,0.0,0.0,0.0,0.0,0.0,0.0,0.0,0.0,0.0,0.0,0.0,0.0,0.0,0.0,0.0,0.0,0.0,0.0,0.0,0.0,0.0,0.0,0.0,0.0,0.0,0.0,0.0,0.0,0.0,0.0,0.0,0.0,0.0,0.0,0.0,0.0,0.0,0.0,0.0,0.0,0.0,0.0,0.0,0.0,0.0,0.0,0.0,0.0,0.0,0.0,0.0,0.0,0.0,0.0,0.0,0.0,0.0,0.0,0.0,0.0,0.0,0.0,0.0,0.0,0.0,0.0,0.0,0.0,0.0,0.0,0.0,0.0,1.2472,1.4006,1.4362,1.3535,1.3016,1.2184,0.0,0.0,0.0,0.0,0.0,0.0,0.0,0.0,0.0,0.0,0.0,0.0,0.0,0.0,0.0,0.0,0.0,0.0,0.0,0.0,0.0,0.0,0.0,0.0,0.0,0.0,0.0,0.0,0.0,0.0,0.0,0.0,0.0,0.0,0.0,0.0,0.0,0.0,0.0,0.0,0.0,0.0,0.0,0.0,0.0,0.0,0.0,0.0,0.0,0.0,0.0,0.0,0.0,0.0,0.0,0.0,0.0,0.0,0.0,0.0,0.0,0.0,0.0,0.0,0.0,0.0,0.0,0.0,0.0,0.0,0.0,0.0,0.0,0.0,0.0,0.0,0.0,0.0,0.0,0.0,0.0,0.0,0.0,0.0,0.0,0.0,0.0,0.0,0.0,0.0,0.0,0.0,0.0,0.0,0.0,0.0,0.0,0.0,0.0,0.0,0.0,0.0,0.0,0.0,0.0,0.0,0.0,0.0,1.0442,1.2636,1.4962,1.5891,1.5227,1.4503,1.3318,0.0,0.0,0.0,0.0,0.0,0.0,0.0,0.0,0.0,0.0,0.0,0.0,0.0,0.0,0.0,0.0,0.0,0.0,0.0,0.0,0.0,0.0,0.0,0.0,0.0,0.0,0.0,0.0,0.0,0.0,0.0,0.0,0.0,0.0,0.0,0.0,0.0,0.0,0.0,0.0,0.0,0.0,0.0,0.0,0.0,0.0,0.0,0.0,0.0,0.0,0.0,0.0,0.0,0.0,0.0,0.0,0.0,0.0,0.0,0.0,0.0,0.0,0.0,0.0,0.0,0.0,0.0,0.0,0.0,0.0,0.0,0.0,0.0,0.0,0.0,0.0,0.0,0.0,0.0,0.0,0.0,0.0,0.0,0.0,0.0,0.0,0.0,0.0,0.0,0.0,0.0,0.0,0.0,0.0,0.0,0.0,0.0,0.0,0.0,0.0,0.0,0.0,0.0,0.0,0.0,0.0,0.0,0.0,1.0624,1.2231,1.5122,1.6739,1.6934,1.5898,1.4377,0.0,0.0,0.0,0.0,0.0,0.0,0.0,0.0,0.0,0.0,0.0,0.0,0.0,0.0,0.0,0.0,0.0,0.0,0.0,0.0,0.0,0.0,0.0,0.0,0.0,0.0,0.0,0.0,0.0,0.0,0.0,0.0,0.0,0.0,0.0,0.0,0.0,0.0,0.0,0.0,0.0,0.0,0.0,0.0,0.0,0.0,0.0,0.0,0.0,0.0,0.0,0.0,0.0,0.0,0.0,0.0,0.0,0.0,0.0,0.0,0.0,0.0,0.0,0.0,0.0,0.0,0.0,0.0,0.0,0.0,0.0,0.0,0.0,0.0,0.0,0.0,0.0,0.0,0.0,0.0,0.0,0.0,0.0,0.0,0.0,0.0,0.0,0.0,0.0,0.0,0.0,0.0,0.0,0.0,0.0,0.0,0.0,0.0,0.0,0.0,0.0,0.0,0.0,0.0,0.0,0.0,0.0,0.0,1.0457,1.2594,1.5474,1.7134,1.7438,1.6556,1.51,0.0,0.0,0.0,0.0,0.0,0.0,0.0,0.0,0.0,0.0,0.0,0.0,0.0,0.0,0.0,0.0,0.0,0.0,0.0,0.0,0.0,0.0,0.0,0.0,0.0,0.0,0.0,0.0,0.0,0.0,0.0,0.0,0.0,0.0,0.0,0.0,0.0,0.0,0.0,0.0,0.0,0.0,0.0,0.0,0.0,0.0,0.0,0.0,1.1136,0.0,0.0,0.0,0.0,0.0,0.0,0.0,0.0,0.0,0.0,0.0,0.0,0.0,0.0,0.0,0.0,0.0,0.0,0.0,0.0,0.0,0.0,0.0,0.0,0.0,0.0,0.0,0.0,0.0,0.0,0.0,0.0,0.0,0.0,0.0,0.0,0.0,0.0,0.0,0.0,0.0,0.0,0.0,0.0,0.0,0.0,0.0,0.0,0.0,0.0,0.0,0.0,0.0,0.0,0.0,0.0,0.0,0.0,0.0,1.0201,1.2048,1.4915,1.66,1.6907,1.641,1.5184,0.0,0.0,0.0,0.0,0.0,0.0,0.0,0.0,0.0,0.0,0.0,0.0,0.0,0.0,0.0,0.0,0.0,0.0,0.0,0.0,0.0,0.0,0.0,0.0,0.0,0.0,0.0,0.0,0.0,0.0,0.0,0.0,0.0,0.0,0.0,0.0,0.0,0.0,0.0,0.0,0.0,0.0,0.0,0.0,0.0,0.0,0.0,0.0,0.0,0.0,0.0,0.0,0.0,0.0,0.0,0.0,0.0,0.0,0.0,0.0,0.0,0.0,0.0,0.0,0.0,0.0,0.0,0.0,0.0,0.0,0.0,0.0,0.0,0.0,0.0,0.0,0.0,0.0,0.0,0.0,0.0,0.0,0.0,0.0,0.0,0.0,0.0,0.0,0.0,0.0,0.0,0.0,0.0,0.0,0.0,0.0,0.0,0.0,0.0,0.0,0.0,0.0,0.0,0.0,0.0,0.0,0.0,0.7894,0.9837,1.121,1.3984,1.56,1.5923,1.5748,1.4766,1.2898,0.0,0.0,0.0,0.0,0.0,0.0,0.0,0.0,0.0,0.0,0.0,0.0,0.0,0.0,0.0,0.0,0.0,0.0,0.0,0.0,0.0,0.0,0.0,0.0,0.0,0.0,0.0,0.0,0.0,0.0,0.0,0.0,0.0,0.0,0.0,0.0,0.0,0.0,0.873,0.9608,0.0,0.0,0.0,0.0,0.0,0.0,0.0,0.0,1.2269,0.0,0.0,0.0,0.0,0.0,0.0,0.0,0.0,0.0,0.0,0.0,0.0,0.0,0.0,0.0,0.0,0.0,0.0,0.0,0.0,0.0,0.0,0.0,0.0,0.0,0.0,0.0,0.0,0.0,0.0,0.0,0.0,0.0,0.0,0.0,0.0,0.0,0.0,0.0,0.0,0.0,0.0,0.0,0.0,0.0,0.0,0.0,0.0,0.0,0.0,0.0,0.0,0.0,0.0,0.0,0.0,0.5086,0.7425,0.928,1.0634,1.3013,1.4421,1.4663,1.4615,1.3655,1.1785,0.0,0.0,0.0,0.0,0.0,0.0,0.0,0.0,0.0,0.0,0.0,0.0,0.0,0.0,0.0,0.0,0.0,0.0,0.0,0.0,0.0,0.0,0.0,0.0,0.0,0.0,0.0,0.0,0.0,0.0,0.0,0.0,0.0,0.0,0.0,0.0,0.0,0.0,0.0,1.0266,1.0621,0.0,0.0,0.0,0.0,0.0,0.0,0.0,0.0,1.2506,0.0,0.0,0.0,0.0,0.0,0.0,0.0,0.0,0.0,0.0,0.0,0.0,0.0,0.0,0.0,0.0,0.0,0.0,0.0,0.0,0.0,0.0,0.0,0.0,0.0,0.0,0.0,0.0,0.0,0.0,0.0,0.0,0.0,0.0,0.0,0.0,0.0,0.0,0.0,0.0,0.0,0.0,0.0,0.0,0.0,0.0,0.0,0.0,0.0,0.0,0.0,0.0,0.0,0.0,0.0,0.4857,0.6928,0.8629,0.99,1.1862,1.3165,1.369,1.3555,1.2711,0.0,0.0,0.0,0.0,0.0,0.0,0.0,0.0,0.0,0.0,0.0,0.0,0.0,0.0,0.0,0.0,0.0,0.0,0.0,0.0,0.0,0.0,0.0,0.0,0.0,0.0,0.0,0.0,0.0,0.0,0.0,0.0,0.0,0.0,0.0,0.0,0.0,0.0,0.0,0.0,1.0299,1.0694,1.0735,0.0,0.0,0.0,0.0,0.0,0.0,1.3809,1.3655,0.0,0.0,0.0,0.0,0.0,0.0,0.0,0.0,0.0,0.0,0.0,0.0,0.0,0.0,0.0,0.0,0.0,0.0,0.0,0.0,0.0,0.0,0.0,0.0,0.0,0.0,0.0,0.0,0.0,0.0,0.0,0.0,0.0,0.0,0.0,0.0,0.0,0.0,0.0,0.0,0.0,0.0,0.0,0.0,0.0,0.0,0.0,0.0,0.0,0.0,0.0,0.0,0.0,0.0,0.0,0.4733,0.6595,0.8181,0.9437,1.0873,1.2032,1.2828,1.2508,1.1729,0.0,0.0,0.0,0.0,0.0,0.0,0.0,0.0,0.0,0.0,0.0,0.0,0.0,0.0,0.0,0.0,0.0,0.0,0.0,0.0,0.0,0.0,0.0,0.0,0.0,0.0,0.0,0.0,0.0,0.0,0.0,0.0,0.0,0.0,0.0,0.0,0.0,0.0,0.0,0.0,0.0,1.0575,1.1074,1.1383,0.0,0.0,0.0,0.0,1.4462,1.469,0.0,0.0,0.0,0.0,0.0,0.0,0.0,0.0,0.0,0.0,0.0,0.0,0.0,0.0,0.0,0.0,0.0,0.0,0.0,0.0,0.0,0.0,0.0,0.0,0.0,0.0,0.0,0.0,0.0,0.0,0.0,0.0,0.0,0.0,0.0,0.0,0.0,0.0,0.0,0.0,0.0,0.0,0.0,0.0,0.0,0.0,0.0,0.0,0.0,0.0,0.0,0.0,0.0,0.0,0.0,0.0,0.5042,0.6604,0.8255,0.9922,1.0478,1.1186,1.2101,1.1395,1.0445,0.0,0.0,0.0,0.0,0.0,0.0,0.0,0.0,0.0,0.0,0.0,0.0,0.0,0.0,0.0,0.0,0.0,0.0,0.0,0.0,0.0,0.0,0.0,0.0,0.0,0.0,0.0,0.0,0.0,0.0,0.0,0.0,0.0,0.0,0.0,0.0,0.0,0.0,0.0,0.0,0.0,1.0288,0.9956,1.0978,1.1918,0.0,0.0,1.3472,1.5121,1.5043,0.0,0.0,0.0,0.0,0.0,0.0,0.0,0.0,0.0,0.0,0.0,0.0,0.0,0.0,0.0,0.0,0.0,0.0,0.0,0.0,0.0,0.0,0.0,0.0,0.0,0.0,0.0,0.0,0.0,0.0,0.0,0.0,0.0,0.0,0.0,0.0,0.0,0.0,0.0,0.0,0.0,0.0,0.0,0.0,0.0,0.0,0.0,0.0,0.0,0.0,0.0,0.0,0.0,0.0,0.0,0.3548,0.4859,0.6247,0.7714,0.9259,1.0015,1.0633,1.1205,1.0977,1.0173,0.0,0.0,0.0,0.0,0.0,0.0,0.0,0.0,0.0,0.0,0.0,0.0,0.0,0.0,0.0,0.0,0.0,0.0,0.0,0.0,0.0,0.0,0.0,0.0,0.0,0.0,0.0,0.0,0.0,0.0,0.0,0.0,0.0,0.0,0.0,0.0,0.0,0.0,0.0,0.0,0.0,0.0,1.0451,1.1493,0.0,0.0,0.0,1.3938,1.5085,0.0,0.0,0.0,0.0,0.0,0.0,0.0,0.0,0.0,0.0,0.0,0.0,0.0,0.0,0.0,0.0,0.0,0.0,0.0,0.0,0.0,0.0,0.0,0.0,0.0,0.0,0.0,0.0,0.0,0.0,0.0,0.0,0.0,0.0,0.0,0.0,0.0,0.0,0.0,0.0,0.0,0.0,0.0,0.0,0.0,0.0,0.0,0.0,0.0,0.0,0.0,0.0,0.0,0.0,0.0,0.0,0.0,0.4809,0.6068,0.7435,0.8887,0.9762,1.0366,1.0763,1.0748,0.0,0.0,0.0,0.0,0.0,0.0,0.0,0.0,0.0,0.0,0.0,0.0,0.0,0.0,0.0,0.0,0.0,0.0,0.0,0.0,0.0,0.0,0.0,0.0,0.0,0.0,0.0,0.0,0.0,0.0,0.0,0.0,0.0,0.0,0.0,0.0,0.0,0.0,0.0,0.0,0.0,0.0,0.9818,1.0862,1.1654,1.2169,0.0,0.0,1.3784,1.4674,1.4437,1.4253,0.0,0.0,0.0,0.0,0.0,0.0,0.0,0.0,0.0,0.0,0.0,0.0,0.0,0.0,0.0,0.0,0.0,0.0,0.0,0.0,0.0,0.0,0.0,0.0,0.0,0.0,0.0,0.0,0.0,0.0,0.0,0.0,0.0,0.0,0.0,0.0,0.0,0.0,0.0,0.0,0.0,0.0,0.0,0.0,0.0,0.0,0.0,0.0,0.0,0.0,0.0,0.0,0.0,0.0,0.0,0.5151,0.6372,0.7807,0.946,0.9911,1.0487,1.1209,1.0608,0.9949,0.0,0.0,0.0,0.0,0.0,0.0,0.0,0.0,0.0,0.0,0.0,0.0,0.0,0.0,0.0,0.0,0.0,0.0,0.0,0.0,0.0,0.0,0.0,0.0,0.0,0.0,0.0,0.0,0.0,0.0,0.0,0.0,0.0,0.0,0.0,0.0,0.0,0.0,0.0,0.0,0.0,0.8757,1.049,1.0795,1.1091,0.0,0.0,1.2506,1.3772,1.3698,1.3389,1.3171,0.0,0.0,0.0,0.0,0.0,0.0,0.0,0.0,0.0,0.0,0.0,0.0,0.0,0.0,0.0,0.0,0.0,0.0,0.0,0.0,0.0,0.0,0.0,0.0,0.0,0.0,0.0,0.0,0.0,0.0,0.0,0.0,0.0,0.0,0.0,0.0,0.0,0.0,0.0,0.0,0.0,0.0,0.0,0.0,0.0,0.0,0.0,0.0,0.0,0.0,0.0,0.0,0.0,0.3622,0.5242,0.6566,0.8089,0.9791,1.0334,1.0848,1.135,1.104,1.0309,0.0,0.0,0.0,0.0,0.0,0.0,0.0,0.0,0.0,0.0,0.0,0.0,0.0,0.0,0.0,0.0,0.0,0.0,0.0,0.0,0.0,0.0,0.0,0.0,0.0,0.0,0.0,0.0,0.5208,0.4819,0.3471,0.0,0.0,0.0,0.0,0.0,0.0,0.0,0.0,0.0,0.0,0.8556,0.9035,1.0076,0.0,0.0,1.0745,1.1309,1.2428,1.2705,1.2704,1.2422,1.1582,0.0,0.0,0.0,0.0,0.0,0.0,0.0,0.0,0.0,0.0,0.0,0.0,0.0,0.0,0.0,0.0,0.0,0.0,0.0,0.0,0.0,0.0,0.0,0.0,0.0,0.0,0.0,0.0,0.0,0.0,0.0,0.0,0.0,0.0,0.0,0.0,0.0,0.0,0.0,0.0,0.0,0.0,0.0,0.0,0.0,0.0,0.0,0.0,0.0,0.0,0.0,0.0,0.3618,0.5149,0.6617,0.8121,0.962,1.0398,1.0972,1.1297,1.1293,1.0582,0.0,0.0,0.0,0.0,0.0,0.0,0.0,0.0,0.0,0.0,0.0,0.0,0.0,0.0,0.0,0.0,0.0,0.0,0.0,0.0,0.0,0.0,0.0,0.0,0.0,0.0,0.0,0.0,0.5373,0.4773,0.3172,0.0,0.0,0.0,0.0,0.0,0.0,0.0,0.0,0.0,0.0,0.8093,0.8062,0.9313,1.0011,0.9397,0.9747,1.0357,1.1092,1.1604,1.183,1.1432,0.0,0.0,0.0,0.0,0.0,0.0,0.0,0.0,0.0,0.0,0.0,0.0,0.0,0.0,0.0,0.0,0.0,0.0,0.0,0.0,0.0,0.0,0.0,0.0,0.0,0.0,0.0,0.0,0.0,0.0,0.0603,0.0,0.0,0.0,0.0,0.0,0.0,0.0,0.0,0.0,0.0,0.0,0.0,0.0,0.0,0.0,0.0,0.0,0.0,0.0,0.0,0.0,0.0,0.3595,0.4824,0.6486,0.7848,0.8935,0.995,1.0687,1.1094,1.1192,1.0712,0.9689,0.0,0.0,0.0,0.0,0.0,0.0,0.0,0.0,0.0,0.0,0.0,0.0,0.0,0.0,0.0,0.0,0.0,0.0,0.0,0.0,0.0,0.0,0.0,0.0,0.0,0.0,0.6597,0.5227,0.3915,0.0,0.0,0.0,0.0,0.0,0.0,0.0,0.0,0.0,0.0,0.6677,0.7247,0.7807,0.8381,0.868,0.8378,0.9104,0.9727,0.9836,1.0466,1.0706,0.0,0.0,0.0,0.0,0.0,0.0,0.0,0.0,0.0,0.0,0.0,0.0,0.0,0.0,0.0,0.0,0.0,0.0,0.0,0.0,0.0,0.0,0.0,0.0,0.0,0.0,0.0,0.1256,0.1121,0.0,0.0,0.0,0.0,0.0,0.0,0.0,0.0,0.0,0.0,0.0,0.2111,0.205,0.0,0.0,0.0,0.0,0.0,0.0,0.0,0.0,0.0,0.0,0.0,0.0,0.3718,0.5075,0.679,0.8201,0.9204,1.0069,1.0621,1.0814,1.094,1.0461,0.9345,0.0,0.0,0.0,0.0,0.0,0.0,0.0,0.0,0.0,0.0,0.0,0.0,0.0,0.0,0.0,0.0,0.0,0.0,0.0,0.0,0.0,0.0,0.0,0.0,0.0,0.6003,0.0,0.0,0.0,0.0,0.0,0.0,0.0,0.0,0.0,0.0,0.0,0.5548,0.6115,0.6855,0.735,0.7364,0.7862,0.8121,0.0,0.0,0.0,0.0,0.0,0.0,0.0,0.0,0.0,0.0,0.0,0.0,0.0,0.0,1.0941,0.9967,0.9935,1.0083,1.0162,0.0,0.0,0.0,0.0,0.0,0.0,0.0,0.0,0.0,0.0,0.0,0.0,0.0,0.0,0.1653,0.0,0.1382,0.0,0.0,0.0,0.0,0.0,0.0,0.0,0.0,0.2302,0.2533,0.2776,0.273,0.2706,0.0,0.2429,0.2015,0.0,0.0,0.0,0.0,0.0,0.0,0.0,0.0,0.3846,0.5277,0.6892,0.8211,0.9173,0.9935,1.0349,1.0429,1.0499,1.021,0.9549,0.855,0.7818,0.0,0.0,0.0,0.0,0.0,0.0,0.0,0.0,0.0,0.0,0.0,0.0,0.0,0.0,0.0,0.0,0.0,0.0,0.0,0.0,0.0,0.0,0.0,0.5722,0.0,0.0,0.0,0.0,0.0,0.0,0.0,0.0,0.0,0.4888,0.5352,0.5827,0.6305,0.6873,0.7141,0.6988,0.0,0.0,0.0,0.0,0.0,0.0,0.0,0.9633,0.9848,1.0256,1.061,1.0775,1.0291,1.0243,1.1285,0.0,0.0,1.0922,1.0945,1.1146,1.1249,1.1739,1.2214,1.2329,1.2811,1.2986,0.0,0.0,0.0,0.0,0.0,0.0,0.0,0.0,0.2277,0.2284,0.0,0.1893,0.0,0.0,0.0,0.0,0.0,0.1605,0.0,0.0,0.2768,0.2997,0.3302,0.3329,0.3279,0.3154,0.3143,0.3055,0.2851,0.1953,0.0,0.0,0.0,0.0,0.0,0.0,0.3947,0.5394,0.6754,0.7869,0.8781,0.9573,0.9946,0.9907,0.9801,0.9922,1.0215,0.9587,0.914,0.9021,0.8306,0.0,0.0,0.0,0.0,0.0,0.0,0.0,0.0,0.0,0.0,0.0,0.0,0.0,0.0,0.0,0.0,0.0,0.0,0.0,0.0,0.5572,0.0,0.0,0.0,0.0,0.0,0.0,0.0,0.0,0.0,0.0,0.5256,0.5572,0.5977,0.6613,0.0,0.0,0.0,0.0,0.7023,0.6839,0.7201,0.7579,0.7801,0.8654,0.9253,0.9159,0.0,0.0,1.0929,1.1372,1.1626,1.1655,1.2332,1.275,1.2255,1.2224,1.2373,1.2594,1.2906,1.3264,1.3563,1.3836,1.4137,0.0332,0.0,0.0,0.0,0.0,0.1575,0.2143,0.2673,0.2903,0.3024,0.3032,0.2766,0.0,0.0,0.0,0.0,0.0,0.0,0.2853,0.3363,0.3615,0.3809,0.3962,0.3938,0.3911,0.3878,0.3676,0.3585,0.351,0.3117,0.2517,0.181,0.0,0.0,0.0,0.0,0.4401,0.5804,0.7056,0.799,0.8632,0.9248,0.9613,0.9695,0.9423,0.9534,0.9988,0.9913,0.9816,0.9776,0.9133,0.0,0.0,0.0,0.0,0.0,0.0,0.0,0.0,0.0,0.0,0.0,0.0,0.0,0.0,0.0,0.0,0.0,0.0,0.0,0.5374,0.493,0.4446,0.0,0.0,0.0,0.0,0.0,0.0,0.0,0.0,0.0,0.5804,0.6058,0.6368,0.0,0.0,0.6935,0.6775,0.68,0.6849,0.7001,0.7291,0.0,0.0,0.8552,0.9062,0.9401,1.0343,1.1219,1.1694,1.2182,1.2524,1.2524,1.2729,1.2831,1.2714,1.2455,1.2339,1.2499,1.3076,1.3639,1.3866,1.4364,1.4913,0.0121,0.0138,0.0307,0.065,0.1099,0.1773,0.2445,0.3074,0.3342,0.356,0.3698,0.3439,0.322,0.3046,0.2978,0.0,0.0,0.0,0.3562,0.3929,0.4175,0.4299,0.4328,0.4328,0.4328,0.4298,0.4155,0.4083,0.406,0.3875,0.3458,0.281,0.0,0.0,0.2917,0.3708,0.4805,0.6218,0.7352,0.8194,0.8744,0.9079,0.9346,0.9505,0.9367,0.9529,0.9987,1.0265,1.0379,1.037,0.9885,0.9144,0.0,0.0,0.0,0.0,0.0,0.0,0.0,0.0,0.0,0.0,0.0,0.3614,0.0,0.0,0.0,0.0,0.5471,0.5551,0.5556,0.496,0.0,0.0,0.0,0.0,0.0,0.0,0.0,0.4966,0.5418,0.5933,0.6451,0.6683,0.6868,0.7024,0.7126,0.709,0.6842,0.0,0.6972,0.7295,0.7622,0.7949,0.8168,0.8533,0.8988,0.9588,1.0498,1.1293,1.1719,1.2323,1.2798,1.2881,1.2915,1.2915,1.2915,1.2712,1.2591,1.2693,1.3248,1.3734,1.3914,1.4416,1.4949,0.0,0.0,0.0271,0.0659,0.1143,0.1856,0.2563,0.3305,0.3557,0.3873,0.4171,0.3919,0.388,0.394,0.3856,0.0,0.389,0.4068,0.4231,0.4347,0.4471,0.4537,0.4511,0.4508,0.4529,0.4491,0.4491,0.4491,0.4487,0.4328,0.4126,0.3911,0.3219,0.3008,0.3265,0.4035,0.5127,0.6581,0.7583,0.8381,0.8968,0.8985,0.9113,0.9361,0.9465,0.9692,1.0095,1.0474,1.0673,1.0706,1.0461,0.9723,0.8464,0.0,0.0,0.0,0.0,0.0,0.0,0.0,0.0,0.0,0.0,0.0,0.0,0.0,0.0,0.0,0.571,0.0,0.612,0.5524,0.0,0.0,0.0,0.4936,0.5188,0.5514,0.5808,0.6047,0.0,0.0,0.7145,0.7365,0.7445,0.7391,0.7371,0.723,0.6901,0.7058,0.7321,0.7756,0.815,0.8348,0.8295,0.8586,0.9035,0.9658,1.0275,1.0794,1.1276,1.1977,1.2569,1.2783,1.2847,1.2905,1.2915,1.2963,1.3099,1.3106,1.3389,1.3624,1.3742,1.4082,1.4419,0.0,0.0,0.0244,0.0605,0.1068,0.1532,0.2262,0.3132,0.3311,0.3717,0.427,0.4116,0.4117,0.4294,0.418,0.424,0.4478,0.4543,0.4603,0.4756,0.4787,0.4756,0.464,0.4668,0.4604,0.4494,0.4491,0.4491,0.4491,0.4436,0.434,0.4112,0.3857,0.3723,0.3759,0.4383,0.5339,0.6581,0.7551,0.8345,0.8974,0.8904,0.8883,0.8929,0.8962,0.9087,0.9271,0.9465,0.9732,1.0007,0.9782,0.9299,0.851,0.7326,0.0,0.0,0.0,0.0,0.0,0.0,0.0,0.0,0.0,0.3964,0.4477,0.0,0.5474,0.0,0.6121,0.643,0.6411,0.6085,0.0,0.0,0.6035,0.6208,0.6169,0.6595,0.6843,0.6633,0.692,0.7206,0.7476,0.7809,0.8041,0.8129,0.791,0.7643,0.7381,0.7547,0.7922,0.8401,0.8487,0.848,0.8527,0.8738,0.908,0.9588,1.001,1.0539,1.1175,1.1719,1.2141,1.2406,1.2603,1.2774,1.2881,1.2929,1.2964,1.2992,1.3238,1.3443,1.3491,1.3658,1.3881,0.0,0.0,0.0113,0.0371,0.0722,0.1182,0.1838,0.2578,0.2818,0.3309,0.3905,0.4048,0.4284,0.4479,0.4528,0.4696,0.498,0.5014,0.5011,0.4982,0.4985,0.4935,0.4796,0.4792,0.4748,0.4696,0.4696,0.4663,0.4663,0.4624,0.4537,0.4424,0.4135,0.4015,0.4064,0.4529,0.5312,0.6399,0.7674,0.8574,0.9064,0.8829,0.8672,0.854,0.8436,0.8391,0.8462,0.8413,0.8566,0.8927,0.8905,0.8646,0.8156,0.7279,0.6304,0.0,0.0,0.0,0.0,0.0,0.0,0.0,0.0,0.0,0.0,0.0,0.5976,0.6532,0.6872,0.7047,0.7074,0.6884,0.6801,0.6925,0.7198,0.7406,0.7514,0.7707,0.7767,0.752,0.763,0.7803,0.7933,0.82,0.8427,0.856,0.8421,0.8209,0.8002,0.8088,0.8328,0.8732,0.8699,0.8646,0.8685,0.8804,0.9008,0.929,0.9673,1.0146,1.071,1.1267,1.1719,1.2017,1.2471,1.2808,1.2798,1.2847,1.2915,1.2929,1.3041,1.3166,1.3166,1.3272,1.344,0.0,0.0,0.0,0.0079,0.0315,0.0753,0.1288,0.1865,0.2195,0.2699,0.3308,0.3849,0.4248,0.4537,0.4865,0.5129,0.5322,0.541,0.5345,0.5187,0.5184,0.51,0.4945,0.4975,0.4958,0.4921,0.4918,0.4918,0.4884,0.4756,0.4721,0.4711,0.4305,0.4143,0.4248,0.4545,0.5226,0.6341,0.788,0.8799,0.913,0.8796,0.8486,0.8182,0.7952,0.7771,0.7709,0.7493,0.7513,0.7767,0.7993,0.797,0.7685,0.7254,0.6667,0.0,0.5276,0.0,0.0,0.0,0.0,0.0,0.0,0.0,0.0,0.6195,0.6701,0.7688,0.7772,0.7815,0.7973,0.7779,0.7791,0.8139,0.8325,0.8558,0.8789,0.8763,0.858,0.8319,0.8254,0.8268,0.8335,0.8501,0.8633,0.8692,0.8699,0.8613,0.854,0.8513,0.8593,0.8778,0.8778,0.8778,0.8778,0.8778,0.8857,0.9008,0.9309,0.9692,1.0095,1.0735,1.1293,1.1685,1.2323,1.2774,1.2725,1.2822,1.2915,1.2915,1.2929,1.2929,1.2929,1.3002,1.3075,0.0,0.0,0.0,0.0,0.004,0.016,0.0702,0.1504,0.1579,0.2004,0.2693,0.3308,0.3742,0.4145,0.4668,0.5123,0.548,0.5661,0.5701,0.5674,0.5674,0.5535,0.532,0.531,0.5184,0.4928,0.4918,0.4918,0.4918,0.4891,0.4874,0.4844,0.4663,0.4567,0.4512,0.0,0.0,0.0,0.7902,0.8493,0.8798,0.8764,0.8522,0.7988,0.79,0.0,0.7339,0.7261,0.7202,0.7182,0.743,0.0,0.0,0.0,0.0,0.0,0.0,0.0,0.0,0.0,0.0,0.0,0.7376,0.7278,0.686,0.7443,0.8079,0.8591,0.8645,0.8749,0.8997,0.8978,0.9019,0.9192,0.9441,0.9472,0.9197,0.9157,0.8962,0.8365,0.8329,0.8328,0.8307,0.8448,0.8573,0.8507,0.848,0.8507,0.858,0.8666,0.8752,0.8778,0.8798,0.8785,0.8778,0.8791,0.8851,0.8989,0.914,0.9413,0.9795,1.0241,1.0786,1.1293,1.1943,1.2529,1.2774,1.2905,1.2905,1.2915,1.2915,1.2915,1.2915,1.2929,1.3017,0.0,0.0,0.0,0.0,0.0,0.0,0.0327,0.0838,0.0974,0.1379,0.208,0.2568,0.3095,0.3622,0.4244,0.4777,0.5182,0.5515,0.5627,0.5663,0.5767,0.5725,0.561,0.5614,0.5498,0.5359,0.5322,0.5318,0.525,0.5176,0.5098,0.4992,0.4795,0.4711,0.4753,0.498,0.5661,0.6789,0.7618,0.8167,0.8374,0.8518,0.8358,0.7923,0.0,0.0,0.0,0.0,0.0,0.0,0.0,0.0,0.0,0.0,0.0,0.7583,0.7362,0.7331,0.757,0.7804,0.8003,0.826,0.8468,0.8367,0.787,0.8498,0.8985,0.919,0.926,0.9348,0.9456,0.9499,0.9564,0.9768,0.9913,0.9925,0.976,0.965,0.9432,0.9061,0.8817,0.8639,0.8496,0.8545,0.8527,0.8421,0.8395,0.8448,0.8573,0.8659,0.8758,0.8958,0.8991,0.8991,0.8991,0.8998,0.8951,0.8931,0.9008,0.9211,0.9543,0.9821,1.0216,1.0812,1.1603,1.2323,1.2676,1.2774,1.2832,1.2881,1.2915,1.2915,1.2915,1.2915,1.2978,0.0,0.0,0.0,0.0,0.0,0.0,0.0085,0.0252,0.0,0.0,0.0,0.1907,0.2455,0.3069,0.3742,0.4308,0.4744,0.5169,0.5374,0.5414,0.5626,0.5686,0.5696,0.5729,0.5755,0.5767,0.5764,0.5739,0.5627,0.5508,0.5335,0.5177,0.4938,0.4869,0.5019,0.5392,0.5811,0.6264,0.7249,0.784,0.8042,0.8234,0.8234,0.7989,0.7782,0.7587,0.7442,0.7226,0.7068,0.7051,0.7302,0.7588,0.7922,0.8009,0.8184,0.8596,0.8472,0.8539,0.8849,0.8741,0.8771,0.9045,0.9071,0.8999,0.8779,0.9237,0.958,0.964,0.9751,0.9804,0.9869,0.9869,0.9927,1.0174,1.0194,1.0201,1.0274,1.0053,0.9834,0.968,0.9298,0.8991,0.8775,0.8699,0.8546,0.8354,0.8268,0.84,0.8585,0.8725,0.8837,0.911,0.9231,0.9271,0.919,0.917,0.9098,0.8858,0.8877,0.9061,0.929,0.9413,0.9699,1.0223,1.1267,1.2076,1.2495,1.2666,1.2749,1.2881,1.2915,1.2915,1.2915,1.2915,1.2929,0.0,0.0,0.0,0.0,0.0,0.0,0.0043,0.0084,0.0418,0.0793,0.1126,0.15,0.2059,0.2708,0.3301,0.3934,0.4479,0.4699,0.492,0.5068,0.5301,0.5322,0.5216,0.5544,0.5668,0.5561,0.5734,0.5789,0.5759,0.5627,0.5545,0.5508,0.5372,0.5308,0.5361,0.551,0.565,0.5745,0.6935,0.7649,0.784,0.8296,0.8524,0.844,0.8526,0.8519,0.8315,0.8294,0.8145,0.7931,0.8163,0.8383,0.8549,0.8732,0.8932,0.9186,0.9377,0.9487,0.9556,0.9593,0.9517,0.9257,0.9102,0.9029,0.9059,0.9463,0.9882,1.0121,1.0189,1.0284,1.0434,1.0445,1.0445,1.0512,1.0519,1.0451,1.0333,1.0104,0.9873,0.9751,0.9551,0.924,0.8821,0.8756,0.8601,0.8156,0.8201,0.8207,0.8701,0.8979,0.913,0.9237,0.9466,0.9492,0.9304,0.9217,0.9111,0.8858,0.8804,0.891,0.912,0.9061,0.9185,0.964,1.0871,1.1843,1.2421,1.2627,1.2735,1.2866,1.2915,1.2915,1.2915,1.2915,1.2929,0.0,0.0,0.0,0.0,0.0,0.0,0.0,0.0,0.0175,0.0388,0.0632,0.0926,0.138,0.1904,0.2523,0.3002,0.3456,0.4025,0.4308,0.443,0.4756,0.4932,0.5034,0.5246,0.5497,0.5669,0.578,0.5892,0.5925,0.5821,0.5789,0.5701,0.559,0.5481,0.5399,0.5521,0.5583,0.5617,0.6568,0.7121,0.7319,0.7965,0.8399,0.854,0.8765,0.8918,0.8931,0.8925,0.8868,0.8742,0.8884,0.9052,0.934,0.9432,0.9657,0.9988,1.0133,1.0143,1.0018,0.9597,0.9113,0.8484,0.8269,0.8195,0.8244,0.9044,0.9626,0.9849,1.004,1.0212,1.0428,1.053,1.0586,1.0586,1.0586,1.0555,1.0453,1.036,1.0236,1.0186,0.9986,0.9695,0.9353,0.9077,0.8888,0.8661,0.8714,0.8883,0.9153,0.9475,0.9684,0.9697,0.9826,0.978,0.9539,0.9451,0.9292,0.8891,0.8785,0.8837,0.8917,0.8831,0.9028,0.9536,1.0643,1.1644,1.2348,1.252,1.2686,1.2866,1.2915,1.2915,1.2915,1.2915,1.2954,0.0,0.0,0.0,0.0,0.0,0.0,0.0,0.0,0.0,0.0088,0.0257,0.047,0.0809,0.127,0.1736,0.211,0.2435,0.3062,0.3439,0.3566,0.4028,0.4362,0.4645,0.4897,0.5265,0.5702,0.5891,0.6006,0.6031,0.606,0.5983,0.581,0.5691,0.5562,0.545,0.554,0.5589,0.5587,0.6181,0.6642,0.6909,0.7715,0.8351,0.8751,0.9059,0.9339,0.9577,0.96,0.9606,0.96,0.9606,0.974,1.0017,1.0067,1.023,1.0621,1.0693,1.056,1.0231,0.9444,0.8624,0.7821,0.7598,0.7503,0.7565,0.8389,0.9091,0.9318,0.962,0.9958,1.0206,1.0403,1.0561,1.0593,1.0586,1.0586,1.0586,1.0586,1.0586,1.0559,1.0385,1.0133,0.9879,0.9499,0.924,0.9273,0.9424,0.9502,0.9617,0.9873,1.0083,1.02,1.0214,1.0053,0.9802,0.9679,0.9426,0.8905,0.8778,0.8804,0.8811,0.8804,0.9061,0.9647,1.0574,1.1494,1.2224,1.248,1.2612,1.2832,1.2915,1.2915,1.2915,1.2915,1.2978,0.0,0.0,0.0,0.0,0.0,0.0,0.0,0.0,0.0,0.0,0.0,0.0312,0.0661,0.0998,0.1083,0.1329,0.1685,0.1807,0.2019,0.2399,0.2814,0.3317,0.3787,0.4606,0.5139,0.5391,0.5912,0.6156,0.6102,0.6227,0.6095,0.5833,0.5789,0.5715,0.5583,0.56,0.5535,0.5428,0.5789,0.6284,0.6913,0.7762,0.8527,0.9233,0.966,1.0103,1.041,1.0474,1.0474,1.0474,1.0468,1.0488,1.0521,1.0521,1.0648,1.0929,1.0955,1.0697,1.0046,0.932,0.8633,0.8014,0.7654,0.7522,0.7517,0.7757,0.8198,0.8799,0.9195,0.953,0.9951,1.0212,1.0403,1.0593,1.0586,1.0586,1.0586,1.0586,1.0586,1.0586,1.0539,1.0396,1.001,0.9849,0.9665,0.9411,0.9538,0.9682,0.9859,1.0029,1.0241,1.0466,1.0539,1.0298,0.9889,0.9715,0.9446,0.8931,0.8778,0.8778,0.8778,0.8831,0.9008,0.9732,1.0659,1.1469,1.1968,1.2332,1.2588,1.2832,1.2915,1.2915,1.2915,1.2915,1.2968,0.0,0.0,0.0,0.0,0.0,0.0,0.0,0.0,0.0,0.0,0.0,0.0135,0.0268,0.0399,0.0576,0.0749,0.0917,0.118,0.1442,0.1748,0.2271,0.2796,0.3403,0.3961,0.4538,0.4999,0.5488,0.5844,0.6075,0.6384,0.6409,0.6139,0.6108,0.5956,0.5739,0.5715,0.5684,0.5658,0.6017,0.6439,0.6932,0.7659,0.8468,0.9236,0.976,1.0206,1.0561,1.0586,1.0586,1.0606,1.0754,1.0847,1.0822,1.0982,1.1122,1.1209,1.1047,1.0691,1.0084,0.9351,0.8614,0.7974,0.7588,0.7451,0.7548,0.7504,0.7789,0.8604,0.8942,0.9285,0.981,1.0149,1.0403,1.0561,1.0586,1.0593,1.0586,1.0593,1.0586,1.0586,1.0586,1.0553,1.0383,1.0319,1.0162,0.989,0.9976,1.0172,1.0299,1.035,1.0428,1.0553,1.0586,1.0425,1.0013,0.978,0.9519,0.9172,0.8918,0.8811,0.8791,0.8778,0.9008,0.9647,1.0574,1.1402,1.2002,1.2308,1.2588,1.2808,1.2915,1.2915,1.2915,1.2915,1.2968,0.0,0.0,0.0,0.0,0.0,0.0,0.0,0.0,0.0,0.0,0.0,0.0,0.0,0.0,0.0227,0.0272,0.0319,0.0639,0.1004,0.1369,0.187,0.251,0.3231,0.3705,0.4154,0.4664,0.5054,0.5535,0.6005,0.6379,0.6508,0.64,0.6378,0.6228,0.5949,0.5895,0.584,0.5832,0.6187,0.658,0.7013,0.7639,0.8431,0.9255,0.9806,1.0258,1.0626,1.0665,1.0665,1.0737,1.0896,1.1049,1.1116,1.1309,1.1422,1.1509,1.1351,1.0933,1.0408,0.9727,0.9047,0.8435,0.8002,0.7848,0.7974,0.7803,0.802,0.8806,0.9095,0.9406,0.9798,1.0184,1.0477,1.0633,1.0665,1.0665,1.0711,1.0677,1.0656,1.0713,1.0653,1.0586,1.0586,1.0573,1.0454,1.0307,1.0408,1.0586,1.0586,1.0579,1.0579,1.0586,1.0586,1.0466,1.0167,0.9967,0.9679,0.9412,0.9145,0.8931,0.8878,0.8858,0.8982,0.9621,1.0498,1.1242,1.1828,1.22,1.2603,1.2808,1.2915,1.2915,1.2915,1.2915,1.3002,0.0,0.0,0.0,0.0,0.0,0.0,0.0,0.0,0.0,0.0,0.0,0.0,0.0,0.0,0.0,0.0,0.0,0.0,0.0521,0.1232,0.1705,0.2468,0.3465,0.3908,0.4189,0.4406,0.4775,0.5393,0.6159,0.6288,0.645,0.6637,0.659,0.6436,0.6279,0.6101,0.5915,0.5897,0.6244,0.6651,0.7176,0.7725,0.8453,0.9282,0.9883,1.0321,1.0703,1.0795,1.085,1.1062,1.1047,1.1163,1.1334,1.1368,1.1514,1.1795,1.188,1.1656,1.1082,1.0587,1.0108,0.9562,0.9113,0.8992,0.9135,0.882,0.8891,0.9478,0.9663,0.9849,0.995,1.0224,1.0533,1.0669,1.0769,1.0825,1.1009,1.0829,1.083,1.0883,1.0747,1.0606,1.0586,1.0586,1.0579,1.0546,1.0573,1.0586,1.0586,1.0586,1.0586,1.0586,1.0573,1.0492,1.0194,1.006,0.9933,0.9713,0.9411,0.9205,0.9091,0.9052,0.923,0.955,1.0198,1.0888,1.1569,1.2116,1.2569,1.2822,1.2881,1.2915,1.2915,1.2915,1.3002,0.0,0.0,0.0,0.0,0.0,0.0,0.0,0.0,0.0,0.0,0.0,0.0,0.0,0.0,0.0,0.0,0.0,0.0,0.0429,0.1192,0.1715,0.2476,0.3428,0.3782,0.3912,0.4043,0.4297,0.5009,0.6022,0.6537,0.6815,0.6927,0.6795,0.6692,0.6542,0.639,0.6281,0.6294,0.6578,0.6863,0.7147,0.7722,0.8306,0.8943,0.954,0.9989,1.0217,1.0355,1.0459,1.0528,1.073,1.0893,1.0983,1.1133,1.1301,1.1511,1.1465,1.1372,1.126,1.0887,1.0625,1.0368,0.9992,0.9836,0.9949,0.9722,0.9573,0.975,0.9852,0.9809,0.9669,0.9834,1.009,1.0217,1.0361,1.0547,1.0826,1.0915,1.0967,1.0936,1.0774,1.0593,1.0626,1.0593,1.0586,1.0586,1.0586,1.0586,1.0586,1.0586,1.0586,1.0586,1.0586,1.0559,1.0472,1.0221,1.0053,0.9933,0.9733,0.9516,0.9382,0.9032,0.9088,0.9844,1.0355,1.0939,1.1769,1.2348,1.2749,1.2822,1.2915,1.2915,1.2915,1.2915,1.3002,0.0,0.0,0.0,0.0,0.0,0.0,0.0,0.0,0.0,0.0,0.0,0.0,0.0,0.0,0.0,0.0,0.0,0.0,0.0583,0.1359,0.1941,0.2717,0.3539,0.3668,0.3657,0.3599,0.3769,0.4565,0.5837,0.6517,0.6978,0.724,0.7058,0.6903,0.6827,0.6651,0.6586,0.6615,0.6761,0.6935,0.7143,0.7508,0.7906,0.8337,0.887,0.9443,0.9862,1.0076,1.026,1.042,1.0605,1.0736,1.0754,1.083,1.0962,1.1074,1.1037,1.1074,1.1192,1.1074,1.0999,1.0999,1.07,1.0588,1.0743,1.0336,1.0105,1.003,0.9765,0.9506,0.9223,0.9191,0.9407,0.9724,0.9975,1.0325,1.081,1.0994,1.1093,1.1129,1.0995,1.0901,1.0861,1.0787,1.0754,1.0734,1.066,1.0593,1.0586,1.0586,1.0586,1.0586,1.0586,1.0586,1.0546,1.0381,1.0307,1.02,1.011,0.9879,0.9727,0.9323,0.939,1.0128,1.0748,1.1327,1.1927,1.2505,1.2783,1.2881,1.2915,1.2915,1.2915,1.2915,1.3017,0.0,0.0,0.0,0.0,0.0,0.0,0.0,0.0,0.0,0.0,0.0,0.0,0.0,0.0,0.0,0.0,0.0,0.0351,0.0853,0.1605,0.236,0.3164,0.386,0.3657,0.3336,0.3136,0.3321,0.4195,0.5586,0.6233,0.6829,0.7396,0.7253,0.7122,0.7098,0.6878,0.6715,0.6719,0.6792,0.6904,0.7096,0.7208,0.7353,0.7561,0.7957,0.8694,0.9728,1.0029,1.0269,1.0611,1.0703,1.0769,1.0634,1.0507,1.0438,1.0475,1.0625,1.0738,1.0812,1.1111,1.1298,1.1372,1.1223,1.1149,1.1186,1.0706,1.0299,1.018,0.9609,0.9008,0.8742,0.859,0.8755,0.9458,0.9723,1.0204,1.0818,1.1076,1.1114,1.1345,1.1363,1.141,1.1349,1.1116,1.0942,1.0895,1.0754,1.0586,1.0586,1.0586,1.0586,1.0586,1.0586,1.0586,1.0586,1.0579,1.0573,1.0557,1.0435,1.0317,1.0376,1.0158,1.0272,1.0866,1.1311,1.1863,1.2166,1.2691,1.2808,1.2915,1.2915,1.2915,1.2915,1.2929,1.3055,0.0,0.0,0.0,0.0,0.0,0.0,0.0,0.0,0.0,0.0,0.0,0.0,0.0,0.0,0.0151,0.0252,0.0353,0.0909,0.1363,0.1715,0.2422,0.3128,0.3578,0.3609,0.3249,0.2798,0.3279,0.4056,0.5076,0.6047,0.6879,0.7324,0.746,0.7461,0.7431,0.7166,0.696,0.6973,0.6961,0.6955,0.7019,0.7082,0.7158,0.7226,0.751,0.8021,0.8637,0.9241,0.9695,0.9997,1.0105,1.0067,0.9771,0.9425,0.9344,0.9458,0.9533,0.983,1.0363,1.0781,1.1192,1.1484,1.1515,1.1558,1.1521,1.1043,1.0443,0.9992,0.9349,0.8818,0.8255,0.8178,0.8408,0.8746,0.9316,1.003,1.0826,1.1362,1.1608,1.1695,1.155,1.1443,1.139,1.1196,1.1049,1.0989,1.0794,1.0613,1.0593,1.0586,1.0586,1.0586,1.0586,1.0586,1.0586,1.0586,1.0586,1.0649,1.0646,1.0732,1.0852,1.1226,1.1319,1.145,1.1893,1.2206,1.2529,1.274,1.2856,1.2915,1.2915,1.2915,1.2915,1.2978,1.3055,0.0202,0.0303,0.0202,0.0151,0.0151,0.005,0.0,0.0,0.0,0.0,0.0,0.0,0.0,0.0,0.0303,0.0404,0.0505,0.1212,0.1566,0.1765,0.2573,0.313,0.3383,0.3127,0.2773,0.2473,0.2976,0.383,0.483,0.5968,0.6868,0.7388,0.7609,0.7675,0.7658,0.7441,0.7292,0.72,0.7116,0.7003,0.6968,0.6962,0.6936,0.6951,0.7167,0.7514,0.788,0.8632,0.9279,0.9614,0.9771,0.9656,0.9389,0.8899,0.8617,0.8726,0.8852,0.914,0.9799,1.0395,1.0938,1.144,1.1669,1.1744,1.1669,1.126,1.0588,1.003,0.9425,0.8818,0.8289,0.8255,0.8403,0.8627,0.9165,0.9922,1.0826,1.1633,1.1972,1.1997,1.1877,1.177,1.1697,1.1503,1.1276,1.1156,1.0902,1.068,1.064,1.0586,1.0593,1.0593,1.0586,1.0586,1.0586,1.0586,1.0586,1.0681,1.078,1.1002,1.1189,1.2018,1.2424,1.2185,1.2408,1.2333,1.2603,1.2774,1.2915,1.2915,1.2915,1.2915,1.2915,1.2915,1.2992,0.0556,0.0758,0.0556,0.0455,0.0404,0.0151,0.0,0.0,0.0,0.0,0.0,0.0,0.0,0.0,0.0303,0.0455,0.0606,0.1263,0.1667,0.1919,0.2575,0.313,0.3079,0.2573,0.227,0.2222,0.2725,0.3578,0.4684,0.5874,0.6789,0.7412,0.7648,0.7824,0.7794,0.7678,0.7533,0.7407,0.7234,0.7078,0.6959,0.6793,0.6699,0.661,0.694,0.7304,0.7706,0.8499,0.9219,0.9776,0.9721,0.9602,0.9399,0.8739,0.8275,0.829,0.8464,0.8756,0.927,1.0048,1.0788,1.1419,1.174,1.1832,1.199,1.1608,1.1073,1.0568,0.9915,0.9283,0.8937,0.8904,0.9048,0.9185,0.9559,1.0186,1.1254,1.1953,1.2215,1.2271,1.2291,1.2285,1.2204,1.1964,1.171,1.1483,1.1196,1.0942,1.0754,1.0687,1.0626,1.0633,1.068,1.0586,1.0586,1.0586,1.0586,1.0649,1.0839,1.118,1.1665,1.2519,1.3207,1.2992,1.2789,1.2692,1.265,1.2861,1.293,1.2915,1.2915,1.2915,1.2915,1.2915,1.2954,0.0859,0.1061,0.101,0.0859,0.0657,0.0404,0.0151,0.0,0.0,0.0,0.0,0.0,0.0,0.0,0.0505,0.0707,0.0859,0.1516,0.192,0.1971,0.2373,0.2725,0.2876,0.2725,0.2472,0.2423,0.3177,0.3882,0.4334,0.5737,0.6637,0.6995,0.7651,0.7924,0.7907,0.7824,0.7743,0.7665,0.7434,0.7299,0.7221,0.6997,0.6858,0.6852,0.7116,0.7482,0.7955,0.8961,0.9635,0.9846,0.971,0.9462,0.9162,0.8483,0.802,0.7908,0.7954,0.8299,0.9063,0.9878,1.0761,1.1682,1.2123,1.2427,1.2655,1.2264,1.1742,1.123,1.0637,1.0179,0.9866,1.0015,1.0347,1.0798,1.0737,1.0923,1.1632,1.2077,1.2305,1.2305,1.2305,1.2305,1.2251,1.2078,1.1886,1.171,1.149,1.1243,1.1022,1.0775,1.0754,1.0802,1.0815,1.068,1.0586,1.0586,1.0618,1.0649,1.0902,1.1303,1.1958,1.2826,1.3407,1.3642,1.3402,1.3269,1.3067,1.3055,1.3007,1.3003,1.2915,1.2915,1.2915,1.2915,1.2968,0.1414,0.1817,0.1615,0.1363,0.106,0.0606,0.0303,0.0202,0.0151,0.0303,0.0455,0.0353,0.0404,0.0505,0.0707,0.0808,0.0909,0.1414,0.1566,0.1516,0.1768,0.207,0.2373,0.2523,0.2522,0.2573,0.3632,0.4185,0.4585,0.5837,0.6639,0.7092,0.764,0.7988,0.7978,0.7911,0.782,0.7794,0.7631,0.7533,0.7451,0.7241,0.7045,0.7097,0.73,0.7693,0.8321,0.9037,0.9647,0.9946,0.9795,0.9381,0.891,0.8317,0.7869,0.7639,0.7777,0.8261,0.8971,0.994,1.0922,1.1784,1.2412,1.277,1.2916,1.273,1.2326,1.1942,1.1502,1.118,1.1025,1.1186,1.1603,1.1977,1.1971,1.1891,1.2048,1.215,1.2268,1.2305,1.2305,1.2305,1.2305,1.2144,1.2011,1.1877,1.1724,1.155,1.139,1.1109,1.0922,1.1015,1.0882,1.0687,1.0606,1.0606,1.0785,1.0817,1.1375,1.1733,1.236,1.3161,1.3483,1.3824,1.3842,1.3812,1.362,1.34,1.3266,1.3193,1.3027,1.29,1.2915,1.2915,1.2968,0.2169,0.2775,0.2371,0.1967,0.1614,0.0858,0.0556,0.0505,0.0555,0.0858,0.1162,0.101,0.101,0.1212,0.096,0.0859,0.0808,0.1061,0.1013,0.1065,0.1219,0.1575,0.2032,0.2527,0.2724,0.2925,0.3934,0.4537,0.5087,0.6142,0.6842,0.7191,0.769,0.7988,0.7988,0.7978,0.7914,0.7868,0.7797,0.7712,0.7611,0.7455,0.7309,0.7207,0.7454,0.7916,0.8401,0.8848,0.9279,1.0213,0.9815,0.9266,0.8746,0.8156,0.7821,0.7701,0.7967,0.8395,0.911,1.0248,1.1272,1.2032,1.2671,1.3054,1.3247,1.3159,1.2911,1.2715,1.236,1.218,1.218,1.2299,1.2508,1.279,1.2896,1.2616,1.2295,1.228,1.2378,1.2318,1.2318,1.2351,1.2311,1.2285,1.2204,1.2064,1.1937,1.1884,1.1784,1.1643,1.1423,1.1289,1.1015,1.0646,1.0626,1.0633,1.0844,1.1094,1.1934,1.2449,1.29,1.3448,1.3617,1.3838,1.426,1.4352,1.4163,1.3938,1.3662,1.3389,1.3223,1.3037,1.29,1.2915,1.2954,0.2775,0.313,0.3226,0.2822,0.217,0.1615,0.1212,0.1061,0.1262,0.1563,0.1765,0.1765,0.1665,0.1564,0.1262,0.101,0.0859,0.086,0.0814,0.0877,0.1084,0.1341,0.1952,0.2797,0.343,0.3831,0.4784,0.5236,0.5489,0.6242,0.6845,0.6995,0.764,0.7988,0.7988,0.7988,0.7978,0.7924,0.7833,0.7811,0.7756,0.7624,0.7472,0.7357,0.7613,0.8003,0.8403,0.8603,0.8776,0.8914,0.8985,0.8759,0.8355,0.8029,0.7848,0.7878,0.8069,0.8655,0.962,1.0626,1.1699,1.2631,1.3185,1.3638,1.3853,1.3647,1.3528,1.3423,1.3255,1.3115,1.322,1.3121,1.3207,1.3358,1.33,1.3127,1.2975,1.2967,1.2786,1.2512,1.2525,1.261,1.2351,1.2338,1.2278,1.2211,1.2191,1.2184,1.2131,1.2064,1.185,1.159,1.1336,1.1028,1.092,1.1018,1.1335,1.1704,1.2482,1.31,1.3553,1.3891,1.4065,1.4451,1.4925,1.4849,1.464,1.428,1.3984,1.3701,1.3457,1.332,1.3193,1.3066,1.3018,0.3128,0.3581,0.3731,0.3377,0.2772,0.2321,0.202,0.1868,0.2218,0.267,0.2972,0.2922,0.2722,0.2621,0.1816,0.1262,0.0962,0.0714,0.062,0.0786,0.1261,0.1882,0.2485,0.3589,0.4374,0.4343,0.5386,0.5837,0.6039,0.6642,0.7197,0.7194,0.7743,0.7988,0.7988,0.7988,0.7988,0.7978,0.7917,0.787,0.7847,0.7773,0.767,0.7545,0.7687,0.789,0.8201,0.8237,0.8197,0.8133,0.8158,0.8151,0.7989,0.7848,0.7848,0.7896,0.8464,0.9074,1.0072,1.1154,1.218,1.3009,1.3568,1.387,1.4039,1.3955,1.3913,1.387,1.3815,1.3779,1.3864,1.3814,1.3736,1.3786,1.3714,1.3621,1.3581,1.3387,1.312,1.2826,1.2886,1.2779,1.2639,1.2492,1.2358,1.2342,1.2258,1.2251,1.2251,1.2178,1.2051,1.1879,1.1657,1.1471,1.1296,1.1456,1.1867,1.2424,1.319,1.3672,1.4064,1.4345,1.4606,1.4937,1.5243,1.5255,1.5011,1.464,1.4394,1.4258,1.4043,1.376,1.3545,1.3447,1.3406,0.3328,0.3982,0.4083,0.388,0.3376,0.3176,0.2924,0.2822,0.3274,0.3925,0.4379,0.4029,0.388,0.3629,0.2319,0.1515,0.102,0.0776,0.0579,0.0801,0.1765,0.2382,0.3136,0.4295,0.5014,0.4493,0.5837,0.6437,0.6689,0.7194,0.7494,0.7593,0.7839,0.7988,0.7988,0.7988,0.7988,0.7985,0.7975,0.7968,0.7958,0.7899,0.7811,0.7709,0.7692,0.7724,0.7867,0.7882,0.7763,0.7498,0.7494,0.7439,0.7507,0.768,0.79,0.7896,0.8684,0.9559,1.0424,1.1585,1.2577,1.3094,1.3701,1.4046,1.4088,1.4082,1.4046,1.4088,1.4046,1.4046,1.4088,1.4055,1.4062,1.4062,1.4075,1.4088,1.4001,1.3627,1.3407,1.3273,1.3213,1.31,1.2859,1.2697,1.2556,1.2429,1.2338,1.2305,1.2305,1.2285,1.2158,1.2147,1.1944,1.1623,1.143,1.1854,1.2235,1.2983,1.3779,1.4363,1.473,1.5204,1.5497,1.5228,1.5379,1.5371,1.5332,1.5068,1.4863,1.4795,1.4551,1.4189,1.3975,1.3828,1.3769,0.3528,0.3729,0.4636,0.4688,0.4234,0.4131,0.4128,0.4178,0.4628,0.5081,0.5334,0.5037,0.4686,0.4029,0.267,0.1475,0.0827,0.0789,0.1017,0.1303,0.2229,0.2909,0.3604,0.4854,0.5495,0.5917,0.6639,0.7039,0.7141,0.7394,0.7646,0.7646,0.7842,0.7988,0.7988,0.7988,0.7988,0.7988,0.7988,0.7988,0.7975,0.7941,0.7892,0.7794,0.7698,0.7676,0.7655,0.7645,0.7561,0.7444,0.7427,0.7306,0.7317,0.7469,0.7764,0.8201,0.8903,0.9777,1.0814,1.18,1.2662,1.3264,1.3828,1.4046,1.4088,1.4088,1.4088,1.4088,1.4088,1.4088,1.4088,1.4088,1.4088,1.4088,1.4088,1.4088,1.4104,1.3948,1.3768,1.3614,1.3487,1.3373,1.3133,1.2904,1.2717,1.2498,1.2358,1.2318,1.2305,1.2305,1.2271,1.2251,1.2245,1.187,1.1503,1.2075,1.2669,1.3438,1.4279,1.5196,1.5674,1.627,1.6398,1.5702,1.5419,1.5391,1.5352,1.5293,1.5166,1.4971,1.4766,1.457,1.4414,1.4275,1.4126,0.3327,0.388,0.4836,0.514,0.5085,0.5336,0.5334,0.5336,0.5787,0.6187,0.6187,0.5892,0.5388,0.463,0.3024,0.1639,0.1051,0.1339,0.1688,0.2152,0.304,0.3835,0.4307,0.5499,0.6236,0.6751,0.7334,0.7494,0.7441,0.7693,0.7796,0.7842,0.7939,0.7988,0.7988,0.7988,0.7988,0.7988,0.7988,0.7988,0.7988,0.7988,0.7907,0.7831,0.775,0.7678,0.7604,0.7597,0.7567,0.7489,0.746,0.7339,0.731,0.746,0.7771,0.8428,0.9174,1.0081,1.1068,1.2015,1.279,1.3349,1.3835,1.4088,1.4088,1.4088,1.4115,1.4095,1.4088,1.4088,1.4088,1.4088,1.4088,1.4088,1.4088,1.4088,1.4088,1.4088,1.3988,1.3868,1.3834,1.3674,1.338,1.312,1.2904,1.2639,1.2418,1.2345,1.2318,1.2305,1.2305,1.2305,1.2298,1.2138,1.1888,1.238,1.2992,1.379,1.463,1.5562,1.62,1.6624,1.6249,1.5564,1.543,1.5576,1.54,1.5352,1.5244,1.5166,1.5078,1.4971,1.4862,1.4741,1.4641,0.3026,0.3981,0.4989,0.5489,0.5837,0.6334,0.6439,0.6389,0.6742,0.7042,0.7194,0.6567,0.5977,0.512,0.3525,0.1975,0.1232,0.2012,0.2533,0.3011,0.3855,0.4657,0.5235,0.602,0.6705,0.7115,0.7655,0.7869,0.7746,0.7892,0.7988,0.7988,0.7988,0.7988,0.7988,0.7988,0.7988,0.7988,0.7988,0.7988,0.7988,0.7982,0.7941,0.7823,0.781,0.7807,0.7733,0.7726,0.7695,0.7631,0.7543,0.7487,0.7412,0.7482,0.7904,0.8645,0.9486,1.0396,1.1272,1.2241,1.3004,1.3482,1.3926,1.4139,1.4229,1.4289,1.4331,1.4195,1.4188,1.4148,1.4108,1.4088,1.4088,1.4088,1.4088,1.4088,1.4088,1.4088,1.4088,1.4041,1.4088,1.3895,1.3567,1.3394,1.314,1.2811,1.2583,1.2392,1.2358,1.2311,1.2305,1.2305,1.2305,1.2342,1.241,1.2703,1.3302,1.3978,1.4822,1.5754,1.6304,1.6745,1.6262,1.5904,1.5838,1.5947,1.5693,1.543,1.5342,1.5312,1.5381,1.5361,1.5232,1.5276,1.5267,0.3077,0.3778,0.5286,0.6039,0.6387,0.6886,0.7089,0.7098,0.7356,0.7497,0.7588,0.7056,0.6387,0.5276,0.3571,0.2461,0.2388,0.2735,0.3314,0.3691,0.4311,0.4722,0.4928,0.5671,0.6515,0.7159,0.7648,0.785,0.7949,0.8019,0.7988,0.7988,0.7988,0.7988,0.7988,0.7988,0.7988,0.7988,0.7988,0.7988,0.7988,0.7988,0.7975,0.7958,0.7944,0.7928,0.7884,0.7874,0.7899,0.779,0.7767,0.7624,0.7473,0.7584,0.811,0.8787,0.9597,1.0439,1.1418,1.2445,1.3286,1.376,1.4202,1.4382,1.4509,1.4643,1.4676,1.4482,1.4469,1.4355,1.4195,1.4115,1.4095,1.4088,1.4088,1.4088,1.4088,1.4088,1.4088,1.4088,1.4088,1.3935,1.3646,1.3527,1.3407,1.3058,1.2723,1.2563,1.2392,1.2331,1.2385,1.2422,1.2415,1.2452,1.2746,1.3083,1.3622,1.423,1.5054,1.5912,1.6444,1.6872,1.6949,1.6677,1.6556,1.6239,1.5908,1.5674,1.5498,1.542,1.542,1.5517,1.5623,1.5737,1.5928,0.3379,0.4381,0.5536,0.6442,0.7092,0.749,0.7688,0.7854,0.7917,0.8014,0.7981,0.7364,0.6349,0.496,0.3698,0.3308,0.3335,0.3804,0.4278,0.4526,0.4868,0.5127,0.5424,0.5814,0.6414,0.7152,0.7697,0.8059,0.8156,0.8069,0.7988,0.7995,0.7988,0.7988,0.7988,0.7988,0.7988,0.7988,0.7988,0.7988,0.7988,0.7988,0.7988,0.7988,0.7988,0.7988,0.7988,0.7985,0.7965,0.7877,0.7875,0.7767,0.7678,0.7783,0.8144,0.8748,0.9954,1.0961,1.1914,1.2806,1.3562,1.4142,1.4542,1.477,1.4841,1.4928,1.5001,1.479,1.477,1.4629,1.4409,1.4335,1.4222,1.4162,1.4135,1.4095,1.4095,1.4088,1.4088,1.4088,1.4075,1.3955,1.38,1.368,1.354,1.3206,1.2891,1.2636,1.2445,1.2325,1.2422,1.2569,1.2569,1.2599,1.2966,1.3331,1.3977,1.4589,1.5294,1.6079,1.6664,1.7024,1.7149,1.7305,1.7249,1.6855,1.626,1.5947,1.582,1.5615,1.542,1.5704,1.6049,1.6551,1.6913,0.383,0.5135,0.5789,0.6692,0.7596,0.7892,0.7999,0.8106,0.8143,0.8168,0.8007,0.7334,0.6158,0.5016,0.4531,0.4344,0.4507,0.4954,0.5312,0.5483,0.5483,0.5536,0.5682,0.5962,0.6466,0.7411,0.7733,0.8082,0.829,0.8255,0.8113,0.8092,0.8008,0.7995,0.7988,0.7988,0.7988,0.7988,0.7988,0.7988,0.7988,0.7988,0.7988,0.7988,0.7988,0.7988,0.7988,0.7988,0.7985,0.7958,0.7891,0.7858,0.7873,0.7984,0.8502,0.9216,1.033,1.1514,1.251,1.3401,1.3994,1.4521,1.4948,1.511,1.5211,1.5177,1.511,1.509,1.507,1.4917,1.4716,1.4629,1.4489,1.4349,1.4229,1.4168,1.4122,1.4148,1.4128,1.4088,1.4088,1.4088,1.3968,1.382,1.3613,1.3367,1.3053,1.2757,1.2569,1.2422,1.261,1.2802,1.2958,1.306,1.3484,1.3876,1.4446,1.501,1.5719,1.6324,1.695,1.7301,1.7422,1.7605,1.775,1.7432,1.6846,1.6484,1.6183,1.6084,1.6065,1.6186,1.6558,1.7191,1.7881,0.4483,0.5942,0.6239,0.6842,0.7643,0.7892,0.7849,0.7761,0.7808,0.7727,0.7513,0.6858,0.6419,0.5989,0.5499,0.5347,0.5629,0.5704,0.5986,0.5984,0.5761,0.5708,0.5866,0.607,0.6368,0.7279,0.7723,0.8084,0.8391,0.8394,0.8286,0.8289,0.8119,0.8012,0.7988,0.7988,0.7988,0.7988,0.7988,0.7988,0.7988,0.7988,0.7988,0.7988,0.7988,0.7988,0.7988,0.7988,0.7988,0.7988,0.7958,0.8048,0.8112,0.8263,0.8816,0.9827,1.07,1.1966,1.3182,1.3919,1.4406,1.485,1.5193,1.5451,1.5591,1.5712,1.5638,1.5404,1.5371,1.5224,1.5044,1.4955,1.4783,1.4603,1.4476,1.4416,1.4355,1.4311,1.4278,1.4128,1.4115,1.4155,1.4082,1.3968,1.3753,1.3473,1.324,1.2958,1.2793,1.2713,1.2936,1.313,1.3374,1.3638,1.4152,1.4605,1.5054,1.5613,1.6254,1.6786,1.7314,1.755,1.7682,1.7794,1.7891,1.7666,1.7471,1.7109,1.6826,1.6719,1.6694,1.6743,1.7544,1.8502,1.911,0.5085,0.6239,0.6539,0.7092,0.7839,0.7939,0.7942,0.7836,0.7869,0.7775,0.743,0.6939,0.6616,0.6427,0.6214,0.61,0.6374,0.6599,0.671,0.6654,0.6432,0.6267,0.6323,0.626,0.6516,0.7254,0.7685,0.812,0.8435,0.8471,0.855,0.8459,0.8218,0.8025,0.7988,0.7995,0.7988,0.7988,0.7988,0.7988,0.7988,0.7988,0.7988,0.7988,0.7988,0.7988,0.7988,0.7988,0.7988,0.7988,0.7988,0.8142,0.835,0.8585,0.9311,1.0325,1.1197,1.2448,1.3615,1.4291,1.4776,1.5329,1.5577,1.5712,1.5825,1.5825,1.5792,1.5685,1.5638,1.5498,1.5297,1.5217,1.5124,1.4903,1.4763,1.4703,1.4609,1.4566,1.4499,1.4396,1.4329,1.4302,1.4195,1.4075,1.3881,1.3626,1.3394,1.3172,1.3047,1.3127,1.3388,1.3752,1.4044,1.439,1.4879,1.5309,1.5674,1.6219,1.6786,1.7166,1.7554,1.7759,1.791,1.8008,1.8008,1.7852,1.7725,1.7627,1.7369,1.7048,1.7032,1.7135,1.8249,1.9647,2.0266,0.5834,0.6637,0.6942,0.7341,0.7842,0.7892,0.7691,0.7493,0.741,0.7357,0.7158,0.6634,0.649,0.6492,0.627,0.627,0.6432,0.6599,0.6821,0.6765,0.6546,0.6548,0.6437,0.6432,0.6427,0.7154,0.7601,0.8033,0.8504,0.8608,0.8646,0.8574,0.8374,0.8211,0.8106,0.8008,0.7992,0.7988,0.7988,0.7988,0.7988,0.7988,0.7988,0.7988,0.7988,0.7988,0.7988,0.7988,0.7988,0.7988,0.8038,0.8184,0.8531,0.9031,0.9677,1.0659,1.1731,1.2851,1.3763,1.4627,1.5213,1.565,1.5751,1.5805,1.5825,1.5825,1.5805,1.5812,1.5758,1.5691,1.5518,1.5511,1.5391,1.5177,1.5104,1.5037,1.4948,1.4847,1.4787,1.4727,1.4576,1.4422,1.4315,1.4175,1.3921,1.3706,1.3527,1.3407,1.3381,1.3564,1.3941,1.4384,1.4866,1.5231,1.5667,1.6129,1.6555,1.6707,1.7201,1.7442,1.775,1.793,1.8008,1.8008,1.8008,1.8008,1.7939,1.7812,1.7568,1.7252,1.7519,1.7926,1.8924,2.0277,2.1175,0.6637,0.7185,0.7441,0.7593,0.7593,0.7593,0.7197,0.6575,0.6379,0.6235,0.6164,0.5872,0.5917,0.6031,0.5753,0.5822,0.5986,0.5986,0.6154,0.6376,0.6156,0.6047,0.6098,0.6093,0.6176,0.7035,0.7503,0.7865,0.8404,0.8578,0.8639,0.8665,0.8499,0.835,0.8258,0.8116,0.7998,0.7988,0.7988,0.7988,0.7988,0.7988,0.7988,0.7988,0.7988,0.7988,0.7988,0.7988,0.7988,0.7988,0.7988,0.8233,0.8676,0.9031,0.9821,1.1047,1.1932,1.2899,1.3854,1.5064,1.5594,1.5784,1.5825,1.5825,1.5825,1.5825,1.5825,1.5825,1.5825,1.5825,1.5792,1.5772,1.5591,1.5491,1.5418,1.5357,1.5231,1.5209,1.5124,1.4997,1.4743,1.4522,1.4416,1.4262,1.3981,1.3794,1.3646,1.3649,1.3713,1.4031,1.45,1.5106,1.5623,1.607,1.6471,1.7007,1.7375,1.7492,1.7588,1.7759,1.7862,1.7974,1.8008,1.8018,1.8008,1.8008,1.8008,1.7988,1.7864,1.784,1.8443,1.9043,1.9966,2.076,2.1585,0.7138,0.749,0.7593,0.749,0.7388,0.7543,0.7141,0.6356,0.5751,0.5352,0.5202,0.4971,0.4898,0.4964,0.5006,0.5027,0.514,0.5594,0.5761,0.5757,0.5526,0.5764,0.5748,0.5641,0.5779,0.6468,0.6983,0.7582,0.8064,0.8434,0.8652,0.8638,0.857,0.8414,0.835,0.8197,0.8157,0.8008,0.7988,0.7988,0.7988,0.7988,0.7988,0.7988,0.7988,0.7988,0.7988,0.7988,0.7988,0.7988,0.7988,0.8233,0.8775,0.913,0.9969,1.1145,1.2078,1.3292,1.4346,1.5309,1.5635,1.573,1.5825,1.5825,1.5825,1.5825,1.5825,1.5825,1.5825,1.5825,1.5818,1.5818,1.5718,1.5678,1.5638,1.5631,1.5605,1.5591,1.5538,1.5344,1.511,1.4783,1.4596,1.4476,1.4222,1.4068,1.3988,1.4116,1.4207,1.4618,1.5085,1.5754,1.6325,1.6799,1.7319,1.775,1.7932,1.7946,1.7921,1.7906,1.7974,1.8086,1.8076,1.8115,1.8057,1.8008,1.8076,1.8184,1.8367,1.8586,1.9031,1.9485,2.015,2.0942,2.1815,0.759,0.7743,0.7746,0.7593,0.7338,0.7441,0.6889,0.5856,0.5033,0.454,0.4334,0.4132,0.4005,0.3966,0.394,0.4129,0.4182,0.44,0.4782,0.4786,0.4673,0.4771,0.4865,0.4957,0.536,0.598,0.6698,0.7328,0.7984,0.8325,0.8577,0.8652,0.8611,0.8543,0.8431,0.8343,0.8225,0.813,0.8099,0.7988,0.7988,0.7988,0.7988,0.7988,0.7988,0.7988,0.7988,0.7988,0.7988,0.7988,0.8088,0.8283,0.8779,0.9373,1.0117,1.1145,1.2414,1.3636,1.4742,1.5172,1.5452,1.5784,1.5778,1.5825,1.5825,1.5825,1.5825,1.5825,1.5825,1.5825,1.5825,1.5825,1.5825,1.5778,1.5771,1.5758,1.5744,1.5711,1.5738,1.5565,1.5357,1.505,1.479,1.4649,1.4489,1.4396,1.4309,1.452,1.4706,1.5048,1.5541,1.6259,1.7,1.7516,1.7982,1.8405,1.8525,1.8423,1.8386,1.834,1.8281,1.8408,1.8311,1.8291,1.8467,1.8525,1.8345,1.837,1.857,1.89,1.9287,1.9781,2.0323,2.1155,2.2056,0.7988,0.7988,0.7988,0.7842,0.7593,0.7291,0.6337,0.4893,0.4415,0.3933,0.3478,0.3588,0.3405,0.309,0.3043,0.3264,0.348,0.332,0.359,0.3692,0.3546,0.3697,0.3852,0.3998,0.4731,0.5735,0.6556,0.7197,0.7941,0.8288,0.8526,0.8635,0.8625,0.8615,0.8554,0.8469,0.8323,0.8228,0.8147,0.8032,0.8002,0.7988,0.7988,0.7988,0.7988,0.7988,0.7988,0.7988,0.7988,0.7988,0.7988,0.8333,0.8779,0.9324,1.0212,1.134,1.2759,1.3919,1.4892,1.5131,1.541,1.5737,1.5825,1.5825,1.5825,1.5825,1.5825,1.5825,1.5825,1.5825,1.5825,1.5825,1.5825,1.5825,1.5825,1.5818,1.5825,1.5812,1.5812,1.5685,1.5491,1.5251,1.5044,1.489,1.4756,1.4733,1.4677,1.4786,1.4949,1.5138,1.5756,1.6714,1.7421,1.8215,1.8659,1.8957,1.9014,1.8923,1.8942,1.8926,1.8848,1.873,1.8672,1.875,1.9053,1.9082,1.8922,1.8809,1.8858,1.9206,1.9633,2.0139,2.0677,2.1494,2.2297,0.7988,0.7988,0.7988,0.7842,0.7543,0.7092,0.6392,0.5646,0.5122,0.442,0.351,0.3421,0.3187,0.2669,0.2861,0.3029,0.3139,0.3195,0.3252,0.3138,0.2911,0.2977,0.3127,0.3416,0.4236,0.5296,0.6251,0.7018,0.7795,0.8227,0.8347,0.8391,0.8547,0.8618,0.8662,0.8625,0.8469,0.833,0.8241,0.8153,0.8032,0.8012,0.8002,0.7995,0.7988,0.7988,0.7988,0.7988,0.7988,0.7988,0.7988,0.8283,0.8779,0.9377,1.0265,1.217,1.3286,1.416,1.4939,1.5267,1.5499,1.5737,1.5825,1.5825,1.5825,1.5825,1.5825,1.5825,1.5825,1.5825,1.5825,1.5825,1.5825,1.5825,1.5825,1.5825,1.5825,1.5825,1.5825,1.5772,1.5578,1.5471,1.5271,1.5124,1.5003,1.5001,1.5017,1.513,1.5236,1.539,1.6005,1.6974,1.7747,1.851,1.9003,1.9333,1.9402,1.9447,1.9488,1.9453,1.9307,1.9189,1.9092,1.9189,1.9463,1.9531,1.9473,1.9397,1.9349,1.9606,2.0014,2.0543,2.1115,2.1874,2.2432,0.7988,0.7988,0.7988,0.7889,0.7693,0.7391,0.7045,0.6542,0.5739,0.4784,0.3986,0.3826,0.3488,0.3236,0.3316,0.3487,0.3744,0.3634,0.3635,0.353,0.2664,0.281,0.2903,0.305,0.3903,0.4991,0.604,0.69,0.7677,0.8108,0.8292,0.8394,0.8496,0.8648,0.8754,0.8777,0.8672,0.8516,0.8381,0.8272,0.8184,0.8119,0.8102,0.7995,0.7988,0.7988,0.7988,0.7988,0.7988,0.7988,0.7988,0.8233,0.8973,0.9768,1.0944,1.2748,1.3619,1.4394,1.5118,1.5397,1.5588,1.573,1.5825,1.5825,1.5825,1.5825,1.5825,1.5825,1.5825,1.5825,1.5825,1.5825,1.5825,1.5825,1.5825,1.5825,1.5825,1.5825,1.5812,1.5798,1.5718,1.5631,1.5498,1.5357,1.5343,1.5377,1.5454,1.5635,1.5646,1.5698,1.6396,1.7341,1.8029,1.8709,1.9222,1.9732,1.988,1.9965,2.0031,1.9961,1.9785,1.9775,1.9785,1.9832,1.9881,1.9893,1.9941,1.9875,1.9869,2.0146,2.047,2.1073,2.1594,2.2114,2.2586,0.7988,0.7988,0.7988,0.7988,0.7988,0.7939,0.7793,0.7494,0.6339,0.5331,0.4732,0.4583,0.4392,0.4203,0.4268,0.4517,0.4573,0.4474,0.4273,0.4336,0.3099,0.2798,0.2899,0.303,0.375,0.4947,0.5997,0.6821,0.7617,0.8085,0.8391,0.8499,0.8618,0.8754,0.8821,0.8844,0.8815,0.8713,0.8581,0.8465,0.8306,0.8241,0.8201,0.8015,0.7988,0.7988,0.7988,0.7988,0.7988,0.7988,0.8088,0.8283,0.932,1.0453,1.1868,1.2985,1.3854,1.4627,1.5213,1.5493,1.5635,1.573,1.5825,1.5825,1.5825,1.5825,1.5825,1.5825,1.5825,1.5825,1.5825,1.5825,1.5825,1.5825,1.5825,1.5825,1.5825,1.5825,1.5818,1.5812,1.5792,1.5718,1.5705,1.5571,1.5545,1.5698,1.5812,1.6019,1.6252,1.6235,1.6962,1.786,1.8585,1.9286,1.9785,2.0213,2.0449,2.0537,2.0507,2.0449,2.0243,2.0361,2.0566,2.041,2.0233,2.039,2.0428,2.0317,2.0279,2.0539,2.0976,2.1621,2.2138,2.2635,2.3015,0.7988,0.7988,0.7988,0.7988,0.7988,0.7988,0.7842,0.7596,0.7291,0.6637,0.5987,0.5687,0.5486,0.5286,0.5388,0.5589,0.5589,0.5386,0.5033,0.4582,0.3627,0.3126,0.2977,0.3027,0.3681,0.4734,0.5799,0.6905,0.7871,0.8312,0.8503,0.8635,0.8723,0.8811,0.8871,0.8937,0.8899,0.8845,0.8798,0.8598,0.8408,0.8265,0.8201,0.8096,0.7995,0.7998,0.7998,0.7998,0.7995,0.7988,0.7988,0.8581,0.9669,1.0895,1.2111,1.3275,1.4148,1.4873,1.535,1.5635,1.573,1.5778,1.5825,1.5825,1.5825,1.5825,1.5825,1.5825,1.5825,1.5825,1.5825,1.5825,1.5825,1.5825,1.5825,1.5825,1.5825,1.5825,1.5825,1.5825,1.5825,1.5825,1.5825,1.5825,1.5825,1.5906,1.6035,1.6315,1.6892,1.7116,1.7814,1.868,1.938,1.9998,2.0436,2.059,2.078,2.0693,2.0605,2.0605,2.0615,2.0615,2.0615,2.0615,2.0566,2.0615,2.0585,2.0508,2.0599,2.0933,2.1485,2.2128,2.2881,2.3433,2.3703,0.7988,0.7988,0.7988,0.7988,0.7988,0.7988,0.7942,0.7793,0.7793,0.754,0.7086,0.6739,0.6437,0.6337,0.6489,0.6592,0.6592,0.6439,0.6137,0.5486,0.4582,0.3981,0.363,0.3278,0.388,0.4836,0.6156,0.7304,0.8263,0.8506,0.8645,0.872,0.8764,0.8845,0.8937,0.8937,0.8937,0.8933,0.8937,0.8754,0.8455,0.8394,0.8296,0.8184,0.8092,0.8089,0.8133,0.815,0.8187,0.8285,0.8444,0.8938,0.9999,1.1096,1.236,1.3474,1.4394,1.5118,1.5512,1.577,1.5872,1.5879,1.5838,1.5845,1.5825,1.5825,1.5825,1.5825,1.5825,1.5825,1.5825,1.5825,1.5825,1.5825,1.5825,1.5825,1.5825,1.5825,1.5825,1.5825,1.5825,1.5825,1.5825,1.5825,1.5825,1.5927,1.6116,1.6447,1.7059,1.7911,1.866,1.9519,2.0214,2.0642,2.0958,2.1057,2.1004,2.0908,2.0703,2.0654,2.0625,2.0615,2.0615,2.0615,2.0615,2.0615,2.0584,2.0645,2.1062,2.1505,2.2056,2.2648,2.3407,2.4165,2.4484,0.7968,0.7985,0.7988,0.7988,0.7988,0.7988,0.7988,0.7988,0.7988,0.7988,0.7889,0.7441,0.7338,0.7285,0.7335,0.749,0.7444,0.7141,0.6992,0.6439,0.5582,0.4734,0.4133,0.3932,0.4394,0.5359,0.6673,0.7605,0.8516,0.8659,0.875,0.8771,0.8842,0.8937,0.8937,0.8937,0.8937,0.8937,0.892,0.8814,0.8723,0.8587,0.8442,0.8296,0.8191,0.8177,0.8255,0.8368,0.8429,0.8581,0.8862,0.9486,1.0355,1.1468,1.2778,1.3924,1.482,1.5438,1.5833,1.6004,1.5977,1.5937,1.5919,1.5892,1.5899,1.5852,1.5852,1.5825,1.5825,1.5825,1.5825,1.5825,1.5825,1.5825,1.5825,1.5825,1.5825,1.5825,1.5825,1.5825,1.5825,1.5825,1.5825,1.5825,1.5879,1.5974,1.6258,1.6636,1.7178,1.8195,1.9113,2.0137,2.106,2.1428,2.1588,2.1542,2.1483,2.1123,2.0918,2.0772,2.0625,2.0615,2.0615,2.0615,2.0615,2.0615,2.0731,2.0864,2.1354,2.1924,2.2585,2.3193,2.4026,2.4729,2.5219,0.7929,0.7988,0.7988,0.7988,0.7988,0.7988,0.7988,0.7988,0.7988,0.7988,0.7988,0.7939,0.7839,0.7839,0.7839,0.7889,0.7789,0.764,0.7191,0.6689,0.6037,0.5188,0.4643,0.4504,0.4936,0.5945,0.718,0.8021,0.8622,0.8804,0.8889,0.8889,0.8893,0.8937,0.8937,0.8937,0.8937,0.8937,0.8937,0.8848,0.8817,0.8737,0.8594,0.8486,0.8418,0.8418,0.8438,0.8494,0.8455,0.8619,0.9034,0.9768,1.0736,1.1812,1.3121,1.4407,1.532,1.5821,1.6196,1.6344,1.638,1.6386,1.6313,1.6166,1.6099,1.5945,1.5912,1.5832,1.5825,1.5825,1.5825,1.5825,1.5825,1.5825,1.5825,1.5825,1.5825,1.5825,1.5825,1.5825,1.5825,1.5825,1.5825,1.5825,1.5825,1.6021,1.6353,1.673,1.7099,1.8249,1.9438,2.0613,2.1713,2.2,2.213,2.2116,2.2021,2.1522,2.1113,2.0879,2.0732,2.0625,2.0615,2.0615,2.0615,2.0615,2.077,2.0964,2.1492,2.2042,2.2942,2.3713,2.4566,2.5211,2.5669]}]]